<?xml version="1.0" encoding="utf-8"?>
<gpx xmlns:xsi="http://www.w3.org/2001/XMLSchema-instance" xmlns:xsd="http://www.w3.org/2001/XMLSchema" version="1.1" creator="Shapelink.com" xmlns="http://www.topografix.com/GPX/1/1" xmlns:gpxtpx="http://www.garmin.com/xmlschemas/TrackPointExtension/v1">
  <metadata>
    <name>Alpine skiing 16.29 km, 2019-01-07</name>
    <desc></desc>
    <author><name>Stefan Östlund</name></author> 
    <time>2019-01-07T14:28:24Z</time>
  </metadata>
  <trk>
    <name>Alpine skiing 16.29 km, 2019-01-07</name>
    <trkseg>
      <trkpt lat="37.062278745944" lon="-3.373959836756">
        <ele>3006.4</ele>
        <time>2019-01-07T14:28:24Z</time>
      </trkpt>
      <trkpt lat="37.062133319979" lon="-3.374265524649">
        <ele>3005.2</ele>
        <time>2019-01-07T14:28:37Z</time>
      </trkpt>
      <trkpt lat="37.062148826494" lon="-3.374408436044">
        <ele>3004</ele>
        <time>2019-01-07T14:28:40Z</time>
      </trkpt>
      <trkpt lat="37.062198531161" lon="-3.374495356347">
        <ele>3002.8</ele>
        <time>2019-01-07T14:28:42Z</time>
      </trkpt>
      <trkpt lat="37.062259216117" lon="-3.37460071683">
        <ele>3001.4</ele>
        <time>2019-01-07T14:28:44Z</time>
      </trkpt>
      <trkpt lat="37.062312860277" lon="-3.374638519199">
        <ele>2999.4</ele>
        <time>2019-01-07T14:28:46Z</time>
      </trkpt>
      <trkpt lat="37.062376646536" lon="-3.37464346452">
        <ele>2998.4</ele>
        <time>2019-01-07T14:28:47Z</time>
      </trkpt>
      <trkpt lat="37.062436577121" lon="-3.374627455091">
        <ele>2997.2</ele>
        <time>2019-01-07T14:28:48Z</time>
      </trkpt>
      <trkpt lat="37.062489383091" lon="-3.374604404866">
        <ele>2996.2</ele>
        <time>2019-01-07T14:28:49Z</time>
      </trkpt>
      <trkpt lat="37.062530873496" lon="-3.37457640932">
        <ele>2995.4</ele>
        <time>2019-01-07T14:28:50Z</time>
      </trkpt>
      <trkpt lat="37.062672108511" lon="-3.374514215622">
        <ele>2994.4</ele>
        <time>2019-01-07T14:28:52Z</time>
      </trkpt>
      <trkpt lat="37.062672108511" lon="-3.374514215622">
        <ele>2994.2</ele>
        <time>2019-01-07T14:28:53Z</time>
      </trkpt>
      <trkpt lat="37.062843602185" lon="-3.374458140711">
        <ele>2993.6</ele>
        <time>2019-01-07T14:28:55Z</time>
      </trkpt>
      <trkpt lat="37.062843602185" lon="-3.374458140711">
        <ele>2993</ele>
        <time>2019-01-07T14:28:56Z</time>
      </trkpt>
      <trkpt lat="37.062945945184" lon="-3.374422769093">
        <ele>2992.6</ele>
        <time>2019-01-07T14:28:57Z</time>
      </trkpt>
      <trkpt lat="37.062998080602" lon="-3.374407765492">
        <ele>2992</ele>
        <time>2019-01-07T14:28:58Z</time>
      </trkpt>
      <trkpt lat="37.062998080602" lon="-3.374407765492">
        <ele>2990.8</ele>
        <time>2019-01-07T14:28:59Z</time>
      </trkpt>
      <trkpt lat="37.063050467477" lon="-3.374388822398">
        <ele>2989.8</ele>
        <time>2019-01-07T14:29:00Z</time>
      </trkpt>
      <trkpt lat="37.063100842696" lon="-3.374357725549">
        <ele>2988.4</ele>
        <time>2019-01-07T14:29:01Z</time>
      </trkpt>
      <trkpt lat="37.063193881786" lon="-3.374297962602">
        <ele>2987.2</ele>
        <time>2019-01-07T14:29:02Z</time>
      </trkpt>
      <trkpt lat="37.063290525093" lon="-3.374269380323">
        <ele>2985.8</ele>
        <time>2019-01-07T14:29:04Z</time>
      </trkpt>
      <trkpt lat="37.063441986026" lon="-3.374229314841">
        <ele>2984.8</ele>
        <time>2019-01-07T14:29:07Z</time>
      </trkpt>
      <trkpt lat="37.063552962382" lon="-3.374208863005">
        <ele>2983.6</ele>
        <time>2019-01-07T14:29:09Z</time>
      </trkpt>
      <trkpt lat="37.063666118032" lon="-3.37420592934">
        <ele>2982.4</ele>
        <time>2019-01-07T14:29:11Z</time>
      </trkpt>
      <trkpt lat="37.063773406352" lon="-3.374221771131">
        <ele>2981</ele>
        <time>2019-01-07T14:29:14Z</time>
      </trkpt>
      <trkpt lat="37.063865355795" lon="-3.374250269591">
        <ele>2980.4</ele>
        <time>2019-01-07T14:29:15Z</time>
      </trkpt>
      <trkpt lat="37.063906762381" lon="-3.374263932088">
        <ele>2979.8</ele>
        <time>2019-01-07T14:29:16Z</time>
      </trkpt>
      <trkpt lat="37.063985300784" lon="-3.374289077788">
        <ele>2978.6</ele>
        <time>2019-01-07T14:29:19Z</time>
      </trkpt>
      <trkpt lat="37.064103988488" lon="-3.37432159956">
        <ele>2977.6</ele>
        <time>2019-01-07T14:29:22Z</time>
      </trkpt>
      <trkpt lat="37.064213456102" lon="-3.374379015575">
        <ele>2976.4</ele>
        <time>2019-01-07T14:29:26Z</time>
      </trkpt>
      <trkpt lat="37.06421613831" lon="-3.374428636423">
        <ele>2976</ele>
        <time>2019-01-07T14:29:27Z</time>
      </trkpt>
      <trkpt lat="37.064209516609" lon="-3.374498876745">
        <ele>2975.4</ele>
        <time>2019-01-07T14:29:28Z</time>
      </trkpt>
      <trkpt lat="37.064230722816" lon="-3.374573391836">
        <ele>2974.6</ele>
        <time>2019-01-07T14:29:29Z</time>
      </trkpt>
      <trkpt lat="37.064261568208" lon="-3.374646482004">
        <ele>2973.2</ele>
        <time>2019-01-07T14:29:30Z</time>
      </trkpt>
      <trkpt lat="37.064285456623" lon="-3.374730049547">
        <ele>2971.6</ele>
        <time>2019-01-07T14:29:31Z</time>
      </trkpt>
      <trkpt lat="37.064321666431" lon="-3.374810180511">
        <ele>2969.8</ele>
        <time>2019-01-07T14:29:32Z</time>
      </trkpt>
      <trkpt lat="37.064365000854" lon="-3.374875894607">
        <ele>2967.8</ele>
        <time>2019-01-07T14:29:33Z</time>
      </trkpt>
      <trkpt lat="37.06439551097" lon="-3.374944458549">
        <ele>2965.8</ele>
        <time>2019-01-07T14:29:34Z</time>
      </trkpt>
      <trkpt lat="37.064416800996" lon="-3.375034312517">
        <ele>2963.8</ele>
        <time>2019-01-07T14:29:35Z</time>
      </trkpt>
      <trkpt lat="37.06445837522" lon="-3.375110923083">
        <ele>2961.8</ele>
        <time>2019-01-07T14:29:36Z</time>
      </trkpt>
      <trkpt lat="37.064504643308" lon="-3.37517822974">
        <ele>2959.4</ele>
        <time>2019-01-07T14:29:37Z</time>
      </trkpt>
      <trkpt lat="37.064532555035" lon="-3.375258025428">
        <ele>2957</ele>
        <time>2019-01-07T14:29:38Z</time>
      </trkpt>
      <trkpt lat="37.064549570292" lon="-3.37535173507">
        <ele>2954.6</ele>
        <time>2019-01-07T14:29:39Z</time>
      </trkpt>
      <trkpt lat="37.064582092064" lon="-3.375452234051">
        <ele>2952.2</ele>
        <time>2019-01-07T14:29:40Z</time>
      </trkpt>
      <trkpt lat="37.064603298271" lon="-3.375541333648">
        <ele>2949.8</ele>
        <time>2019-01-07T14:29:41Z</time>
      </trkpt>
      <trkpt lat="37.064580667141" lon="-3.37562330863">
        <ele>2947.2</ele>
        <time>2019-01-07T14:29:42Z</time>
      </trkpt>
      <trkpt lat="37.064543283867" lon="-3.375705870345">
        <ele>2944.8</ele>
        <time>2019-01-07T14:29:43Z</time>
      </trkpt>
      <trkpt lat="37.064541858944" lon="-3.375790778992">
        <ele>2942.8</ele>
        <time>2019-01-07T14:29:44Z</time>
      </trkpt>
      <trkpt lat="37.064556527269" lon="-3.375871831965">
        <ele>2940.8</ele>
        <time>2019-01-07T14:29:45Z</time>
      </trkpt>
      <trkpt lat="37.064560131486" lon="-3.375955734784">
        <ele>2939</ele>
        <time>2019-01-07T14:29:46Z</time>
      </trkpt>
      <trkpt lat="37.064570776499" lon="-3.376034273187">
        <ele>2937.2</ele>
        <time>2019-01-07T14:29:47Z</time>
      </trkpt>
      <trkpt lat="37.064607405402" lon="-3.376100406378">
        <ele>2935.6</ele>
        <time>2019-01-07T14:29:48Z</time>
      </trkpt>
      <trkpt lat="37.064642525563" lon="-3.376150613959">
        <ele>2934.2</ele>
        <time>2019-01-07T14:29:49Z</time>
      </trkpt>
      <trkpt lat="37.064656607155" lon="-3.376211298915">
        <ele>2932.6</ele>
        <time>2019-01-07T14:29:50Z</time>
      </trkpt>
      <trkpt lat="37.064666413978" lon="-3.376271145681">
        <ele>2930.8</ele>
        <time>2019-01-07T14:29:51Z</time>
      </trkpt>
      <trkpt lat="37.064694241886" lon="-3.37632319728">
        <ele>2929</ele>
        <time>2019-01-07T14:29:52Z</time>
      </trkpt>
      <trkpt lat="37.064741431983" lon="-3.376363933314">
        <ele>2927.2</ele>
        <time>2019-01-07T14:29:53Z</time>
      </trkpt>
      <trkpt lat="37.064781581284" lon="-3.376416152551">
        <ele>2925.4</ele>
        <time>2019-01-07T14:29:54Z</time>
      </trkpt>
      <trkpt lat="37.064808235726" lon="-3.376485135588">
        <ele>2923.4</ele>
        <time>2019-01-07T14:29:55Z</time>
      </trkpt>
      <trkpt lat="37.064859113859" lon="-3.376550514408">
        <ele>2921.2</ele>
        <time>2019-01-07T14:29:56Z</time>
      </trkpt>
      <trkpt lat="37.064923067756" lon="-3.376603404197">
        <ele>2918.4</ele>
        <time>2019-01-07T14:29:57Z</time>
      </trkpt>
      <trkpt lat="37.06497302388" lon="-3.3766567969">
        <ele>2915.4</ele>
        <time>2019-01-07T14:29:58Z</time>
      </trkpt>
      <trkpt lat="37.064999678322" lon="-3.376728797421">
        <ele>2912.8</ele>
        <time>2019-01-07T14:29:59Z</time>
      </trkpt>
      <trkpt lat="37.065025746031" lon="-3.376798367191">
        <ele>2910.6</ele>
        <time>2019-01-07T14:30:00Z</time>
      </trkpt>
      <trkpt lat="37.065061285287" lon="-3.37685209517">
        <ele>2908.2</ele>
        <time>2019-01-07T14:30:01Z</time>
      </trkpt>
      <trkpt lat="37.065098081828" lon="-3.376912947764">
        <ele>2906.2</ele>
        <time>2019-01-07T14:30:02Z</time>
      </trkpt>
      <trkpt lat="37.065147618857" lon="-3.376971201969">
        <ele>2904.4</ele>
        <time>2019-01-07T14:30:03Z</time>
      </trkpt>
      <trkpt lat="37.065213752048" lon="-3.377023588844">
        <ele>2902.6</ele>
        <time>2019-01-07T14:30:04Z</time>
      </trkpt>
      <trkpt lat="37.06527225771" lon="-3.377094583537">
        <ele>2900.4</ele>
        <time>2019-01-07T14:30:05Z</time>
      </trkpt>
      <trkpt lat="37.065335457236" lon="-3.377159962357">
        <ele>2898</ele>
        <time>2019-01-07T14:30:06Z</time>
      </trkpt>
      <trkpt lat="37.065414833829" lon="-3.377224000073">
        <ele>2895.2</ele>
        <time>2019-01-07T14:30:07Z</time>
      </trkpt>
      <trkpt lat="37.06549605444" lon="-3.377297425517">
        <ele>2891.6</ele>
        <time>2019-01-07T14:30:08Z</time>
      </trkpt>
      <trkpt lat="37.065549363324" lon="-3.377412592823">
        <ele>2887.6</ele>
        <time>2019-01-07T14:30:09Z</time>
      </trkpt>
      <trkpt lat="37.06558993172" lon="-3.377558186426">
        <ele>2883.8</ele>
        <time>2019-01-07T14:30:10Z</time>
      </trkpt>
      <trkpt lat="37.065642989147" lon="-3.377712161929">
        <ele>2880</ele>
        <time>2019-01-07T14:30:11Z</time>
      </trkpt>
      <trkpt lat="37.065725131767" lon="-3.377854654229">
        <ele>2876.4</ele>
        <time>2019-01-07T14:30:12Z</time>
      </trkpt>
      <trkpt lat="37.065826636576" lon="-3.377942664179">
        <ele>2873.6</ele>
        <time>2019-01-07T14:30:13Z</time>
      </trkpt>
      <trkpt lat="37.065925123901" lon="-3.378033523975">
        <ele>2871.2</ele>
        <time>2019-01-07T14:30:14Z</time>
      </trkpt>
      <trkpt lat="37.066001650648" lon="-3.378136621345">
        <ele>2868.8</ele>
        <time>2019-01-07T14:30:15Z</time>
      </trkpt>
      <trkpt lat="37.066072812979" lon="-3.378247597701">
        <ele>2866.8</ele>
        <time>2019-01-07T14:30:16Z</time>
      </trkpt>
      <trkpt lat="37.066156464341" lon="-3.378370727812">
        <ele>2864.8</ele>
        <time>2019-01-07T14:30:17Z</time>
      </trkpt>
      <trkpt lat="37.066236511486" lon="-3.378492181543">
        <ele>2863</ele>
        <time>2019-01-07T14:30:18Z</time>
      </trkpt>
      <trkpt lat="37.066294262777" lon="-3.378629225608">
        <ele>2860.4</ele>
        <time>2019-01-07T14:30:19Z</time>
      </trkpt>
      <trkpt lat="37.066351930249" lon="-3.378774148659">
        <ele>2858</ele>
        <time>2019-01-07T14:30:20Z</time>
      </trkpt>
      <trkpt lat="37.066421583838" lon="-3.378915132217">
        <ele>2855.6</ele>
        <time>2019-01-07T14:30:21Z</time>
      </trkpt>
      <trkpt lat="37.066483777536" lon="-3.379059552354">
        <ele>2853.4</ele>
        <time>2019-01-07T14:30:22Z</time>
      </trkpt>
      <trkpt lat="37.066525100303" lon="-3.379209672183">
        <ele>2851</ele>
        <time>2019-01-07T14:30:23Z</time>
      </trkpt>
      <trkpt lat="37.066578325368" lon="-3.379351996845">
        <ele>2849</ele>
        <time>2019-01-07T14:30:24Z</time>
      </trkpt>
      <trkpt lat="37.066650996441" lon="-3.379478395897">
        <ele>2847.2</ele>
        <time>2019-01-07T14:30:25Z</time>
      </trkpt>
      <trkpt lat="37.066741018047" lon="-3.379576715584">
        <ele>2845.4</ele>
        <time>2019-01-07T14:30:26Z</time>
      </trkpt>
      <trkpt lat="37.066844283055" lon="-3.379618373627">
        <ele>2843.6</ele>
        <time>2019-01-07T14:30:27Z</time>
      </trkpt>
      <trkpt lat="37.066947967158" lon="-3.379659361118">
        <ele>2841.8</ele>
        <time>2019-01-07T14:30:28Z</time>
      </trkpt>
      <trkpt lat="37.06704251499" lon="-3.379714849296">
        <ele>2839.8</ele>
        <time>2019-01-07T14:30:29Z</time>
      </trkpt>
      <trkpt lat="37.067132871872" lon="-3.379780814849">
        <ele>2837.6</ele>
        <time>2019-01-07T14:30:30Z</time>
      </trkpt>
      <trkpt lat="37.067227168247" lon="-3.379816018829">
        <ele>2835.6</ele>
        <time>2019-01-07T14:30:31Z</time>
      </trkpt>
      <trkpt lat="37.067319285328" lon="-3.379835883932">
        <ele>2834.2</ele>
        <time>2019-01-07T14:30:32Z</time>
      </trkpt>
      <trkpt lat="37.067407462916" lon="-3.379866310229">
        <ele>2832.8</ele>
        <time>2019-01-07T14:30:33Z</time>
      </trkpt>
      <trkpt lat="37.067490359907" lon="-3.379902939132">
        <ele>2831.2</ele>
        <time>2019-01-07T14:30:34Z</time>
      </trkpt>
      <trkpt lat="37.067568814491" lon="-3.379914170878">
        <ele>2829.2</ele>
        <time>2019-01-07T14:30:35Z</time>
      </trkpt>
      <trkpt lat="37.067634025673" lon="-3.379893299947">
        <ele>2827.6</ele>
        <time>2019-01-07T14:30:36Z</time>
      </trkpt>
      <trkpt lat="37.067684233254" lon="-3.379863041288">
        <ele>2826.8</ele>
        <time>2019-01-07T14:30:37Z</time>
      </trkpt>
      <trkpt lat="37.067719604872" lon="-3.379829513688">
        <ele>2826.2</ele>
        <time>2019-01-07T14:30:38Z</time>
      </trkpt>
      <trkpt lat="37.067744834391" lon="-3.379812414612">
        <ele>2825.6</ele>
        <time>2019-01-07T14:30:39Z</time>
      </trkpt>
      <trkpt lat="37.067797975637" lon="-3.379875697957">
        <ele>2824.6</ele>
        <time>2019-01-07T14:30:41Z</time>
      </trkpt>
      <trkpt lat="37.067827815201" lon="-3.380013999307">
        <ele>2823.2</ele>
        <time>2019-01-07T14:30:43Z</time>
      </trkpt>
      <trkpt lat="37.067902581749" lon="-3.380104775284">
        <ele>2821.6</ele>
        <time>2019-01-07T14:30:45Z</time>
      </trkpt>
      <trkpt lat="37.067970894234" lon="-3.380108128044">
        <ele>2820.4</ele>
        <time>2019-01-07T14:30:47Z</time>
      </trkpt>
      <trkpt lat="37.06796703856" lon="-3.380082311792">
        <ele>2819.4</ele>
        <time>2019-01-07T14:30:50Z</time>
      </trkpt>
      <trkpt lat="37.067980533419" lon="-3.380083652896">
        <ele>2819.2</ele>
        <time>2019-01-07T14:30:53Z</time>
      </trkpt>
      <trkpt lat="37.068054545596" lon="-3.380095806651">
        <ele>2819</ele>
        <time>2019-01-07T14:30:55Z</time>
      </trkpt>
      <trkpt lat="37.068195193878" lon="-3.380148780259">
        <ele>2817.8</ele>
        <time>2019-01-07T14:30:57Z</time>
      </trkpt>
      <trkpt lat="37.068274738109" lon="-3.380198820202">
        <ele>2816.6</ele>
        <time>2019-01-07T14:30:58Z</time>
      </trkpt>
      <trkpt lat="37.068353863245" lon="-3.380191947044">
        <ele>2815</ele>
        <time>2019-01-07T14:30:59Z</time>
      </trkpt>
      <trkpt lat="37.06843642496" lon="-3.38018306223">
        <ele>2813.4</ele>
        <time>2019-01-07T14:31:00Z</time>
      </trkpt>
      <trkpt lat="37.068589226997" lon="-3.380234108001">
        <ele>2811.6</ele>
        <time>2019-01-07T14:31:01Z</time>
      </trkpt>
      <trkpt lat="37.068670866703" lon="-3.38027107218">
        <ele>2810</ele>
        <time>2019-01-07T14:31:02Z</time>
      </trkpt>
      <trkpt lat="37.068670866703" lon="-3.38027107218">
        <ele>2808.2</ele>
        <time>2019-01-07T14:31:03Z</time>
      </trkpt>
      <trkpt lat="37.06873984974" lon="-3.380314155146">
        <ele>2806.8</ele>
        <time>2019-01-07T14:31:04Z</time>
      </trkpt>
      <trkpt lat="37.068798942135" lon="-3.38037416955">
        <ele>2805.4</ele>
        <time>2019-01-07T14:31:05Z</time>
      </trkpt>
      <trkpt lat="37.068863566584" lon="-3.380432591393">
        <ele>2804.2</ele>
        <time>2019-01-07T14:31:06Z</time>
      </trkpt>
      <trkpt lat="37.068919725314" lon="-3.380485816458">
        <ele>2802.8</ele>
        <time>2019-01-07T14:31:07Z</time>
      </trkpt>
      <trkpt lat="37.068955767484" lon="-3.380562091748">
        <ele>2801.2</ele>
        <time>2019-01-07T14:31:08Z</time>
      </trkpt>
      <trkpt lat="37.068990384731" lon="-3.380644569644">
        <ele>2799.4</ele>
        <time>2019-01-07T14:31:09Z</time>
      </trkpt>
      <trkpt lat="37.06903573081" lon="-3.380723108047">
        <ele>2797.6</ele>
        <time>2019-01-07T14:31:10Z</time>
      </trkpt>
      <trkpt lat="37.069092308635" lon="-3.380781865166">
        <ele>2795.4</ele>
        <time>2019-01-07T14:31:11Z</time>
      </trkpt>
      <trkpt lat="37.069164895889" lon="-3.38082092482">
        <ele>2793.4</ele>
        <time>2019-01-07T14:31:12Z</time>
      </trkpt>
      <trkpt lat="37.069248547251" lon="-3.38085026147">
        <ele>2791.4</ele>
        <time>2019-01-07T14:31:13Z</time>
      </trkpt>
      <trkpt lat="37.069336724839" lon="-3.380879262844">
        <ele>2789.8</ele>
        <time>2019-01-07T14:31:14Z</time>
      </trkpt>
      <trkpt lat="37.06942381278" lon="-3.380922261991">
        <ele>2788</ele>
        <time>2019-01-07T14:31:15Z</time>
      </trkpt>
      <trkpt lat="37.069511738911" lon="-3.380978085445">
        <ele>2786.4</ele>
        <time>2019-01-07T14:31:16Z</time>
      </trkpt>
      <trkpt lat="37.069604358906" lon="-3.381026700465">
        <ele>2784.6</ele>
        <time>2019-01-07T14:31:17Z</time>
      </trkpt>
      <trkpt lat="37.069689602829" lon="-3.381081098996">
        <ele>2782.8</ele>
        <time>2019-01-07T14:31:18Z</time>
      </trkpt>
      <trkpt lat="37.069753892002" lon="-3.381157290467">
        <ele>2781</ele>
        <time>2019-01-07T14:31:19Z</time>
      </trkpt>
      <trkpt lat="37.069820863383" lon="-3.381223423658">
        <ele>2779.6</ele>
        <time>2019-01-07T14:31:20Z</time>
      </trkpt>
      <trkpt lat="37.069889175868" lon="-3.381292071419">
        <ele>2777.4</ele>
        <time>2019-01-07T14:31:21Z</time>
      </trkpt>
      <trkpt lat="37.069943658218" lon="-3.381386870708">
        <ele>2775</ele>
        <time>2019-01-07T14:31:22Z</time>
      </trkpt>
      <trkpt lat="37.070006187192" lon="-3.381484519843">
        <ele>2772.8</ele>
        <time>2019-01-07T14:31:23Z</time>
      </trkpt>
      <trkpt lat="37.070095622065" lon="-3.381567668291">
        <ele>2770.8</ele>
        <time>2019-01-07T14:31:24Z</time>
      </trkpt>
      <trkpt lat="37.070182123273" lon="-3.381659785372">
        <ele>2768.6</ele>
        <time>2019-01-07T14:31:25Z</time>
      </trkpt>
      <trkpt lat="37.070267367196" lon="-3.3817865197">
        <ele>2766.2</ele>
        <time>2019-01-07T14:31:26Z</time>
      </trkpt>
      <trkpt lat="37.07037096748" lon="-3.381894059477">
        <ele>2764</ele>
        <time>2019-01-07T14:31:27Z</time>
      </trkpt>
      <trkpt lat="37.070485967148" lon="-3.38198181797">
        <ele>2761</ele>
        <time>2019-01-07T14:31:28Z</time>
      </trkpt>
      <trkpt lat="37.070590070346" lon="-3.38206982792">
        <ele>2757.4</ele>
        <time>2019-01-07T14:31:29Z</time>
      </trkpt>
      <trkpt lat="37.070671626233" lon="-3.382179295534">
        <ele>2753.8</ele>
        <time>2019-01-07T14:31:30Z</time>
      </trkpt>
      <trkpt lat="37.070759384726" lon="-3.382269065683">
        <ele>2751</ele>
        <time>2019-01-07T14:31:31Z</time>
      </trkpt>
      <trkpt lat="37.070867008322" lon="-3.382307957699">
        <ele>2748.2</ele>
        <time>2019-01-07T14:31:32Z</time>
      </trkpt>
      <trkpt lat="37.070967507303" lon="-3.38233218139">
        <ele>2745.2</ele>
        <time>2019-01-07T14:31:33Z</time>
      </trkpt>
      <trkpt lat="37.071049817561" lon="-3.382389681224">
        <ele>2742</ele>
        <time>2019-01-07T14:31:34Z</time>
      </trkpt>
      <trkpt lat="37.071117543313" lon="-3.382486995083">
        <ele>2739.8</ele>
        <time>2019-01-07T14:31:35Z</time>
      </trkpt>
      <trkpt lat="37.07118568816" lon="-3.382570646445">
        <ele>2738.4</ele>
        <time>2019-01-07T14:31:36Z</time>
      </trkpt>
      <trkpt lat="37.071256012301" lon="-3.382650609771">
        <ele>2736.6</ele>
        <time>2019-01-07T14:31:37Z</time>
      </trkpt>
      <trkpt lat="37.071319128008" lon="-3.382716156229">
        <ele>2734.8</ele>
        <time>2019-01-07T14:31:38Z</time>
      </trkpt>
      <trkpt lat="37.071389955063" lon="-3.382784133438">
        <ele>2732.6</ele>
        <time>2019-01-07T14:31:39Z</time>
      </trkpt>
      <trkpt lat="37.071451310571" lon="-3.382832245544">
        <ele>2730.6</ele>
        <time>2019-01-07T14:31:40Z</time>
      </trkpt>
      <trkpt lat="37.071505960559" lon="-3.382893349595">
        <ele>2728.2</ele>
        <time>2019-01-07T14:31:41Z</time>
      </trkpt>
      <trkpt lat="37.071560862004" lon="-3.382957135854">
        <ele>2725.8</ele>
        <time>2019-01-07T14:31:42Z</time>
      </trkpt>
      <trkpt lat="37.071625905548" lon="-3.383036596266">
        <ele>2723.2</ele>
        <time>2019-01-07T14:31:43Z</time>
      </trkpt>
      <trkpt lat="37.071685668495" lon="-3.383120834361">
        <ele>2720.4</ele>
        <time>2019-01-07T14:31:44Z</time>
      </trkpt>
      <trkpt lat="37.071711987661" lon="-3.383229715242">
        <ele>2717.2</ele>
        <time>2019-01-07T14:31:45Z</time>
      </trkpt>
      <trkpt lat="37.071722045941" lon="-3.383379248338">
        <ele>2714.2</ele>
        <time>2019-01-07T14:31:46Z</time>
      </trkpt>
      <trkpt lat="37.071745096166" lon="-3.383543114483">
        <ele>2711.4</ele>
        <time>2019-01-07T14:31:47Z</time>
      </trkpt>
      <trkpt lat="37.071807206045" lon="-3.383685439145">
        <ele>2707.8</ele>
        <time>2019-01-07T14:31:48Z</time>
      </trkpt>
      <trkpt lat="37.071893371977" lon="-3.383779232606">
        <ele>2704.2</ele>
        <time>2019-01-07T14:31:49Z</time>
      </trkpt>
      <trkpt lat="37.071977358615" lon="-3.383861626683">
        <ele>2701</ele>
        <time>2019-01-07T14:31:50Z</time>
      </trkpt>
      <trkpt lat="37.07205908214" lon="-3.383915354662">
        <ele>2698.6</ele>
        <time>2019-01-07T14:31:51Z</time>
      </trkpt>
      <trkpt lat="37.072137620543" lon="-3.383938069611">
        <ele>2696.2</ele>
        <time>2019-01-07T14:31:52Z</time>
      </trkpt>
      <trkpt lat="37.072215320756" lon="-3.383927676055">
        <ele>2694.4</ele>
        <time>2019-01-07T14:31:53Z</time>
      </trkpt>
      <trkpt lat="37.072284639069" lon="-3.383921221992">
        <ele>2692.4</ele>
        <time>2019-01-07T14:31:54Z</time>
      </trkpt>
      <trkpt lat="37.07232730294" lon="-3.383942428199">
        <ele>2691.6</ele>
        <time>2019-01-07T14:31:55Z</time>
      </trkpt>
      <trkpt lat="37.072343563826" lon="-3.383989618296">
        <ele>2690.6</ele>
        <time>2019-01-07T14:31:56Z</time>
      </trkpt>
      <trkpt lat="37.072362004006" lon="-3.384049465062">
        <ele>2689.6</ele>
        <time>2019-01-07T14:31:57Z</time>
      </trkpt>
      <trkpt lat="37.072392011208" lon="-3.384122890506">
        <ele>2688.6</ele>
        <time>2019-01-07T14:31:58Z</time>
      </trkpt>
      <trkpt lat="37.072409697017" lon="-3.384194974846">
        <ele>2687.6</ele>
        <time>2019-01-07T14:31:59Z</time>
      </trkpt>
      <trkpt lat="37.072403829687" lon="-3.384283403891">
        <ele>2686.4</ele>
        <time>2019-01-07T14:32:00Z</time>
      </trkpt>
      <trkpt lat="37.07239435814" lon="-3.384376862076">
        <ele>2685.4</ele>
        <time>2019-01-07T14:32:01Z</time>
      </trkpt>
      <trkpt lat="37.072419671478" lon="-3.384460429619">
        <ele>2684</ele>
        <time>2019-01-07T14:32:02Z</time>
      </trkpt>
      <trkpt lat="37.072458395856" lon="-3.384544751533">
        <ele>2682.2</ele>
        <time>2019-01-07T14:32:03Z</time>
      </trkpt>
      <trkpt lat="37.07248655904" lon="-3.384636449519">
        <ele>2680.6</ele>
        <time>2019-01-07T14:32:04Z</time>
      </trkpt>
      <trkpt lat="37.072507681428" lon="-3.384737451414">
        <ele>2679</ele>
        <time>2019-01-07T14:32:05Z</time>
      </trkpt>
      <trkpt lat="37.072529809644" lon="-3.384842141345">
        <ele>2677.4</ele>
        <time>2019-01-07T14:32:06Z</time>
      </trkpt>
      <trkpt lat="37.072544897064" lon="-3.384956135185">
        <ele>2675.6</ele>
        <time>2019-01-07T14:32:07Z</time>
      </trkpt>
      <trkpt lat="37.072564929805" lon="-3.385064932247">
        <ele>2673.6</ele>
        <time>2019-01-07T14:32:08Z</time>
      </trkpt>
      <trkpt lat="37.072581525967" lon="-3.385160988821">
        <ele>2671.8</ele>
        <time>2019-01-07T14:32:09Z</time>
      </trkpt>
      <trkpt lat="37.072580268682" lon="-3.385247490029">
        <ele>2669.6</ele>
        <time>2019-01-07T14:32:10Z</time>
      </trkpt>
      <trkpt lat="37.072571132411" lon="-3.385335667617">
        <ele>2667.8</ele>
        <time>2019-01-07T14:32:11Z</time>
      </trkpt>
      <trkpt lat="37.0725653489" lon="-3.38538570756">
        <ele>2666.4</ele>
        <time>2019-01-07T14:32:12Z</time>
      </trkpt>
      <trkpt lat="37.072571132411" lon="-3.385383863542">
        <ele>2665.4</ele>
        <time>2019-01-07T14:32:13Z</time>
      </trkpt>
      <trkpt lat="37.072579011397" lon="-3.385373218529">
        <ele>2664.8</ele>
        <time>2019-01-07T14:32:14Z</time>
      </trkpt>
      <trkpt lat="37.072578508483" lon="-3.385361819145">
        <ele>2664.2</ele>
        <time>2019-01-07T14:32:16Z</time>
      </trkpt>
      <trkpt lat="37.072578592302" lon="-3.385359807489">
        <ele>2664.2</ele>
        <time>2019-01-07T14:32:19Z</time>
      </trkpt>
      <trkpt lat="37.072588063849" lon="-3.385408925423">
        <ele>2663</ele>
        <time>2019-01-07T14:32:27Z</time>
      </trkpt>
      <trkpt lat="37.072584040537" lon="-3.385457037529">
        <ele>2662.8</ele>
        <time>2019-01-07T14:32:28Z</time>
      </trkpt>
      <trkpt lat="37.072610443522" lon="-3.385579832364">
        <ele>2661.4</ele>
        <time>2019-01-07T14:32:30Z</time>
      </trkpt>
      <trkpt lat="37.072614383015" lon="-3.385659125138">
        <ele>2660</ele>
        <time>2019-01-07T14:32:31Z</time>
      </trkpt>
      <trkpt lat="37.072634415756" lon="-3.385738669369">
        <ele>2658.2</ele>
        <time>2019-01-07T14:32:32Z</time>
      </trkpt>
      <trkpt lat="37.072680264749" lon="-3.385793403176">
        <ele>2656.2</ele>
        <time>2019-01-07T14:32:33Z</time>
      </trkpt>
      <trkpt lat="37.07272544319" lon="-3.385842185834">
        <ele>2654.4</ele>
        <time>2019-01-07T14:32:34Z</time>
      </trkpt>
      <trkpt lat="37.072766598319" lon="-3.385890968492">
        <ele>2652.6</ele>
        <time>2019-01-07T14:32:35Z</time>
      </trkpt>
      <trkpt lat="37.072818817556" lon="-3.385920053685">
        <ele>2651</ele>
        <time>2019-01-07T14:32:36Z</time>
      </trkpt>
      <trkpt lat="37.072869695689" lon="-3.385958778063">
        <ele>2649.6</ele>
        <time>2019-01-07T14:32:37Z</time>
      </trkpt>
      <trkpt lat="37.072926776428" lon="-3.385987276523">
        <ele>2648.2</ele>
        <time>2019-01-07T14:32:38Z</time>
      </trkpt>
      <trkpt lat="37.072989556859" lon="-3.386004124142">
        <ele>2646.2</ele>
        <time>2019-01-07T14:32:39Z</time>
      </trkpt>
      <trkpt lat="37.073051750557" lon="-3.386030359489">
        <ele>2644.2</ele>
        <time>2019-01-07T14:32:40Z</time>
      </trkpt>
      <trkpt lat="37.073101455224" lon="-3.386092804644">
        <ele>2642.4</ele>
        <time>2019-01-07T14:32:41Z</time>
      </trkpt>
      <trkpt lat="37.073159541791" lon="-3.386171426866">
        <ele>2640.6</ele>
        <time>2019-01-07T14:32:42Z</time>
      </trkpt>
      <trkpt lat="37.073222908955" lon="-3.386234458754">
        <ele>2638</ele>
        <time>2019-01-07T14:32:43Z</time>
      </trkpt>
      <trkpt lat="37.073283174816" lon="-3.386301262497">
        <ele>2635.6</ele>
        <time>2019-01-07T14:32:44Z</time>
      </trkpt>
      <trkpt lat="37.073340171736" lon="-3.386396480881">
        <ele>2633</ele>
        <time>2019-01-07T14:32:45Z</time>
      </trkpt>
      <trkpt lat="37.073406724022" lon="-3.386487843591">
        <ele>2630.2</ele>
        <time>2019-01-07T14:32:46Z</time>
      </trkpt>
      <trkpt lat="37.073484340416" lon="-3.386570572944">
        <ele>2627.2</ele>
        <time>2019-01-07T14:32:47Z</time>
      </trkpt>
      <trkpt lat="37.073580061714" lon="-3.386645674768">
        <ele>2624.2</ele>
        <time>2019-01-07T14:32:48Z</time>
      </trkpt>
      <trkpt lat="37.073676118288" lon="-3.38672262061">
        <ele>2621.6</ele>
        <time>2019-01-07T14:32:49Z</time>
      </trkpt>
      <trkpt lat="37.073777958373" lon="-3.386780623358">
        <ele>2618.8</ele>
        <time>2019-01-07T14:32:50Z</time>
      </trkpt>
      <trkpt lat="37.073889605281" lon="-3.386847175644">
        <ele>2616.4</ele>
        <time>2019-01-07T14:32:51Z</time>
      </trkpt>
      <trkpt lat="37.073999324352" lon="-3.386909620799">
        <ele>2614.6</ele>
        <time>2019-01-07T14:32:52Z</time>
      </trkpt>
      <trkpt lat="37.074087753397" lon="-3.386993439799">
        <ele>2612.8</ele>
        <time>2019-01-07T14:32:53Z</time>
      </trkpt>
      <trkpt lat="37.074167381447" lon="-3.387080443921">
        <ele>2611.2</ele>
        <time>2019-01-07T14:32:54Z</time>
      </trkpt>
      <trkpt lat="37.074256481044" lon="-3.387134507176">
        <ele>2609</ele>
        <time>2019-01-07T14:32:55Z</time>
      </trkpt>
      <trkpt lat="37.07435656093" lon="-3.387157725039">
        <ele>2607</ele>
        <time>2019-01-07T14:32:56Z</time>
      </trkpt>
      <trkpt lat="37.074449097106" lon="-3.387178093056">
        <ele>2605.2</ele>
        <time>2019-01-07T14:32:57Z</time>
      </trkpt>
      <trkpt lat="37.074520259437" lon="-3.387237520727">
        <ele>2603.4</ele>
        <time>2019-01-07T14:32:58Z</time>
      </trkpt>
      <trkpt lat="37.07456694662" lon="-3.387335421319">
        <ele>2602.2</ele>
        <time>2019-01-07T14:32:59Z</time>
      </trkpt>
      <trkpt lat="37.074611789785" lon="-3.387432818997">
        <ele>2601</ele>
        <time>2019-01-07T14:33:00Z</time>
      </trkpt>
      <trkpt lat="37.074674989311" lon="-3.387488139537">
        <ele>2600.2</ele>
        <time>2019-01-07T14:33:01Z</time>
      </trkpt>
      <trkpt lat="37.074733662611" lon="-3.387511189762">
        <ele>2598.8</ele>
        <time>2019-01-07T14:33:02Z</time>
      </trkpt>
      <trkpt lat="37.074776410301" lon="-3.387548405398">
        <ele>2597.2</ele>
        <time>2019-01-07T14:33:03Z</time>
      </trkpt>
      <trkpt lat="37.074815721412" lon="-3.38760104373">
        <ele>2595.6</ele>
        <time>2019-01-07T14:33:04Z</time>
      </trkpt>
      <trkpt lat="37.074865006984" lon="-3.387639097556">
        <ele>2594</ele>
        <time>2019-01-07T14:33:05Z</time>
      </trkpt>
      <trkpt lat="37.074924267017" lon="-3.387679246857">
        <ele>2592.8</ele>
        <time>2019-01-07T14:33:06Z</time>
      </trkpt>
      <trkpt lat="37.074984197602" lon="-3.387690394784">
        <ele>2591.2</ele>
        <time>2019-01-07T14:33:07Z</time>
      </trkpt>
      <trkpt lat="37.075055946666" lon="-3.387687209662">
        <ele>2589.2</ele>
        <time>2019-01-07T14:33:08Z</time>
      </trkpt>
      <trkpt lat="37.075130042662" lon="-3.387692825535">
        <ele>2586.8</ele>
        <time>2019-01-07T14:33:09Z</time>
      </trkpt>
      <trkpt lat="37.075196008215" lon="-3.387730460266">
        <ele>2584.6</ele>
        <time>2019-01-07T14:33:10Z</time>
      </trkpt>
      <trkpt lat="37.075273456971" lon="-3.387760383649">
        <ele>2582.6</ele>
        <time>2019-01-07T14:33:11Z</time>
      </trkpt>
      <trkpt lat="37.075347720605" lon="-3.38777287268">
        <ele>2580.4</ele>
        <time>2019-01-07T14:33:12Z</time>
      </trkpt>
      <trkpt lat="37.075422235696" lon="-3.387799527122">
        <ele>2578</ele>
        <time>2019-01-07T14:33:13Z</time>
      </trkpt>
      <trkpt lat="37.075477640055" lon="-3.387853841834">
        <ele>2575.4</ele>
        <time>2019-01-07T14:33:14Z</time>
      </trkpt>
      <trkpt lat="37.075595321931" lon="-3.387947300019">
        <ele>2573.2</ele>
        <time>2019-01-07T14:33:15Z</time>
      </trkpt>
      <trkpt lat="37.075653576136" lon="-3.387989628614">
        <ele>2570.6</ele>
        <time>2019-01-07T14:33:16Z</time>
      </trkpt>
      <trkpt lat="37.075705543916" lon="-3.388048804828">
        <ele>2568.4</ele>
        <time>2019-01-07T14:33:17Z</time>
      </trkpt>
      <trkpt lat="37.075705543916" lon="-3.388048804828">
        <ele>2566.2</ele>
        <time>2019-01-07T14:33:18Z</time>
      </trkpt>
      <trkpt lat="37.075729348512" lon="-3.388129019611">
        <ele>2564.4</ele>
        <time>2019-01-07T14:33:19Z</time>
      </trkpt>
      <trkpt lat="37.07575633823" lon="-3.388217867751">
        <ele>2562.6</ele>
        <time>2019-01-07T14:33:20Z</time>
      </trkpt>
      <trkpt lat="37.075791374572" lon="-3.388305374787">
        <ele>2561.2</ele>
        <time>2019-01-07T14:33:21Z</time>
      </trkpt>
      <trkpt lat="37.075829344579" lon="-3.388413082202">
        <ele>2559.6</ele>
        <time>2019-01-07T14:33:22Z</time>
      </trkpt>
      <trkpt lat="37.075880725626" lon="-3.388510312242">
        <ele>2558</ele>
        <time>2019-01-07T14:33:23Z</time>
      </trkpt>
      <trkpt lat="37.075949457206" lon="-3.388611481775">
        <ele>2555.8</ele>
        <time>2019-01-07T14:33:24Z</time>
      </trkpt>
      <trkpt lat="37.076012992008" lon="-3.388712567489">
        <ele>2553.6</ele>
        <time>2019-01-07T14:33:25Z</time>
      </trkpt>
      <trkpt lat="37.076050207644" lon="-3.388829411175">
        <ele>2551.4</ele>
        <time>2019-01-07T14:33:26Z</time>
      </trkpt>
      <trkpt lat="37.07607485043" lon="-3.388953798571">
        <ele>2549.2</ele>
        <time>2019-01-07T14:33:27Z</time>
      </trkpt>
      <trkpt lat="37.076117179025" lon="-3.389063433823">
        <ele>2546.6</ele>
        <time>2019-01-07T14:33:28Z</time>
      </trkpt>
      <trkpt lat="37.076171409918" lon="-3.389144486796">
        <ele>2544.2</ele>
        <time>2019-01-07T14:33:29Z</time>
      </trkpt>
      <trkpt lat="37.07621818092" lon="-3.389215649127">
        <ele>2542</ele>
        <time>2019-01-07T14:33:30Z</time>
      </trkpt>
      <trkpt lat="37.076246260285" lon="-3.389289326028">
        <ele>2540.4</ele>
        <time>2019-01-07T14:33:31Z</time>
      </trkpt>
      <trkpt lat="37.076276602763" lon="-3.389342048179">
        <ele>2539</ele>
        <time>2019-01-07T14:33:32Z</time>
      </trkpt>
      <trkpt lat="37.076319266634" lon="-3.38936711006">
        <ele>2537.8</ele>
        <time>2019-01-07T14:33:33Z</time>
      </trkpt>
      <trkpt lat="37.076363439247" lon="-3.389369959906">
        <ele>2536.8</ele>
        <time>2019-01-07T14:33:34Z</time>
      </trkpt>
      <trkpt lat="37.076401325435" lon="-3.389372642114">
        <ele>2535.8</ele>
        <time>2019-01-07T14:33:35Z</time>
      </trkpt>
      <trkpt lat="37.076433428112" lon="-3.389381275471">
        <ele>2535.2</ele>
        <time>2019-01-07T14:33:36Z</time>
      </trkpt>
      <trkpt lat="37.076466117522" lon="-3.389382616575">
        <ele>2534.6</ele>
        <time>2019-01-07T14:33:37Z</time>
      </trkpt>
      <trkpt lat="37.076484557702" lon="-3.389369121716">
        <ele>2533.8</ele>
        <time>2019-01-07T14:33:38Z</time>
      </trkpt>
      <trkpt lat="37.076494280706" lon="-3.389361661825">
        <ele>2533.2</ele>
        <time>2019-01-07T14:33:39Z</time>
      </trkpt>
      <trkpt lat="37.07650065095" lon="-3.389358141427">
        <ele>2532.6</ele>
        <time>2019-01-07T14:33:40Z</time>
      </trkpt>
      <trkpt lat="37.076531161066" lon="-3.389347161138">
        <ele>2531.6</ele>
        <time>2019-01-07T14:33:46Z</time>
      </trkpt>
      <trkpt lat="37.076531747799" lon="-3.389344562749">
        <ele>2531.6</ele>
        <time>2019-01-07T14:33:48Z</time>
      </trkpt>
      <trkpt lat="37.06416333234" lon="-3.372324611885">
        <ele>3031.8</ele>
        <time>2019-01-07T14:43:54Z</time>
      </trkpt>
      <trkpt lat="37.064260730018" lon="-3.372400970994">
        <ele>3030.8</ele>
        <time>2019-01-07T14:43:58Z</time>
      </trkpt>
      <trkpt lat="37.064391822934" lon="-3.372533069738">
        <ele>3030</ele>
        <time>2019-01-07T14:44:01Z</time>
      </trkpt>
      <trkpt lat="37.064419650842" lon="-3.372598783834">
        <ele>3029.2</ele>
        <time>2019-01-07T14:44:02Z</time>
      </trkpt>
      <trkpt lat="37.064447311112" lon="-3.372666761043">
        <ele>3028.4</ele>
        <time>2019-01-07T14:44:03Z</time>
      </trkpt>
      <trkpt lat="37.064522832031" lon="-3.3727592134">
        <ele>3027.4</ele>
        <time>2019-01-07T14:44:04Z</time>
      </trkpt>
      <trkpt lat="37.064522832031" lon="-3.3727592134">
        <ele>3026.2</ele>
        <time>2019-01-07T14:44:05Z</time>
      </trkpt>
      <trkpt lat="37.064566669368" lon="-3.372789052964">
        <ele>3025</ele>
        <time>2019-01-07T14:44:06Z</time>
      </trkpt>
      <trkpt lat="37.064723997631" lon="-3.372820568908">
        <ele>3023.6</ele>
        <time>2019-01-07T14:44:08Z</time>
      </trkpt>
      <trkpt lat="37.064814522151" lon="-3.372820485089">
        <ele>3022.4</ele>
        <time>2019-01-07T14:44:11Z</time>
      </trkpt>
      <trkpt lat="37.064945531248" lon="-3.372862729865">
        <ele>3021.2</ele>
        <time>2019-01-07T14:44:14Z</time>
      </trkpt>
      <trkpt lat="37.065116438189" lon="-3.37291427855">
        <ele>3020</ele>
        <time>2019-01-07T14:44:17Z</time>
      </trkpt>
      <trkpt lat="37.065310898269" lon="-3.372964402312">
        <ele>3018.8</ele>
        <time>2019-01-07T14:44:20Z</time>
      </trkpt>
      <trkpt lat="37.065522960339" lon="-3.373021147775">
        <ele>3017.4</ele>
        <time>2019-01-07T14:44:23Z</time>
      </trkpt>
      <trkpt lat="37.065668218666" lon="-3.37304838895">
        <ele>3016.2</ele>
        <time>2019-01-07T14:44:25Z</time>
      </trkpt>
      <trkpt lat="37.065817332667" lon="-3.373065823302">
        <ele>3015</ele>
        <time>2019-01-07T14:44:27Z</time>
      </trkpt>
      <trkpt lat="37.066044565976" lon="-3.373073031736">
        <ele>3013.6</ele>
        <time>2019-01-07T14:44:30Z</time>
      </trkpt>
      <trkpt lat="37.066276241692" lon="-3.373071774451">
        <ele>3012.2</ele>
        <time>2019-01-07T14:44:33Z</time>
      </trkpt>
      <trkpt lat="37.066351427335" lon="-3.373075797763">
        <ele>3010.8</ele>
        <time>2019-01-07T14:44:35Z</time>
      </trkpt>
      <trkpt lat="37.066421835295" lon="-3.37307102008">
        <ele>3010.2</ele>
        <time>2019-01-07T14:44:36Z</time>
      </trkpt>
      <trkpt lat="37.066520154982" lon="-3.373052998995">
        <ele>3009.6</ele>
        <time>2019-01-07T14:44:37Z</time>
      </trkpt>
      <trkpt lat="37.066541864103" lon="-3.373065739483">
        <ele>3009</ele>
        <time>2019-01-07T14:44:38Z</time>
      </trkpt>
      <trkpt lat="37.066547060881" lon="-3.373095662866">
        <ele>3008.4</ele>
        <time>2019-01-07T14:44:39Z</time>
      </trkpt>
      <trkpt lat="37.066560639559" lon="-3.373112342847">
        <ele>3007.4</ele>
        <time>2019-01-07T14:44:41Z</time>
      </trkpt>
      <trkpt lat="37.066568602364" lon="-3.373105972603">
        <ele>3006</ele>
        <time>2019-01-07T14:44:44Z</time>
      </trkpt>
      <trkpt lat="37.066571536029" lon="-3.373105302051">
        <ele>3005.8</ele>
        <time>2019-01-07T14:44:45Z</time>
      </trkpt>
      <trkpt lat="37.066552844392" lon="-3.373192138535">
        <ele>3005</ele>
        <time>2019-01-07T14:44:49Z</time>
      </trkpt>
      <trkpt lat="37.066587461639" lon="-3.373307138203">
        <ele>3004.4</ele>
        <time>2019-01-07T14:44:50Z</time>
      </trkpt>
      <trkpt lat="37.066616546832" lon="-3.373383078217">
        <ele>3003.4</ele>
        <time>2019-01-07T14:44:51Z</time>
      </trkpt>
      <trkpt lat="37.066659881255" lon="-3.373469495606">
        <ele>3002.2</ele>
        <time>2019-01-07T14:44:52Z</time>
      </trkpt>
      <trkpt lat="37.066710507931" lon="-3.373568318207">
        <ele>3000.4</ele>
        <time>2019-01-07T14:44:53Z</time>
      </trkpt>
      <trkpt lat="37.066760464055" lon="-3.373672337586">
        <ele>2998.6</ele>
        <time>2019-01-07T14:44:54Z</time>
      </trkpt>
      <trkpt lat="37.066760464055" lon="-3.373672337586">
        <ele>2995.8</ele>
        <time>2019-01-07T14:44:55Z</time>
      </trkpt>
      <trkpt lat="37.066802457374" lon="-3.373792031118">
        <ele>2992.8</ele>
        <time>2019-01-07T14:44:56Z</time>
      </trkpt>
      <trkpt lat="37.066851994403" lon="-3.373902253103">
        <ele>2989.8</ele>
        <time>2019-01-07T14:44:57Z</time>
      </trkpt>
      <trkpt lat="37.066893652446" lon="-3.374004177007">
        <ele>2986.8</ele>
        <time>2019-01-07T14:44:58Z</time>
      </trkpt>
      <trkpt lat="37.066915026291" lon="-3.374074584967">
        <ele>2984.4</ele>
        <time>2019-01-07T14:44:59Z</time>
      </trkpt>
      <trkpt lat="37.066936316317" lon="-3.37411289025">
        <ele>2982.6</ele>
        <time>2019-01-07T14:45:00Z</time>
      </trkpt>
      <trkpt lat="37.06693857943" lon="-3.374119847227">
        <ele>2981.6</ele>
        <time>2019-01-07T14:45:01Z</time>
      </trkpt>
      <trkpt lat="37.066932293005" lon="-3.374123535263">
        <ele>2981.2</ele>
        <time>2019-01-07T14:45:02Z</time>
      </trkpt>
      <trkpt lat="37.066929946073" lon="-3.374140969615">
        <ele>2980.8</ele>
        <time>2019-01-07T14:45:03Z</time>
      </trkpt>
      <trkpt lat="37.066931957729" lon="-3.374292095272">
        <ele>2980</ele>
        <time>2019-01-07T14:45:06Z</time>
      </trkpt>
      <trkpt lat="37.067005131716" lon="-3.374432156821">
        <ele>2977.2</ele>
        <time>2019-01-07T14:45:08Z</time>
      </trkpt>
      <trkpt lat="37.06707688078" lon="-3.374479849832">
        <ele>2975.2</ele>
        <time>2019-01-07T14:45:09Z</time>
      </trkpt>
      <trkpt lat="37.067157011744" lon="-3.374522932798">
        <ele>2973</ele>
        <time>2019-01-07T14:45:10Z</time>
      </trkpt>
      <trkpt lat="37.06724368059" lon="-3.374571715456">
        <ele>2971</ele>
        <time>2019-01-07T14:45:11Z</time>
      </trkpt>
      <trkpt lat="37.067330768531" lon="-3.374621587761">
        <ele>2969.4</ele>
        <time>2019-01-07T14:45:12Z</time>
      </trkpt>
      <trkpt lat="37.067414755169" lon="-3.374672884989">
        <ele>2968</ele>
        <time>2019-01-07T14:45:13Z</time>
      </trkpt>
      <trkpt lat="37.067498155074" lon="-3.374726361511">
        <ele>2967</ele>
        <time>2019-01-07T14:45:14Z</time>
      </trkpt>
      <trkpt lat="37.067581135884" lon="-3.374777323463">
        <ele>2965.8</ele>
        <time>2019-01-07T14:45:15Z</time>
      </trkpt>
      <trkpt lat="37.067659925744" lon="-3.374828620691">
        <ele>2964.8</ele>
        <time>2019-01-07T14:45:16Z</time>
      </trkpt>
      <trkpt lat="37.06782035531" lon="-3.374927191835">
        <ele>2963.2</ele>
        <time>2019-01-07T14:45:18Z</time>
      </trkpt>
      <trkpt lat="37.067892607288" lon="-3.374983182927">
        <ele>2962.4</ele>
        <time>2019-01-07T14:45:19Z</time>
      </trkpt>
      <trkpt lat="37.067956728823" lon="-3.37503489925">
        <ele>2961.8</ele>
        <time>2019-01-07T14:45:20Z</time>
      </trkpt>
      <trkpt lat="37.068069633016" lon="-3.375173703514">
        <ele>2960.4</ele>
        <time>2019-01-07T14:45:22Z</time>
      </trkpt>
      <trkpt lat="37.068161414821" lon="-3.375324410076">
        <ele>2958.6</ele>
        <time>2019-01-07T14:45:24Z</time>
      </trkpt>
      <trkpt lat="37.068242300156" lon="-3.375480145778">
        <ele>2956.8</ele>
        <time>2019-01-07T14:45:26Z</time>
      </trkpt>
      <trkpt lat="37.068274821928" lon="-3.375564886787">
        <ele>2955.8</ele>
        <time>2019-01-07T14:45:27Z</time>
      </trkpt>
      <trkpt lat="37.068312037564" lon="-3.37564593976">
        <ele>2955</ele>
        <time>2019-01-07T14:45:28Z</time>
      </trkpt>
      <trkpt lat="37.068360904041" lon="-3.375716263901">
        <ele>2954.2</ele>
        <time>2019-01-07T14:45:29Z</time>
      </trkpt>
      <trkpt lat="37.068422594825" lon="-3.375779714884">
        <ele>2953.6</ele>
        <time>2019-01-07T14:45:30Z</time>
      </trkpt>
      <trkpt lat="37.068560812356" lon="-3.375875939096">
        <ele>2952.6</ele>
        <time>2019-01-07T14:45:32Z</time>
      </trkpt>
      <trkpt lat="37.068706657416" lon="-3.37597702481">
        <ele>2951.4</ele>
        <time>2019-01-07T14:45:34Z</time>
      </trkpt>
      <trkpt lat="37.068845126404" lon="-3.376087833528">
        <ele>2950.2</ele>
        <time>2019-01-07T14:45:36Z</time>
      </trkpt>
      <trkpt lat="37.068910421405" lon="-3.376141226231">
        <ele>2949.2</ele>
        <time>2019-01-07T14:45:37Z</time>
      </trkpt>
      <trkpt lat="37.068975213492" lon="-3.376191182355">
        <ele>2948.4</ele>
        <time>2019-01-07T14:45:38Z</time>
      </trkpt>
      <trkpt lat="37.069042184873" lon="-3.376215406046">
        <ele>2947.6</ele>
        <time>2019-01-07T14:45:39Z</time>
      </trkpt>
      <trkpt lat="37.069104378571" lon="-3.376237953357">
        <ele>2947</ele>
        <time>2019-01-07T14:45:40Z</time>
      </trkpt>
      <trkpt lat="37.069159615292" lon="-3.376238120995">
        <ele>2946.4</ele>
        <time>2019-01-07T14:45:41Z</time>
      </trkpt>
      <trkpt lat="37.069205631923" lon="-3.376220351367">
        <ele>2945.8</ele>
        <time>2019-01-07T14:45:42Z</time>
      </trkpt>
      <trkpt lat="37.069239578618" lon="-3.376208868164">
        <ele>2945.2</ele>
        <time>2019-01-07T14:45:43Z</time>
      </trkpt>
      <trkpt lat="37.06927042401" lon="-3.376219429358">
        <ele>2944.8</ele>
        <time>2019-01-07T14:45:44Z</time>
      </trkpt>
      <trkpt lat="37.069336221925" lon="-3.376268547292">
        <ele>2943.8</ele>
        <time>2019-01-07T14:45:46Z</time>
      </trkpt>
      <trkpt lat="37.069385507497" lon="-3.376279779038">
        <ele>2943.2</ele>
        <time>2019-01-07T14:45:47Z</time>
      </trkpt>
      <trkpt lat="37.069438397286" lon="-3.376312468448">
        <ele>2942.6</ele>
        <time>2019-01-07T14:45:48Z</time>
      </trkpt>
      <trkpt lat="37.069501261536" lon="-3.3763634304">
        <ele>2942</ele>
        <time>2019-01-07T14:45:49Z</time>
      </trkpt>
      <trkpt lat="37.069571250401" lon="-3.376409866126">
        <ele>2940.8</ele>
        <time>2019-01-07T14:45:50Z</time>
      </trkpt>
      <trkpt lat="37.06964090399" lon="-3.376463426467">
        <ele>2939.2</ele>
        <time>2019-01-07T14:45:51Z</time>
      </trkpt>
      <trkpt lat="37.069715586719" lon="-3.376518747007">
        <ele>2937.4</ele>
        <time>2019-01-07T14:45:52Z</time>
      </trkpt>
      <trkpt lat="37.069788090154" lon="-3.376580689248">
        <ele>2935.4</ele>
        <time>2019-01-07T14:45:53Z</time>
      </trkpt>
      <trkpt lat="37.069864281625" lon="-3.376644559326">
        <ele>2933.4</ele>
        <time>2019-01-07T14:45:54Z</time>
      </trkpt>
      <trkpt lat="37.069955644335" lon="-3.376696694744">
        <ele>2931.4</ele>
        <time>2019-01-07T14:45:55Z</time>
      </trkpt>
      <trkpt lat="37.070044995389" lon="-3.376749081619">
        <ele>2929</ele>
        <time>2019-01-07T14:45:56Z</time>
      </trkpt>
      <trkpt lat="37.07013040695" lon="-3.376810856222">
        <ele>2926.6</ele>
        <time>2019-01-07T14:45:57Z</time>
      </trkpt>
      <trkpt lat="37.070222943126" lon="-3.376858046319">
        <ele>2924.2</ele>
        <time>2019-01-07T14:45:58Z</time>
      </trkpt>
      <trkpt lat="37.070316233673" lon="-3.376891825376">
        <ele>2922.4</ele>
        <time>2019-01-07T14:45:59Z</time>
      </trkpt>
      <trkpt lat="37.070405752365" lon="-3.376947397373">
        <ele>2920.4</ele>
        <time>2019-01-07T14:46:00Z</time>
      </trkpt>
      <trkpt lat="37.070495438695" lon="-3.377002550275">
        <ele>2918.4</ele>
        <time>2019-01-07T14:46:01Z</time>
      </trkpt>
      <trkpt lat="37.070495438695" lon="-3.377002550275">
        <ele>2916.6</ele>
        <time>2019-01-07T14:46:02Z</time>
      </trkpt>
      <trkpt lat="37.070587304319" lon="-3.377040771739">
        <ele>2915.2</ele>
        <time>2019-01-07T14:46:03Z</time>
      </trkpt>
      <trkpt lat="37.07073641832" lon="-3.377142611824">
        <ele>2913.8</ele>
        <time>2019-01-07T14:46:04Z</time>
      </trkpt>
      <trkpt lat="37.070815878732" lon="-3.377182006754">
        <ele>2912.2</ele>
        <time>2019-01-07T14:46:05Z</time>
      </trkpt>
      <trkpt lat="37.070884945588" lon="-3.377227017557">
        <ele>2910.8</ele>
        <time>2019-01-07T14:46:06Z</time>
      </trkpt>
      <trkpt lat="37.070950240589" lon="-3.377286361409">
        <ele>2909.2</ele>
        <time>2019-01-07T14:46:07Z</time>
      </trkpt>
      <trkpt lat="37.071033053761" lon="-3.377321397751">
        <ele>2907.8</ele>
        <time>2019-01-07T14:46:08Z</time>
      </trkpt>
      <trkpt lat="37.071109496689" lon="-3.377352997514">
        <ele>2906.6</ele>
        <time>2019-01-07T14:46:09Z</time>
      </trkpt>
      <trkpt lat="37.071177892993" lon="-3.377417454325">
        <ele>2904.8</ele>
        <time>2019-01-07T14:46:10Z</time>
      </trkpt>
      <trkpt lat="37.071252072808" lon="-3.377471936675">
        <ele>2903</ele>
        <time>2019-01-07T14:46:11Z</time>
      </trkpt>
      <trkpt lat="37.071317786904" lon="-3.377519545867">
        <ele>2901</ele>
        <time>2019-01-07T14:46:12Z</time>
      </trkpt>
      <trkpt lat="37.071365647553" lon="-3.377572435656">
        <ele>2899.2</ele>
        <time>2019-01-07T14:46:13Z</time>
      </trkpt>
      <trkpt lat="37.071380651154" lon="-3.377638736485">
        <ele>2897.2</ele>
        <time>2019-01-07T14:46:14Z</time>
      </trkpt>
      <trkpt lat="37.071385009742" lon="-3.377721717295">
        <ele>2895.4</ele>
        <time>2019-01-07T14:46:15Z</time>
      </trkpt>
      <trkpt lat="37.071406802682" lon="-3.377791454703">
        <ele>2894.2</ele>
        <time>2019-01-07T14:46:16Z</time>
      </trkpt>
      <trkpt lat="37.071407724691" lon="-3.377957332504">
        <ele>2892</ele>
        <time>2019-01-07T14:46:18Z</time>
      </trkpt>
      <trkpt lat="37.071418285885" lon="-3.378039307486">
        <ele>2890.8</ele>
        <time>2019-01-07T14:46:19Z</time>
      </trkpt>
      <trkpt lat="37.0714421743" lon="-3.378119857545">
        <ele>2889.4</ele>
        <time>2019-01-07T14:46:20Z</time>
      </trkpt>
      <trkpt lat="37.071439408273" lon="-3.378197054844">
        <ele>2888</ele>
        <time>2019-01-07T14:46:21Z</time>
      </trkpt>
      <trkpt lat="37.071424153215" lon="-3.378284729518">
        <ele>2886.4</ele>
        <time>2019-01-07T14:46:22Z</time>
      </trkpt>
      <trkpt lat="37.071447119621" lon="-3.378354047831">
        <ele>2884.8</ele>
        <time>2019-01-07T14:46:23Z</time>
      </trkpt>
      <trkpt lat="37.071486263094" lon="-3.378406686163">
        <ele>2883</ele>
        <time>2019-01-07T14:46:24Z</time>
      </trkpt>
      <trkpt lat="37.071505206188" lon="-3.378454043898">
        <ele>2881</ele>
        <time>2019-01-07T14:46:25Z</time>
      </trkpt>
      <trkpt lat="37.071497411021" lon="-3.378491762448">
        <ele>2879</ele>
        <time>2019-01-07T14:46:26Z</time>
      </trkpt>
      <trkpt lat="37.071481150135" lon="-3.378514058302">
        <ele>2877.4</ele>
        <time>2019-01-07T14:46:27Z</time>
      </trkpt>
      <trkpt lat="37.071481150135" lon="-3.37852260784">
        <ele>2876</ele>
        <time>2019-01-07T14:46:28Z</time>
      </trkpt>
      <trkpt lat="37.071495650822" lon="-3.37852428422">
        <ele>2874.8</ele>
        <time>2019-01-07T14:46:29Z</time>
      </trkpt>
      <trkpt lat="37.071527334404" lon="-3.378561751313">
        <ele>2873.4</ele>
        <time>2019-01-07T14:46:31Z</time>
      </trkpt>
      <trkpt lat="37.071508558948" lon="-3.378667027977">
        <ele>2872.4</ele>
        <time>2019-01-07T14:46:33Z</time>
      </trkpt>
      <trkpt lat="37.071526915309" lon="-3.378730311322">
        <ele>2871.4</ele>
        <time>2019-01-07T14:46:34Z</time>
      </trkpt>
      <trkpt lat="37.071562957479" lon="-3.378798623807">
        <ele>2870</ele>
        <time>2019-01-07T14:46:35Z</time>
      </trkpt>
      <trkpt lat="37.071573602492" lon="-3.37888051497">
        <ele>2868.2</ele>
        <time>2019-01-07T14:46:36Z</time>
      </trkpt>
      <trkpt lat="37.071574859777" lon="-3.378978834657">
        <ele>2866</ele>
        <time>2019-01-07T14:46:37Z</time>
      </trkpt>
      <trkpt lat="37.071602100952" lon="-3.379063994761">
        <ele>2863.8</ele>
        <time>2019-01-07T14:46:38Z</time>
      </trkpt>
      <trkpt lat="37.071613332698" lon="-3.379148651951">
        <ele>2861.2</ele>
        <time>2019-01-07T14:46:39Z</time>
      </trkpt>
      <trkpt lat="37.07158382841" lon="-3.379231129847">
        <ele>2858.4</ele>
        <time>2019-01-07T14:46:40Z</time>
      </trkpt>
      <trkpt lat="37.071568657171" lon="-3.379325677679">
        <ele>2855.6</ele>
        <time>2019-01-07T14:46:41Z</time>
      </trkpt>
      <trkpt lat="37.071591539758" lon="-3.379432295447">
        <ele>2852.6</ele>
        <time>2019-01-07T14:46:42Z</time>
      </trkpt>
      <trkpt lat="37.071591539758" lon="-3.379525837451">
        <ele>2849.2</ele>
        <time>2019-01-07T14:46:43Z</time>
      </trkpt>
      <trkpt lat="37.071591539758" lon="-3.379525837451">
        <ele>2845.8</ele>
        <time>2019-01-07T14:46:44Z</time>
      </trkpt>
      <trkpt lat="37.071558850348" lon="-3.379618876541">
        <ele>2842.6</ele>
        <time>2019-01-07T14:46:45Z</time>
      </trkpt>
      <trkpt lat="37.071502943075" lon="-3.379789615844">
        <ele>2839.6</ele>
        <time>2019-01-07T14:46:46Z</time>
      </trkpt>
      <trkpt lat="37.071461033575" lon="-3.379861616365">
        <ele>2836.8</ele>
        <time>2019-01-07T14:46:47Z</time>
      </trkpt>
      <trkpt lat="37.071443934499" lon="-3.379944261899">
        <ele>2833.8</ele>
        <time>2019-01-07T14:46:48Z</time>
      </trkpt>
      <trkpt lat="37.071431110192" lon="-3.38002380613">
        <ele>2831.4</ele>
        <time>2019-01-07T14:46:49Z</time>
      </trkpt>
      <trkpt lat="37.071410155442" lon="-3.380099746144">
        <ele>2829.2</ele>
        <time>2019-01-07T14:46:50Z</time>
      </trkpt>
      <trkpt lat="37.071408562881" lon="-3.380168058629">
        <ele>2827.2</ele>
        <time>2019-01-07T14:46:51Z</time>
      </trkpt>
      <trkpt lat="37.071434798228" lon="-3.380230252327">
        <ele>2825</ele>
        <time>2019-01-07T14:46:52Z</time>
      </trkpt>
      <trkpt lat="37.071447706354" lon="-3.380290015274">
        <ele>2823</ele>
        <time>2019-01-07T14:46:53Z</time>
      </trkpt>
      <trkpt lat="37.071443096309" lon="-3.380356399922">
        <ele>2820.8</ele>
        <time>2019-01-07T14:46:54Z</time>
      </trkpt>
      <trkpt lat="37.071460782118" lon="-3.380437788171">
        <ele>2818.6</ele>
        <time>2019-01-07T14:46:55Z</time>
      </trkpt>
      <trkpt lat="37.071460782118" lon="-3.380437788171">
        <ele>2816.6</ele>
        <time>2019-01-07T14:46:56Z</time>
      </trkpt>
      <trkpt lat="37.07147905466" lon="-3.380519008782">
        <ele>2814.2</ele>
        <time>2019-01-07T14:46:57Z</time>
      </trkpt>
      <trkpt lat="37.071488442388" lon="-3.380612299329">
        <ele>2812</ele>
        <time>2019-01-07T14:46:58Z</time>
      </trkpt>
      <trkpt lat="37.071515432106" lon="-3.380709110274">
        <ele>2809.4</ele>
        <time>2019-01-07T14:46:59Z</time>
      </trkpt>
      <trkpt lat="37.071552061009" lon="-3.380804077201">
        <ele>2806.6</ele>
        <time>2019-01-07T14:47:00Z</time>
      </trkpt>
      <trkpt lat="37.07158634298" lon="-3.380899211766">
        <ele>2803.6</ele>
        <time>2019-01-07T14:47:01Z</time>
      </trkpt>
      <trkpt lat="37.071628839213" lon="-3.380977079617">
        <ele>2800.6</ele>
        <time>2019-01-07T14:47:02Z</time>
      </trkpt>
      <trkpt lat="37.071678040966" lon="-3.381023850619">
        <ele>2798</ele>
        <time>2019-01-07T14:47:03Z</time>
      </trkpt>
      <trkpt lat="37.071716513887" lon="-3.381059557513">
        <ele>2795.4</ele>
        <time>2019-01-07T14:47:04Z</time>
      </trkpt>
      <trkpt lat="37.071739983207" lon="-3.381108843085">
        <ele>2793.4</ele>
        <time>2019-01-07T14:47:05Z</time>
      </trkpt>
      <trkpt lat="37.07177409754" lon="-3.381161900512">
        <ele>2791.6</ele>
        <time>2019-01-07T14:47:06Z</time>
      </trkpt>
      <trkpt lat="37.071820700904" lon="-3.381219484165">
        <ele>2789.6</ele>
        <time>2019-01-07T14:47:07Z</time>
      </trkpt>
      <trkpt lat="37.07184953464" lon="-3.381280755854">
        <ele>2787.4</ele>
        <time>2019-01-07T14:47:08Z</time>
      </trkpt>
      <trkpt lat="37.071863029499" lon="-3.381346889045">
        <ele>2785</ele>
        <time>2019-01-07T14:47:09Z</time>
      </trkpt>
      <trkpt lat="37.071888678113" lon="-3.381419811575">
        <ele>2782.6</ele>
        <time>2019-01-07T14:47:10Z</time>
      </trkpt>
      <trkpt lat="37.07192245717" lon="-3.381485441852">
        <ele>2779.6</ele>
        <time>2019-01-07T14:47:11Z</time>
      </trkpt>
      <trkpt lat="37.071950620354" lon="-3.381550904491">
        <ele>2776.8</ele>
        <time>2019-01-07T14:47:12Z</time>
      </trkpt>
      <trkpt lat="37.071993451863" lon="-3.38162642541">
        <ele>2773.6</ele>
        <time>2019-01-07T14:47:13Z</time>
      </trkpt>
      <trkpt lat="37.072040390503" lon="-3.381693564429">
        <ele>2770.4</ele>
        <time>2019-01-07T14:47:14Z</time>
      </trkpt>
      <trkpt lat="37.072056902846" lon="-3.381849300131">
        <ele>2767.2</ele>
        <time>2019-01-07T14:47:15Z</time>
      </trkpt>
      <trkpt lat="37.072098309432" lon="-3.381930939837">
        <ele>2764.2</ele>
        <time>2019-01-07T14:47:16Z</time>
      </trkpt>
      <trkpt lat="37.072139380742" lon="-3.382008053317">
        <ele>2761.6</ele>
        <time>2019-01-07T14:47:17Z</time>
      </trkpt>
      <trkpt lat="37.072139380742" lon="-3.382008053317">
        <ele>2758.6</ele>
        <time>2019-01-07T14:47:18Z</time>
      </trkpt>
      <trkpt lat="37.072149690479" lon="-3.382092542869">
        <ele>2755.4</ele>
        <time>2019-01-07T14:47:19Z</time>
      </trkpt>
      <trkpt lat="37.072157820922" lon="-3.382186420149">
        <ele>2752.4</ele>
        <time>2019-01-07T14:47:20Z</time>
      </trkpt>
      <trkpt lat="37.072190761789" lon="-3.38227602266">
        <ele>2749.4</ele>
        <time>2019-01-07T14:47:21Z</time>
      </trkpt>
      <trkpt lat="37.072211381263" lon="-3.382354561063">
        <ele>2746.2</ele>
        <time>2019-01-07T14:47:22Z</time>
      </trkpt>
      <trkpt lat="37.072229821443" lon="-3.382483642323">
        <ele>2743.4</ele>
        <time>2019-01-07T14:47:23Z</time>
      </trkpt>
      <trkpt lat="37.072229821443" lon="-3.382483642323">
        <ele>2741</ele>
        <time>2019-01-07T14:47:24Z</time>
      </trkpt>
      <trkpt lat="37.072245830872" lon="-3.382552876817">
        <ele>2738.8</ele>
        <time>2019-01-07T14:47:25Z</time>
      </trkpt>
      <trkpt lat="37.072229067072" lon="-3.382690507615">
        <ele>2736.6</ele>
        <time>2019-01-07T14:47:26Z</time>
      </trkpt>
      <trkpt lat="37.072266869441" lon="-3.382776254452">
        <ele>2734</ele>
        <time>2019-01-07T14:47:27Z</time>
      </trkpt>
      <trkpt lat="37.072298133928" lon="-3.382861414556">
        <ele>2731.2</ele>
        <time>2019-01-07T14:47:28Z</time>
      </trkpt>
      <trkpt lat="37.072298133928" lon="-3.382861414556">
        <ele>2728.4</ele>
        <time>2019-01-07T14:47:29Z</time>
      </trkpt>
      <trkpt lat="37.072297798652" lon="-3.382956968216">
        <ele>2725.4</ele>
        <time>2019-01-07T14:47:30Z</time>
      </trkpt>
      <trkpt lat="37.072291931322" lon="-3.383061993423">
        <ele>2722.4</ele>
        <time>2019-01-07T14:47:31Z</time>
      </trkpt>
      <trkpt lat="37.072315065366" lon="-3.383159977834">
        <ele>2719.2</ele>
        <time>2019-01-07T14:47:32Z</time>
      </trkpt>
      <trkpt lat="37.072358399789" lon="-3.383259722444">
        <ele>2715.6</ele>
        <time>2019-01-07T14:47:33Z</time>
      </trkpt>
      <trkpt lat="37.072374493037" lon="-3.383372626637">
        <ele>2712</ele>
        <time>2019-01-07T14:47:34Z</time>
      </trkpt>
      <trkpt lat="37.072360914359" lon="-3.38348636902">
        <ele>2709</ele>
        <time>2019-01-07T14:47:35Z</time>
      </trkpt>
      <trkpt lat="37.072363261291" lon="-3.383588460562">
        <ele>2706.4</ele>
        <time>2019-01-07T14:47:36Z</time>
      </trkpt>
      <trkpt lat="37.072394274321" lon="-3.383673955942">
        <ele>2703.4</ele>
        <time>2019-01-07T14:47:37Z</time>
      </trkpt>
      <trkpt lat="37.072419420021" lon="-3.383745705006">
        <ele>2700.6</ele>
        <time>2019-01-07T14:47:38Z</time>
      </trkpt>
      <trkpt lat="37.07241196013" lon="-3.383807814885">
        <ele>2698.2</ele>
        <time>2019-01-07T14:47:39Z</time>
      </trkpt>
      <trkpt lat="37.072381366195" lon="-3.383866320547">
        <ele>2696.4</ele>
        <time>2019-01-07T14:47:40Z</time>
      </trkpt>
      <trkpt lat="37.072359070341" lon="-3.383905296382">
        <ele>2694.6</ele>
        <time>2019-01-07T14:47:41Z</time>
      </trkpt>
      <trkpt lat="37.072372062286" lon="-3.383911582807">
        <ele>2693.2</ele>
        <time>2019-01-07T14:47:42Z</time>
      </trkpt>
      <trkpt lat="37.072389831914" lon="-3.383892807351">
        <ele>2691.8</ele>
        <time>2019-01-07T14:47:43Z</time>
      </trkpt>
      <trkpt lat="37.072405338429" lon="-3.383880066863">
        <ele>2690.6</ele>
        <time>2019-01-07T14:47:44Z</time>
      </trkpt>
      <trkpt lat="37.072438866029" lon="-3.383901189251">
        <ele>2689.2</ele>
        <time>2019-01-07T14:47:46Z</time>
      </trkpt>
      <trkpt lat="37.072502317012" lon="-3.383947038244">
        <ele>2688.4</ele>
        <time>2019-01-07T14:47:48Z</time>
      </trkpt>
      <trkpt lat="37.072607090762" lon="-3.383985175889">
        <ele>2688</ele>
        <time>2019-01-07T14:47:50Z</time>
      </trkpt>
      <trkpt lat="37.072814375149" lon="-3.384070168355">
        <ele>2686.8</ele>
        <time>2019-01-07T14:47:53Z</time>
      </trkpt>
      <trkpt lat="37.072973631249" lon="-3.384131272406">
        <ele>2685.2</ele>
        <time>2019-01-07T14:47:55Z</time>
      </trkpt>
      <trkpt lat="37.073057617887" lon="-3.384162620712">
        <ele>2683.4</ele>
        <time>2019-01-07T14:47:57Z</time>
      </trkpt>
      <trkpt lat="37.073221484032" lon="-3.384244428056">
        <ele>2682.4</ele>
        <time>2019-01-07T14:47:58Z</time>
      </trkpt>
      <trkpt lat="37.07337252587" lon="-3.384316009482">
        <ele>2680.6</ele>
        <time>2019-01-07T14:48:00Z</time>
      </trkpt>
      <trkpt lat="37.073495488343" lon="-3.384276698371">
        <ele>2679.4</ele>
        <time>2019-01-07T14:48:02Z</time>
      </trkpt>
      <trkpt lat="37.073595065315" lon="-3.384229340636">
        <ele>2678.8</ele>
        <time>2019-01-07T14:48:04Z</time>
      </trkpt>
      <trkpt lat="37.073736384149" lon="-3.384193466104">
        <ele>2678.4</ele>
        <time>2019-01-07T14:48:07Z</time>
      </trkpt>
      <trkpt lat="37.073910979126" lon="-3.384183156367">
        <ele>2677.4</ele>
        <time>2019-01-07T14:48:10Z</time>
      </trkpt>
      <trkpt lat="37.073973675738" lon="-3.384188939878">
        <ele>2676.8</ele>
        <time>2019-01-07T14:48:11Z</time>
      </trkpt>
      <trkpt lat="37.074101415894" lon="-3.384220874917">
        <ele>2676</ele>
        <time>2019-01-07T14:48:13Z</time>
      </trkpt>
      <trkpt lat="37.074245836031" lon="-3.384264963711">
        <ele>2674.8</ele>
        <time>2019-01-07T14:48:15Z</time>
      </trkpt>
      <trkpt lat="37.074330157945" lon="-3.384291450515">
        <ele>2674.4</ele>
        <time>2019-01-07T14:48:16Z</time>
      </trkpt>
      <trkpt lat="37.074413306393" lon="-3.384352554566">
        <ele>2673.2</ele>
        <time>2019-01-07T14:48:17Z</time>
      </trkpt>
      <trkpt lat="37.074494527004" lon="-3.384447856769">
        <ele>2672</ele>
        <time>2019-01-07T14:48:18Z</time>
      </trkpt>
      <trkpt lat="37.074577088719" lon="-3.384539722393">
        <ele>2670.6</ele>
        <time>2019-01-07T14:48:19Z</time>
      </trkpt>
      <trkpt lat="37.074661242995" lon="-3.384588756508">
        <ele>2669.2</ele>
        <time>2019-01-07T14:48:20Z</time>
      </trkpt>
      <trkpt lat="37.074729723118" lon="-3.384624379583">
        <ele>2667.4</ele>
        <time>2019-01-07T14:48:21Z</time>
      </trkpt>
      <trkpt lat="37.074787809685" lon="-3.384658074821">
        <ele>2665.6</ele>
        <time>2019-01-07T14:48:22Z</time>
      </trkpt>
      <trkpt lat="37.074837262895" lon="-3.38467911339">
        <ele>2664.2</ele>
        <time>2019-01-07T14:48:23Z</time>
      </trkpt>
      <trkpt lat="37.074911526529" lon="-3.384778522724">
        <ele>2662.4</ele>
        <time>2019-01-07T14:48:25Z</time>
      </trkpt>
      <trkpt lat="37.074973217313" lon="-3.384831244875">
        <ele>2661.6</ele>
        <time>2019-01-07T14:48:26Z</time>
      </trkpt>
      <trkpt lat="37.075030633328" lon="-3.384895114953">
        <ele>2661.2</ele>
        <time>2019-01-07T14:48:27Z</time>
      </trkpt>
      <trkpt lat="37.075063071281" lon="-3.384992512631">
        <ele>2660</ele>
        <time>2019-01-07T14:48:28Z</time>
      </trkpt>
      <trkpt lat="37.075112440672" lon="-3.385088485386">
        <ele>2658.4</ele>
        <time>2019-01-07T14:48:29Z</time>
      </trkpt>
      <trkpt lat="37.075163821719" lon="-3.385188229996">
        <ele>2656.4</ele>
        <time>2019-01-07T14:48:30Z</time>
      </trkpt>
      <trkpt lat="37.075190727618" lon="-3.38529518304">
        <ele>2653.8</ele>
        <time>2019-01-07T14:48:31Z</time>
      </trkpt>
      <trkpt lat="37.075225261046" lon="-3.385393083632">
        <ele>2650.8</ele>
        <time>2019-01-07T14:48:32Z</time>
      </trkpt>
      <trkpt lat="37.075225261046" lon="-3.385393083632">
        <ele>2647.6</ele>
        <time>2019-01-07T14:48:33Z</time>
      </trkpt>
      <trkpt lat="37.075313187177" lon="-3.385536497941">
        <ele>2644.6</ele>
        <time>2019-01-07T14:48:34Z</time>
      </trkpt>
      <trkpt lat="37.075313187177" lon="-3.385536497941">
        <ele>2641.6</ele>
        <time>2019-01-07T14:48:35Z</time>
      </trkpt>
      <trkpt lat="37.075299776137" lon="-3.385605816254">
        <ele>2638.8</ele>
        <time>2019-01-07T14:48:36Z</time>
      </trkpt>
      <trkpt lat="37.075261303216" lon="-3.385676643309">
        <ele>2636.2</ele>
        <time>2019-01-07T14:48:37Z</time>
      </trkpt>
      <trkpt lat="37.075293154436" lon="-3.385819554704">
        <ele>2634.2</ele>
        <time>2019-01-07T14:48:38Z</time>
      </trkpt>
      <trkpt lat="37.075313438634" lon="-3.385888789198">
        <ele>2631.8</ele>
        <time>2019-01-07T14:48:39Z</time>
      </trkpt>
      <trkpt lat="37.075313438634" lon="-3.385888789198">
        <ele>2629.4</ele>
        <time>2019-01-07T14:48:40Z</time>
      </trkpt>
      <trkpt lat="37.07530706839" lon="-3.385968501067">
        <ele>2626.8</ele>
        <time>2019-01-07T14:48:41Z</time>
      </trkpt>
      <trkpt lat="37.075306314019" lon="-3.386040166312">
        <ele>2624</ele>
        <time>2019-01-07T14:48:42Z</time>
      </trkpt>
      <trkpt lat="37.075367753346" lon="-3.386177126558">
        <ele>2621</ele>
        <time>2019-01-07T14:48:43Z</time>
      </trkpt>
      <trkpt lat="37.075367753346" lon="-3.386177126558">
        <ele>2618.2</ele>
        <time>2019-01-07T14:48:44Z</time>
      </trkpt>
      <trkpt lat="37.075346630958" lon="-3.386333365174">
        <ele>2615.2</ele>
        <time>2019-01-07T14:48:45Z</time>
      </trkpt>
      <trkpt lat="37.075346630958" lon="-3.386333365174">
        <ele>2612.4</ele>
        <time>2019-01-07T14:48:46Z</time>
      </trkpt>
      <trkpt lat="37.075376973436" lon="-3.386385249135">
        <ele>2609.8</ele>
        <time>2019-01-07T14:48:47Z</time>
      </trkpt>
      <trkpt lat="37.075430869053" lon="-3.3864300923">
        <ele>2607</ele>
        <time>2019-01-07T14:48:48Z</time>
      </trkpt>
      <trkpt lat="37.075482836833" lon="-3.386468816678">
        <ele>2604.4</ele>
        <time>2019-01-07T14:48:49Z</time>
      </trkpt>
      <trkpt lat="37.075506725248" lon="-3.386537715896">
        <ele>2602</ele>
        <time>2019-01-07T14:48:50Z</time>
      </trkpt>
      <trkpt lat="37.075522650858" lon="-3.386617343946">
        <ele>2599.6</ele>
        <time>2019-01-07T14:48:51Z</time>
      </trkpt>
      <trkpt lat="37.075561542874" lon="-3.386709461027">
        <ele>2597.2</ele>
        <time>2019-01-07T14:48:52Z</time>
      </trkpt>
      <trkpt lat="37.075596327759" lon="-3.386809037999">
        <ele>2594.4</ele>
        <time>2019-01-07T14:48:53Z</time>
      </trkpt>
      <trkpt lat="37.075607475686" lon="-3.386928144798">
        <ele>2591.4</ele>
        <time>2019-01-07T14:48:54Z</time>
      </trkpt>
      <trkpt lat="37.075635303594" lon="-3.387040043163">
        <ele>2588</ele>
        <time>2019-01-07T14:48:55Z</time>
      </trkpt>
      <trkpt lat="37.075693893075" lon="-3.387150432786">
        <ele>2584</ele>
        <time>2019-01-07T14:48:56Z</time>
      </trkpt>
      <trkpt lat="37.075756505868" lon="-3.38725570945">
        <ele>2579.8</ele>
        <time>2019-01-07T14:48:57Z</time>
      </trkpt>
      <trkpt lat="37.075793470047" lon="-3.387363668322">
        <ele>2576</ele>
        <time>2019-01-07T14:48:58Z</time>
      </trkpt>
      <trkpt lat="37.075806294354" lon="-3.387458635249">
        <ele>2573.2</ele>
        <time>2019-01-07T14:48:59Z</time>
      </trkpt>
      <trkpt lat="37.07584686275" lon="-3.387544465905">
        <ele>2570.6</ele>
        <time>2019-01-07T14:49:00Z</time>
      </trkpt>
      <trkpt lat="37.075881479997" lon="-3.38761948391">
        <ele>2568.2</ele>
        <time>2019-01-07T14:49:01Z</time>
      </trkpt>
      <trkpt lat="37.075896567417" lon="-3.387698189951">
        <ele>2566</ele>
        <time>2019-01-07T14:49:02Z</time>
      </trkpt>
      <trkpt lat="37.075918025081" lon="-3.387774381422">
        <ele>2564.2</ele>
        <time>2019-01-07T14:49:03Z</time>
      </trkpt>
      <trkpt lat="37.075963119703" lon="-3.387817632026">
        <ele>2563</ele>
        <time>2019-01-07T14:49:04Z</time>
      </trkpt>
      <trkpt lat="37.076089434936" lon="-3.387854512386">
        <ele>2562</ele>
        <time>2019-01-07T14:49:05Z</time>
      </trkpt>
      <trkpt lat="37.076152885919" lon="-3.387869851263">
        <ele>2560.8</ele>
        <time>2019-01-07T14:49:06Z</time>
      </trkpt>
      <trkpt lat="37.076212397409" lon="-3.387884184312">
        <ele>2559.4</ele>
        <time>2019-01-07T14:49:08Z</time>
      </trkpt>
      <trkpt lat="37.076322787032" lon="-3.387903462682">
        <ele>2558.8</ele>
        <time>2019-01-07T14:49:09Z</time>
      </trkpt>
      <trkpt lat="37.076373078432" lon="-3.38790446851">
        <ele>2558.4</ele>
        <time>2019-01-07T14:49:10Z</time>
      </trkpt>
      <trkpt lat="37.076512720886" lon="-3.387902456854">
        <ele>2557.6</ele>
        <time>2019-01-07T14:49:13Z</time>
      </trkpt>
      <trkpt lat="37.076553876015" lon="-3.387888207624">
        <ele>2557.4</ele>
        <time>2019-01-07T14:49:14Z</time>
      </trkpt>
      <trkpt lat="37.076715898142" lon="-3.387868342521">
        <ele>2556</ele>
        <time>2019-01-07T14:49:18Z</time>
      </trkpt>
      <trkpt lat="37.076819749883" lon="-3.38784914797">
        <ele>2555.2</ele>
        <time>2019-01-07T14:49:21Z</time>
      </trkpt>
      <trkpt lat="37.076863671039" lon="-3.387866247046">
        <ele>2554.8</ele>
        <time>2019-01-07T14:49:22Z</time>
      </trkpt>
      <trkpt lat="37.076908765661" lon="-3.387894577868">
        <ele>2554.2</ele>
        <time>2019-01-07T14:49:23Z</time>
      </trkpt>
      <trkpt lat="37.076978251612" lon="-3.388010583364">
        <ele>2553.2</ele>
        <time>2019-01-07T14:49:25Z</time>
      </trkpt>
      <trkpt lat="37.077021586035" lon="-3.388066490637">
        <ele>2552.4</ele>
        <time>2019-01-07T14:49:26Z</time>
      </trkpt>
      <trkpt lat="37.077076571299" lon="-3.388101275522">
        <ele>2551.4</ele>
        <time>2019-01-07T14:49:27Z</time>
      </trkpt>
      <trkpt lat="37.077124767224" lon="-3.388155338777">
        <ele>2550</ele>
        <time>2019-01-07T14:49:28Z</time>
      </trkpt>
      <trkpt lat="37.077183691981" lon="-3.388223232167">
        <ele>2548.6</ele>
        <time>2019-01-07T14:49:29Z</time>
      </trkpt>
      <trkpt lat="37.077255189588" lon="-3.388280145268">
        <ele>2547</ele>
        <time>2019-01-07T14:49:30Z</time>
      </trkpt>
      <trkpt lat="37.077326100462" lon="-3.388334376161">
        <ele>2545.6</ele>
        <time>2019-01-07T14:49:31Z</time>
      </trkpt>
      <trkpt lat="37.077403800675" lon="-3.388415177677">
        <ele>2543.8</ele>
        <time>2019-01-07T14:49:32Z</time>
      </trkpt>
      <trkpt lat="37.07749725886" lon="-3.388481813782">
        <ele>2541.8</ele>
        <time>2019-01-07T14:49:33Z</time>
      </trkpt>
      <trkpt lat="37.077594321262" lon="-3.388525315843">
        <ele>2539.4</ele>
        <time>2019-01-07T14:49:34Z</time>
      </trkpt>
      <trkpt lat="37.077684007592" lon="-3.388582899496">
        <ele>2536.8</ele>
        <time>2019-01-07T14:49:35Z</time>
      </trkpt>
      <trkpt lat="37.07777553794" lon="-3.388645093194">
        <ele>2534</ele>
        <time>2019-01-07T14:49:36Z</time>
      </trkpt>
      <trkpt lat="37.077867403564" lon="-3.388665712668">
        <ele>2531.2</ele>
        <time>2019-01-07T14:49:37Z</time>
      </trkpt>
      <trkpt lat="37.077936135144" lon="-3.388643081538">
        <ele>2528.6</ele>
        <time>2019-01-07T14:49:38Z</time>
      </trkpt>
      <trkpt lat="37.077992042417" lon="-3.388624641358">
        <ele>2525.6</ele>
        <time>2019-01-07T14:49:39Z</time>
      </trkpt>
      <trkpt lat="37.078040322161" lon="-3.388613996345">
        <ele>2522.6</ele>
        <time>2019-01-07T14:49:40Z</time>
      </trkpt>
      <trkpt lat="37.078083824222" lon="-3.388598238373">
        <ele>2520.2</ele>
        <time>2019-01-07T14:49:41Z</time>
      </trkpt>
      <trkpt lat="37.078125817541" lon="-3.388578121813">
        <ele>2518.8</ele>
        <time>2019-01-07T14:49:42Z</time>
      </trkpt>
      <trkpt lat="37.078169738697" lon="-3.388553814303">
        <ele>2517.2</ele>
        <time>2019-01-07T14:49:44Z</time>
      </trkpt>
      <trkpt lat="37.078357577076" lon="-3.388435629513">
        <ele>2515.6</ele>
        <time>2019-01-07T14:49:46Z</time>
      </trkpt>
      <trkpt lat="37.078454388021" lon="-3.388405203216">
        <ele>2514.4</ele>
        <time>2019-01-07T14:49:47Z</time>
      </trkpt>
      <trkpt lat="37.078564861463" lon="-3.388383158819">
        <ele>2512.8</ele>
        <time>2019-01-07T14:49:48Z</time>
      </trkpt>
      <trkpt lat="37.078681202235" lon="-3.38839313328">
        <ele>2510.4</ele>
        <time>2019-01-07T14:49:49Z</time>
      </trkpt>
      <trkpt lat="37.078681202235" lon="-3.38839313328">
        <ele>2508</ele>
        <time>2019-01-07T14:49:50Z</time>
      </trkpt>
      <trkpt lat="37.078862838008" lon="-3.388556831787">
        <ele>2505.2</ele>
        <time>2019-01-07T14:49:51Z</time>
      </trkpt>
      <trkpt lat="37.078927043362" lon="-3.388676609138">
        <ele>2502.8</ele>
        <time>2019-01-07T14:49:52Z</time>
      </trkpt>
      <trkpt lat="37.078927043362" lon="-3.388676609138">
        <ele>2500.2</ele>
        <time>2019-01-07T14:49:53Z</time>
      </trkpt>
      <trkpt lat="37.078969623414" lon="-3.388794961566">
        <ele>2497.4</ele>
        <time>2019-01-07T14:49:54Z</time>
      </trkpt>
      <trkpt lat="37.078985297567" lon="-3.388927144129">
        <ele>2494.4</ele>
        <time>2019-01-07T14:49:55Z</time>
      </trkpt>
      <trkpt lat="37.079001977548" lon="-3.389048094946">
        <ele>2491.4</ele>
        <time>2019-01-07T14:49:56Z</time>
      </trkpt>
      <trkpt lat="37.079047658903" lon="-3.389174996912">
        <ele>2488</ele>
        <time>2019-01-07T14:49:57Z</time>
      </trkpt>
      <trkpt lat="37.079079677761" lon="-3.389297875566">
        <ele>2484.6</ele>
        <time>2019-01-07T14:49:58Z</time>
      </trkpt>
      <trkpt lat="37.079091077145" lon="-3.389437015106">
        <ele>2481</ele>
        <time>2019-01-07T14:49:59Z</time>
      </trkpt>
      <trkpt lat="37.079121838718" lon="-3.389579507406">
        <ele>2478.2</ele>
        <time>2019-01-07T14:50:00Z</time>
      </trkpt>
      <trkpt lat="37.079169364091" lon="-3.389713869263">
        <ele>2474</ele>
        <time>2019-01-07T14:50:01Z</time>
      </trkpt>
      <trkpt lat="37.079206747365" lon="-3.389855188097">
        <ele>2469.8</ele>
        <time>2019-01-07T14:50:02Z</time>
      </trkpt>
      <trkpt lat="37.079200628578" lon="-3.390012013446">
        <ele>2465.2</ele>
        <time>2019-01-07T14:50:03Z</time>
      </trkpt>
      <trkpt lat="37.07920129913" lon="-3.390180070541">
        <ele>2461.6</ele>
        <time>2019-01-07T14:50:04Z</time>
      </trkpt>
      <trkpt lat="37.079216638007" lon="-3.39035030693">
        <ele>2457.8</ele>
        <time>2019-01-07T14:50:05Z</time>
      </trkpt>
      <trkpt lat="37.079222002423" lon="-3.390519453672">
        <ele>2453.8</ele>
        <time>2019-01-07T14:50:06Z</time>
      </trkpt>
      <trkpt lat="37.079213117609" lon="-3.390673093899">
        <ele>2450.4</ele>
        <time>2019-01-07T14:50:07Z</time>
      </trkpt>
      <trkpt lat="37.079227031563" lon="-3.390828997239">
        <ele>2448</ele>
        <time>2019-01-07T14:50:08Z</time>
      </trkpt>
      <trkpt lat="37.079238682404" lon="-3.390963107639">
        <ele>2446</ele>
        <time>2019-01-07T14:50:09Z</time>
      </trkpt>
      <trkpt lat="37.079245890838" lon="-3.391077436755">
        <ele>2444.2</ele>
        <time>2019-01-07T14:50:10Z</time>
      </trkpt>
      <trkpt lat="37.079286207777" lon="-3.391270471912">
        <ele>2442.8</ele>
        <time>2019-01-07T14:50:11Z</time>
      </trkpt>
      <trkpt lat="37.079296768971" lon="-3.391348758858">
        <ele>2441.2</ele>
        <time>2019-01-07T14:50:13Z</time>
      </trkpt>
      <trkpt lat="37.079299451179" lon="-3.391495442108">
        <ele>2440.8</ele>
        <time>2019-01-07T14:50:14Z</time>
      </trkpt>
      <trkpt lat="37.079299451179" lon="-3.391495442108">
        <ele>2440</ele>
        <time>2019-01-07T14:50:15Z</time>
      </trkpt>
      <trkpt lat="37.079317388445" lon="-3.391564592783">
        <ele>2439</ele>
        <time>2019-01-07T14:50:16Z</time>
      </trkpt>
      <trkpt lat="37.079339097566" lon="-3.3916184884">
        <ele>2437.8</ele>
        <time>2019-01-07T14:50:17Z</time>
      </trkpt>
      <trkpt lat="37.079432388113" lon="-3.391794592119">
        <ele>2435.6</ele>
        <time>2019-01-07T14:50:19Z</time>
      </trkpt>
      <trkpt lat="37.079434399769" lon="-3.391861479681">
        <ele>2434.6</ele>
        <time>2019-01-07T14:50:20Z</time>
      </trkpt>
      <trkpt lat="37.079462060039" lon="-3.391934066935">
        <ele>2433.2</ele>
        <time>2019-01-07T14:50:21Z</time>
      </trkpt>
      <trkpt lat="37.079462060039" lon="-3.391934066935">
        <ele>2431.6</ele>
        <time>2019-01-07T14:50:22Z</time>
      </trkpt>
      <trkpt lat="37.079510675059" lon="-3.392089634999">
        <ele>2429.6</ele>
        <time>2019-01-07T14:50:23Z</time>
      </trkpt>
      <trkpt lat="37.079546884867" lon="-3.392180159519">
        <ele>2427.4</ele>
        <time>2019-01-07T14:50:24Z</time>
      </trkpt>
      <trkpt lat="37.079546884867" lon="-3.392180159519">
        <ele>2425.2</ele>
        <time>2019-01-07T14:50:25Z</time>
      </trkpt>
      <trkpt lat="37.079623998347" lon="-3.392378307635">
        <ele>2423.2</ele>
        <time>2019-01-07T14:50:26Z</time>
      </trkpt>
      <trkpt lat="37.079675966127" lon="-3.392474950942">
        <ele>2420.8</ele>
        <time>2019-01-07T14:50:27Z</time>
      </trkpt>
      <trkpt lat="37.079731538124" lon="-3.392574947009">
        <ele>2418.2</ele>
        <time>2019-01-07T14:50:28Z</time>
      </trkpt>
      <trkpt lat="37.079805215025" lon="-3.392659101285">
        <ele>2415.4</ele>
        <time>2019-01-07T14:50:29Z</time>
      </trkpt>
      <trkpt lat="37.079881657953" lon="-3.392741746819">
        <ele>2412.4</ele>
        <time>2019-01-07T14:50:30Z</time>
      </trkpt>
      <trkpt lat="37.079968159161" lon="-3.392811987141">
        <ele>2409.8</ele>
        <time>2019-01-07T14:50:31Z</time>
      </trkpt>
      <trkpt lat="37.080073938739" lon="-3.392862865274">
        <ele>2407.2</ele>
        <time>2019-01-07T14:50:32Z</time>
      </trkpt>
      <trkpt lat="37.080182903439" lon="-3.392903685127">
        <ele>2404.8</ele>
        <time>2019-01-07T14:50:33Z</time>
      </trkpt>
      <trkpt lat="37.080289605026" lon="-3.392986498299">
        <ele>2402.2</ele>
        <time>2019-01-07T14:50:34Z</time>
      </trkpt>
      <trkpt lat="37.080407957454" lon="-3.393047686169">
        <ele>2399.2</ele>
        <time>2019-01-07T14:50:35Z</time>
      </trkpt>
      <trkpt lat="37.080530836108" lon="-3.393098061388">
        <ele>2396.6</ele>
        <time>2019-01-07T14:50:36Z</time>
      </trkpt>
      <trkpt lat="37.080649272355" lon="-3.393150280625">
        <ele>2393.6</ele>
        <time>2019-01-07T14:50:37Z</time>
      </trkpt>
      <trkpt lat="37.080761254539" lon="-3.393231417417">
        <ele>2390.8</ele>
        <time>2019-01-07T14:50:38Z</time>
      </trkpt>
      <trkpt lat="37.080879104053" lon="-3.393249689959">
        <ele>2388</ele>
        <time>2019-01-07T14:50:39Z</time>
      </trkpt>
      <trkpt lat="37.080879104053" lon="-3.393249689959">
        <ele>2385.2</ele>
        <time>2019-01-07T14:50:40Z</time>
      </trkpt>
      <trkpt lat="37.080985135088" lon="-3.393274248926">
        <ele>2382.6</ele>
        <time>2019-01-07T14:50:41Z</time>
      </trkpt>
      <trkpt lat="37.081072390667" lon="-3.393291348002">
        <ele>2379.6</ele>
        <time>2019-01-07T14:50:42Z</time>
      </trkpt>
      <trkpt lat="37.081134081451" lon="-3.393331413484">
        <ele>2376.8</ele>
        <time>2019-01-07T14:50:43Z</time>
      </trkpt>
      <trkpt lat="37.081255116087" lon="-3.393357984107">
        <ele>2374.6</ele>
        <time>2019-01-07T14:50:44Z</time>
      </trkpt>
      <trkpt lat="37.081255116087" lon="-3.393357984107">
        <ele>2372.8</ele>
        <time>2019-01-07T14:50:45Z</time>
      </trkpt>
      <trkpt lat="37.081372714144" lon="-3.393365443998">
        <ele>2371.2</ele>
        <time>2019-01-07T14:50:46Z</time>
      </trkpt>
      <trkpt lat="37.081439601706" lon="-3.393361169229">
        <ele>2369.4</ele>
        <time>2019-01-07T14:50:47Z</time>
      </trkpt>
      <trkpt lat="37.081498945558" lon="-3.393353290243">
        <ele>2367.6</ele>
        <time>2019-01-07T14:50:48Z</time>
      </trkpt>
      <trkpt lat="37.081559462876" lon="-3.393370976052">
        <ele>2365.4</ele>
        <time>2019-01-07T14:50:49Z</time>
      </trkpt>
      <trkpt lat="37.081626015162" lon="-3.393383884178">
        <ele>2363</ele>
        <time>2019-01-07T14:50:50Z</time>
      </trkpt>
      <trkpt lat="37.081692818905" lon="-3.393404000738">
        <ele>2360.4</ele>
        <time>2019-01-07T14:50:51Z</time>
      </trkpt>
      <trkpt lat="37.081769597109" lon="-3.39342143509">
        <ele>2358</ele>
        <time>2019-01-07T14:50:52Z</time>
      </trkpt>
      <trkpt lat="37.081841346173" lon="-3.393412298819">
        <ele>2355.8</ele>
        <time>2019-01-07T14:50:53Z</time>
      </trkpt>
      <trkpt lat="37.0819111674" lon="-3.393402240539">
        <ele>2353</ele>
        <time>2019-01-07T14:50:54Z</time>
      </trkpt>
      <trkpt lat="37.081989202889" lon="-3.393409281335">
        <ele>2350.4</ele>
        <time>2019-01-07T14:50:55Z</time>
      </trkpt>
      <trkpt lat="37.082067657473" lon="-3.393412550276">
        <ele>2347.6</ele>
        <time>2019-01-07T14:50:56Z</time>
      </trkpt>
      <trkpt lat="37.082136808148" lon="-3.393419423434">
        <ele>2345.2</ele>
        <time>2019-01-07T14:50:57Z</time>
      </trkpt>
      <trkpt lat="37.082136808148" lon="-3.393419423434">
        <ele>2343</ele>
        <time>2019-01-07T14:50:58Z</time>
      </trkpt>
      <trkpt lat="37.082197325466" lon="-3.393449514455">
        <ele>2340.6</ele>
        <time>2019-01-07T14:50:59Z</time>
      </trkpt>
      <trkpt lat="37.082280222457" lon="-3.393478851105">
        <ele>2338</ele>
        <time>2019-01-07T14:51:00Z</time>
      </trkpt>
      <trkpt lat="37.082358174127" lon="-3.39349771038">
        <ele>2335.2</ele>
        <time>2019-01-07T14:51:01Z</time>
      </trkpt>
      <trkpt lat="37.082439478557" lon="-3.393544900477">
        <ele>2332</ele>
        <time>2019-01-07T14:51:02Z</time>
      </trkpt>
      <trkpt lat="37.082629831506" lon="-3.393669874606">
        <ele>2329</ele>
        <time>2019-01-07T14:51:03Z</time>
      </trkpt>
      <trkpt lat="37.082729576116" lon="-3.39370809607">
        <ele>2325.8</ele>
        <time>2019-01-07T14:51:04Z</time>
      </trkpt>
      <trkpt lat="37.082729576116" lon="-3.39370809607">
        <ele>2322.2</ele>
        <time>2019-01-07T14:51:05Z</time>
      </trkpt>
      <trkpt lat="37.082830997106" lon="-3.393763835705">
        <ele>2318.4</ele>
        <time>2019-01-07T14:51:06Z</time>
      </trkpt>
      <trkpt lat="37.082905512197" lon="-3.39385226475">
        <ele>2315.4</ele>
        <time>2019-01-07T14:51:07Z</time>
      </trkpt>
      <trkpt lat="37.083058984786" lon="-3.394013113411">
        <ele>2312.8</ele>
        <time>2019-01-07T14:51:08Z</time>
      </trkpt>
      <trkpt lat="37.083058984786" lon="-3.394013113411">
        <ele>2310.4</ele>
        <time>2019-01-07T14:51:09Z</time>
      </trkpt>
      <trkpt lat="37.083201644724" lon="-3.394191396424">
        <ele>2308</ele>
        <time>2019-01-07T14:51:10Z</time>
      </trkpt>
      <trkpt lat="37.083284709353" lon="-3.394258283986">
        <ele>2306.2</ele>
        <time>2019-01-07T14:51:11Z</time>
      </trkpt>
      <trkpt lat="37.083366684335" lon="-3.394340678063">
        <ele>2304.4</ele>
        <time>2019-01-07T14:51:12Z</time>
      </trkpt>
      <trkpt lat="37.08347103899" lon="-3.39438032445">
        <ele>2302.6</ele>
        <time>2019-01-07T14:51:13Z</time>
      </trkpt>
      <trkpt lat="37.083578578767" lon="-3.39440547015">
        <ele>2301</ele>
        <time>2019-01-07T14:51:14Z</time>
      </trkpt>
      <trkpt lat="37.083687040553" lon="-3.394450313315">
        <ele>2299.2</ele>
        <time>2019-01-07T14:51:15Z</time>
      </trkpt>
      <trkpt lat="37.083774379951" lon="-3.394555003246">
        <ele>2297.2</ele>
        <time>2019-01-07T14:51:16Z</time>
      </trkpt>
      <trkpt lat="37.083865658842" lon="-3.394656005141">
        <ele>2295.2</ele>
        <time>2019-01-07T14:51:17Z</time>
      </trkpt>
      <trkpt lat="37.083968588574" lon="-3.394752732267">
        <ele>2293.4</ele>
        <time>2019-01-07T14:51:18Z</time>
      </trkpt>
      <trkpt lat="37.084069841926" lon="-3.394841748045">
        <ele>2291.8</ele>
        <time>2019-01-07T14:51:19Z</time>
      </trkpt>
      <trkpt lat="37.08416170755" lon="-3.394953394953">
        <ele>2289.4</ele>
        <time>2019-01-07T14:51:20Z</time>
      </trkpt>
      <trkpt lat="37.084254830459" lon="-3.395068059345">
        <ele>2286.2</ele>
        <time>2019-01-07T14:51:21Z</time>
      </trkpt>
      <trkpt lat="37.08435365306" lon="-3.395164702652">
        <ele>2283</ele>
        <time>2019-01-07T14:51:22Z</time>
      </trkpt>
      <trkpt lat="37.084444680494" lon="-3.395272577705">
        <ele>2280</ele>
        <time>2019-01-07T14:51:23Z</time>
      </trkpt>
      <trkpt lat="37.084545179475" lon="-3.395370813573">
        <ele>2277.6</ele>
        <time>2019-01-07T14:51:24Z</time>
      </trkpt>
      <trkpt lat="37.084651629605" lon="-3.395468714165">
        <ele>2275.6</ele>
        <time>2019-01-07T14:51:25Z</time>
      </trkpt>
      <trkpt lat="37.084766210178" lon="-3.395566028024">
        <ele>2273.2</ele>
        <time>2019-01-07T14:51:26Z</time>
      </trkpt>
      <trkpt lat="37.084887412452" lon="-3.395641297486">
        <ele>2270.8</ele>
        <time>2019-01-07T14:51:27Z</time>
      </trkpt>
      <trkpt lat="37.084993946401" lon="-3.39572226664">
        <ele>2268.2</ele>
        <time>2019-01-07T14:51:28Z</time>
      </trkpt>
      <trkpt lat="37.085091511717" lon="-3.395814551359">
        <ele>2265.6</ele>
        <time>2019-01-07T14:51:29Z</time>
      </trkpt>
      <trkpt lat="37.085185305178" lon="-3.395878756713">
        <ele>2263</ele>
        <time>2019-01-07T14:51:30Z</time>
      </trkpt>
      <trkpt lat="37.085185305178" lon="-3.395878756713">
        <ele>2259.4</ele>
        <time>2019-01-07T14:51:31Z</time>
      </trkpt>
      <trkpt lat="37.085347075848" lon="-3.396004904308">
        <ele>2256.4</ele>
        <time>2019-01-07T14:51:32Z</time>
      </trkpt>
      <trkpt lat="37.085431481581" lon="-3.396074222621">
        <ele>2253.8</ele>
        <time>2019-01-07T14:51:33Z</time>
      </trkpt>
      <trkpt lat="37.085511528726" lon="-3.396151168463">
        <ele>2251.8</ele>
        <time>2019-01-07T14:51:34Z</time>
      </trkpt>
      <trkpt lat="37.08558076322" lon="-3.396240770974">
        <ele>2249.8</ele>
        <time>2019-01-07T14:51:35Z</time>
      </trkpt>
      <trkpt lat="37.085654691578" lon="-3.396322159223">
        <ele>2248.2</ele>
        <time>2019-01-07T14:51:36Z</time>
      </trkpt>
      <trkpt lat="37.085725183357" lon="-3.396394997934">
        <ele>2246</ele>
        <time>2019-01-07T14:51:37Z</time>
      </trkpt>
      <trkpt lat="37.085725183357" lon="-3.396394997934">
        <ele>2244.2</ele>
        <time>2019-01-07T14:51:38Z</time>
      </trkpt>
      <trkpt lat="37.085827526356" lon="-3.396568167988">
        <ele>2242</ele>
        <time>2019-01-07T14:51:39Z</time>
      </trkpt>
      <trkpt lat="37.0858925699" lon="-3.396633882084">
        <ele>2240</ele>
        <time>2019-01-07T14:51:40Z</time>
      </trkpt>
      <trkpt lat="37.085967839362" lon="-3.396664224562">
        <ele>2238.2</ele>
        <time>2019-01-07T14:51:41Z</time>
      </trkpt>
      <trkpt lat="37.086048305602" lon="-3.396701775474">
        <ele>2236.6</ele>
        <time>2019-01-07T14:51:42Z</time>
      </trkpt>
      <trkpt lat="37.086135142086" lon="-3.396744606983">
        <ele>2235.2</ele>
        <time>2019-01-07T14:51:43Z</time>
      </trkpt>
      <trkpt lat="37.086223235855" lon="-3.396754246168">
        <ele>2233.8</ele>
        <time>2019-01-07T14:51:44Z</time>
      </trkpt>
      <trkpt lat="37.086309401787" lon="-3.396750977227">
        <ele>2232.6</ele>
        <time>2019-01-07T14:51:45Z</time>
      </trkpt>
      <trkpt lat="37.086400680678" lon="-3.396746283363">
        <ele>2230.8</ele>
        <time>2019-01-07T14:51:46Z</time>
      </trkpt>
      <trkpt lat="37.086503778048" lon="-3.396750306675">
        <ele>2229</ele>
        <time>2019-01-07T14:51:47Z</time>
      </trkpt>
      <trkpt lat="37.086612156015" lon="-3.39676581319">
        <ele>2227.4</ele>
        <time>2019-01-07T14:51:48Z</time>
      </trkpt>
      <trkpt lat="37.086726485131" lon="-3.396823564481">
        <ele>2225.4</ele>
        <time>2019-01-07T14:51:49Z</time>
      </trkpt>
      <trkpt lat="37.086841484799" lon="-3.396875783718">
        <ele>2223.4</ele>
        <time>2019-01-07T14:51:50Z</time>
      </trkpt>
      <trkpt lat="37.086964028177" lon="-3.396928254412">
        <ele>2220.6</ele>
        <time>2019-01-07T14:51:51Z</time>
      </trkpt>
      <trkpt lat="37.087085649546" lon="-3.397013246878">
        <ele>2217.8</ele>
        <time>2019-01-07T14:51:52Z</time>
      </trkpt>
      <trkpt lat="37.087198386101" lon="-3.397098323163">
        <ele>2214.8</ele>
        <time>2019-01-07T14:51:53Z</time>
      </trkpt>
      <trkpt lat="37.087317073805" lon="-3.397186081656">
        <ele>2212.8</ele>
        <time>2019-01-07T14:51:54Z</time>
      </trkpt>
      <trkpt lat="37.087432827844" lon="-3.397283395515">
        <ele>2210.8</ele>
        <time>2019-01-07T14:51:55Z</time>
      </trkpt>
      <trkpt lat="37.0875521861" lon="-3.397371908379">
        <ele>2208.2</ele>
        <time>2019-01-07T14:51:56Z</time>
      </trkpt>
      <trkpt lat="37.087670789985" lon="-3.397461427071">
        <ele>2205</ele>
        <time>2019-01-07T14:51:57Z</time>
      </trkpt>
      <trkpt lat="37.087785286739" lon="-3.397545832804">
        <ele>2201.6</ele>
        <time>2019-01-07T14:51:58Z</time>
      </trkpt>
      <trkpt lat="37.087904980271" lon="-3.397629567985">
        <ele>2198.8</ele>
        <time>2019-01-07T14:51:59Z</time>
      </trkpt>
      <trkpt lat="37.088025092898" lon="-3.397710201863">
        <ele>2196.6</ele>
        <time>2019-01-07T14:52:00Z</time>
      </trkpt>
      <trkpt lat="37.088136739806" lon="-3.397798044175">
        <ele>2194.2</ele>
        <time>2019-01-07T14:52:01Z</time>
      </trkpt>
      <trkpt lat="37.088247967619" lon="-3.397880019157">
        <ele>2191.6</ele>
        <time>2019-01-07T14:52:02Z</time>
      </trkpt>
      <trkpt lat="37.088363805477" lon="-3.397943889235">
        <ele>2188.8</ele>
        <time>2019-01-07T14:52:03Z</time>
      </trkpt>
      <trkpt lat="37.08848173881" lon="-3.397988648581">
        <ele>2186.2</ele>
        <time>2019-01-07T14:52:04Z</time>
      </trkpt>
      <trkpt lat="37.088600677971" lon="-3.398015219204">
        <ele>2184</ele>
        <time>2019-01-07T14:52:05Z</time>
      </trkpt>
      <trkpt lat="37.088719533313" lon="-3.398027708235">
        <ele>2182</ele>
        <time>2019-01-07T14:52:06Z</time>
      </trkpt>
      <trkpt lat="37.088835874085" lon="-3.398031060995">
        <ele>2180.4</ele>
        <time>2019-01-07T14:52:07Z</time>
      </trkpt>
      <trkpt lat="37.088947269536" lon="-3.398029216977">
        <ele>2179.2</ele>
        <time>2019-01-07T14:52:08Z</time>
      </trkpt>
      <trkpt lat="37.089056904788" lon="-3.398029719891">
        <ele>2178.2</ele>
        <time>2019-01-07T14:52:09Z</time>
      </trkpt>
      <trkpt lat="37.089165785669" lon="-3.398033827022">
        <ele>2177.2</ele>
        <time>2019-01-07T14:52:10Z</time>
      </trkpt>
      <trkpt lat="37.089270559419" lon="-3.398035251945">
        <ele>2175.8</ele>
        <time>2019-01-07T14:52:11Z</time>
      </trkpt>
      <trkpt lat="37.089372315685" lon="-3.398033324108">
        <ele>2174.4</ele>
        <time>2019-01-07T14:52:12Z</time>
      </trkpt>
      <trkpt lat="37.089470300096" lon="-3.398030558081">
        <ele>2172.8</ele>
        <time>2019-01-07T14:52:13Z</time>
      </trkpt>
      <trkpt lat="37.089567613955" lon="-3.398031060995">
        <ele>2171.6</ele>
        <time>2019-01-07T14:52:14Z</time>
      </trkpt>
      <trkpt lat="37.089662999977" lon="-3.398035754859">
        <ele>2170.2</ele>
        <time>2019-01-07T14:52:15Z</time>
      </trkpt>
      <trkpt lat="37.089662999977" lon="-3.398035754859">
        <ele>2169</ele>
        <time>2019-01-07T14:52:16Z</time>
      </trkpt>
      <trkpt lat="37.08994186579" lon="-3.398088225553">
        <ele>2167.2</ele>
        <time>2019-01-07T14:52:18Z</time>
      </trkpt>
      <trkpt lat="37.090115538758" lon="-3.398140947704">
        <ele>2165.4</ele>
        <time>2019-01-07T14:52:20Z</time>
      </trkpt>
      <trkpt lat="37.090277225609" lon="-3.39819241257">
        <ele>2163.8</ele>
        <time>2019-01-07T14:52:22Z</time>
      </trkpt>
      <trkpt lat="37.090359703505" lon="-3.398216300985">
        <ele>2162.2</ele>
        <time>2019-01-07T14:52:24Z</time>
      </trkpt>
      <trkpt lat="37.09052105508" lon="-3.398265167462">
        <ele>2160.8</ele>
        <time>2019-01-07T14:52:26Z</time>
      </trkpt>
      <trkpt lat="37.090740828498" lon="-3.398328953721">
        <ele>2159.2</ele>
        <time>2019-01-07T14:52:28Z</time>
      </trkpt>
      <trkpt lat="37.090877872563" lon="-3.398374132162">
        <ele>2157.8</ele>
        <time>2019-01-07T14:52:30Z</time>
      </trkpt>
      <trkpt lat="37.091005361262" lon="-3.39841872387">
        <ele>2156.8</ele>
        <time>2019-01-07T14:52:32Z</time>
      </trkpt>
      <trkpt lat="37.09117819604" lon="-3.398469769641">
        <ele>2155.4</ele>
        <time>2019-01-07T14:52:35Z</time>
      </trkpt>
      <trkpt lat="37.091420768226" lon="-3.398519474308">
        <ele>2154.2</ele>
        <time>2019-01-07T14:52:39Z</time>
      </trkpt>
      <trkpt lat="37.091597123402" lon="-3.398567502595">
        <ele>2152.6</ele>
        <time>2019-01-07T14:52:42Z</time>
      </trkpt>
      <trkpt lat="37.091772221293" lon="-3.398607987172">
        <ele>2151.2</ele>
        <time>2019-01-07T14:52:45Z</time>
      </trkpt>
      <trkpt lat="37.091941116578" lon="-3.398646627731">
        <ele>2150</ele>
        <time>2019-01-07T14:52:48Z</time>
      </trkpt>
      <trkpt lat="37.092108838397" lon="-3.398686190299">
        <ele>2148.8</ele>
        <time>2019-01-07T14:52:51Z</time>
      </trkpt>
      <trkpt lat="37.092286115582" lon="-3.398717203329">
        <ele>2147.6</ele>
        <time>2019-01-07T14:52:54Z</time>
      </trkpt>
      <trkpt lat="37.092462722215" lon="-3.398728351256">
        <ele>2146.2</ele>
        <time>2019-01-07T14:52:57Z</time>
      </trkpt>
      <trkpt lat="37.092618541736" lon="-3.398732039292">
        <ele>2145</ele>
        <time>2019-01-07T14:53:00Z</time>
      </trkpt>
      <trkpt lat="37.092831693453" lon="-3.398679317141">
        <ele>2144</ele>
        <time>2019-01-07T14:53:06Z</time>
      </trkpt>
      <trkpt lat="37.092857258248" lon="-3.398663894445">
        <ele>2143.8</ele>
        <time>2019-01-07T14:53:07Z</time>
      </trkpt>
      <trkpt lat="37.093052891794" lon="-3.398591474829">
        <ele>2143.2</ele>
        <time>2019-01-07T14:53:13Z</time>
      </trkpt>
      <trkpt lat="37.093108715248" lon="-3.398621482031">
        <ele>2142.8</ele>
        <time>2019-01-07T14:53:15Z</time>
      </trkpt>
      <trkpt lat="37.093160766847" lon="-3.398664397359">
        <ele>2141.8</ele>
        <time>2019-01-07T14:53:19Z</time>
      </trkpt>
      <trkpt lat="37.093314993807" lon="-3.398664397359">
        <ele>2135.4</ele>
        <time>2019-01-07T14:55:47Z</time>
      </trkpt>
      <trkpt lat="37.093172836783" lon="-3.398627265542">
        <ele>2136.8</ele>
        <time>2019-01-07T14:55:51Z</time>
      </trkpt>
      <trkpt lat="37.09308507829" lon="-3.398604634412">
        <ele>2138.8</ele>
        <time>2019-01-07T14:55:53Z</time>
      </trkpt>
      <trkpt lat="37.071143024289" lon="-3.388048888647">
        <ele>2666.4</ele>
        <time>2019-01-07T15:07:10Z</time>
      </trkpt>
      <trkpt lat="37.071151070913" lon="-3.387802293149">
        <ele>2666</ele>
        <time>2019-01-07T15:07:16Z</time>
      </trkpt>
      <trkpt lat="37.062963798631" lon="-3.373750121618">
        <ele>3006.4</ele>
        <time>2019-01-07T15:16:33Z</time>
      </trkpt>
      <trkpt lat="37.063031272926" lon="-3.373791947299">
        <ele>3005.2</ele>
        <time>2019-01-07T15:16:34Z</time>
      </trkpt>
      <trkpt lat="37.063100339782" lon="-3.373813907877">
        <ele>3004</ele>
        <time>2019-01-07T15:16:35Z</time>
      </trkpt>
      <trkpt lat="37.063168987543" lon="-3.37383964031">
        <ele>3002.4</ele>
        <time>2019-01-07T15:16:36Z</time>
      </trkpt>
      <trkpt lat="37.063239144046" lon="-3.37387735886">
        <ele>3000.6</ele>
        <time>2019-01-07T15:16:37Z</time>
      </trkpt>
      <trkpt lat="37.063315670793" lon="-3.373910383546">
        <ele>2998.6</ele>
        <time>2019-01-07T15:16:38Z</time>
      </trkpt>
      <trkpt lat="37.063398400146" lon="-3.373933098495">
        <ele>2996.4</ele>
        <time>2019-01-07T15:16:39Z</time>
      </trkpt>
      <trkpt lat="37.063476100359" lon="-3.373963357154">
        <ele>2994.2</ele>
        <time>2019-01-07T15:16:40Z</time>
      </trkpt>
      <trkpt lat="37.063555057857" lon="-3.374036195865">
        <ele>2991.8</ele>
        <time>2019-01-07T15:16:41Z</time>
      </trkpt>
      <trkpt lat="37.063633260984" lon="-3.374108615481">
        <ele>2989.8</ele>
        <time>2019-01-07T15:16:42Z</time>
      </trkpt>
      <trkpt lat="37.063702830754" lon="-3.374184639314">
        <ele>2987.2</ele>
        <time>2019-01-07T15:16:43Z</time>
      </trkpt>
      <trkpt lat="37.063725880979" lon="-3.374308607615">
        <ele>2984.6</ele>
        <time>2019-01-07T15:16:44Z</time>
      </trkpt>
      <trkpt lat="37.063755972" lon="-3.37442972607">
        <ele>2982.2</ele>
        <time>2019-01-07T15:16:45Z</time>
      </trkpt>
      <trkpt lat="37.063807855961" lon="-3.374539193684">
        <ele>2979.2</ele>
        <time>2019-01-07T15:16:46Z</time>
      </trkpt>
      <trkpt lat="37.063849346366" lon="-3.37463927357">
        <ele>2976</ele>
        <time>2019-01-07T15:16:47Z</time>
      </trkpt>
      <trkpt lat="37.063882622509" lon="-3.374734072859">
        <ele>2972.8</ele>
        <time>2019-01-07T15:16:48Z</time>
      </trkpt>
      <trkpt lat="37.063931656624" lon="-3.374831302899">
        <ele>2970.2</ele>
        <time>2019-01-07T15:16:49Z</time>
      </trkpt>
      <trkpt lat="37.063969626631" lon="-3.374929454948">
        <ele>2967.8</ele>
        <time>2019-01-07T15:16:50Z</time>
      </trkpt>
      <trkpt lat="37.064002316041" lon="-3.3750390902">
        <ele>2965.4</ele>
        <time>2019-01-07T15:16:51Z</time>
      </trkpt>
      <trkpt lat="37.064051601613" lon="-3.375143696312">
        <ele>2963.2</ele>
        <time>2019-01-07T15:16:52Z</time>
      </trkpt>
      <trkpt lat="37.064126116704" lon="-3.375228940235">
        <ele>2960.4</ele>
        <time>2019-01-07T15:16:53Z</time>
      </trkpt>
      <trkpt lat="37.064199458329" lon="-3.375310579941">
        <ele>2957.4</ele>
        <time>2019-01-07T15:16:54Z</time>
      </trkpt>
      <trkpt lat="37.064253605403" lon="-3.37541543751">
        <ele>2954.6</ele>
        <time>2019-01-07T15:16:55Z</time>
      </trkpt>
      <trkpt lat="37.064309596495" lon="-3.375527503513">
        <ele>2952.2</ele>
        <time>2019-01-07T15:16:56Z</time>
      </trkpt>
      <trkpt lat="37.064355445488" lon="-3.375648957244">
        <ele>2949.8</ele>
        <time>2019-01-07T15:16:57Z</time>
      </trkpt>
      <trkpt lat="37.064405401612" lon="-3.375761358523">
        <ele>2947.2</ele>
        <time>2019-01-07T15:16:58Z</time>
      </trkpt>
      <trkpt lat="37.064450244777" lon="-3.375863366246">
        <ele>2944.8</ele>
        <time>2019-01-07T15:16:59Z</time>
      </trkpt>
      <trkpt lat="37.064467679129" lon="-3.375957243526">
        <ele>2942.4</ele>
        <time>2019-01-07T15:17:00Z</time>
      </trkpt>
      <trkpt lat="37.064470026061" lon="-3.376041481621">
        <ele>2940.4</ele>
        <time>2019-01-07T15:17:01Z</time>
      </trkpt>
      <trkpt lat="37.064488969155" lon="-3.376086324786">
        <ele>2938.6</ele>
        <time>2019-01-07T15:17:02Z</time>
      </trkpt>
      <trkpt lat="37.064521910022" lon="-3.37612454625">
        <ele>2937</ele>
        <time>2019-01-07T15:17:03Z</time>
      </trkpt>
      <trkpt lat="37.064557533097" lon="-3.376157151841">
        <ele>2935.6</ele>
        <time>2019-01-07T15:17:04Z</time>
      </trkpt>
      <trkpt lat="37.064590473964" lon="-3.37619327783">
        <ele>2934.2</ele>
        <time>2019-01-07T15:17:05Z</time>
      </trkpt>
      <trkpt lat="37.064635065672" lon="-3.376244072144">
        <ele>2932.6</ele>
        <time>2019-01-07T15:17:06Z</time>
      </trkpt>
      <trkpt lat="37.064672616584" lon="-3.376296123743">
        <ele>2930.6</ele>
        <time>2019-01-07T15:17:07Z</time>
      </trkpt>
      <trkpt lat="37.064710251315" lon="-3.376350270817">
        <ele>2928.4</ele>
        <time>2019-01-07T15:17:08Z</time>
      </trkpt>
      <trkpt lat="37.064763727837" lon="-3.376410871954">
        <ele>2926.2</ele>
        <time>2019-01-07T15:17:09Z</time>
      </trkpt>
      <trkpt lat="37.064817455816" lon="-3.376475496403">
        <ele>2923.4</ele>
        <time>2019-01-07T15:17:10Z</time>
      </trkpt>
      <trkpt lat="37.064864813551" lon="-3.376544563259">
        <ele>2920.6</ele>
        <time>2019-01-07T15:17:11Z</time>
      </trkpt>
      <trkpt lat="37.064915272589" lon="-3.376611786097">
        <ele>2917.4</ele>
        <time>2019-01-07T15:17:12Z</time>
      </trkpt>
      <trkpt lat="37.064971598957" lon="-3.376666771361">
        <ele>2914.4</ele>
        <time>2019-01-07T15:17:13Z</time>
      </trkpt>
      <trkpt lat="37.065022896185" lon="-3.376717900951">
        <ele>2911.4</ele>
        <time>2019-01-07T15:17:14Z</time>
      </trkpt>
      <trkpt lat="37.065070505377" lon="-3.376775149328">
        <ele>2908.8</ele>
        <time>2019-01-07T15:17:15Z</time>
      </trkpt>
      <trkpt lat="37.065104116796" lon="-3.376837510664">
        <ele>2906.4</ele>
        <time>2019-01-07T15:17:16Z</time>
      </trkpt>
      <trkpt lat="37.065138398767" lon="-3.376904398226">
        <ele>2904.2</ele>
        <time>2019-01-07T15:17:17Z</time>
      </trkpt>
      <trkpt lat="37.065186091778" lon="-3.376967178657">
        <ele>2902</ele>
        <time>2019-01-07T15:17:18Z</time>
      </trkpt>
      <trkpt lat="37.065249291304" lon="-3.377022415378">
        <ele>2899.4</ele>
        <time>2019-01-07T15:17:19Z</time>
      </trkpt>
      <trkpt lat="37.065318106703" lon="-3.377082848877">
        <ele>2897</ele>
        <time>2019-01-07T15:17:20Z</time>
      </trkpt>
      <trkpt lat="37.065398405305" lon="-3.377156274321">
        <ele>2894.4</ele>
        <time>2019-01-07T15:17:21Z</time>
      </trkpt>
      <trkpt lat="37.065480715563" lon="-3.377240680054">
        <ele>2891.4</ele>
        <time>2019-01-07T15:17:22Z</time>
      </trkpt>
      <trkpt lat="37.065546597297" lon="-3.377366827649">
        <ele>2888</ele>
        <time>2019-01-07T15:17:23Z</time>
      </trkpt>
      <trkpt lat="37.06561004828" lon="-3.377524407369">
        <ele>2884</ele>
        <time>2019-01-07T15:17:24Z</time>
      </trkpt>
      <trkpt lat="37.065678612222" lon="-3.377697409785">
        <ele>2880</ele>
        <time>2019-01-07T15:17:25Z</time>
      </trkpt>
      <trkpt lat="37.065765281068" lon="-3.377842416655">
        <ele>2875.6</ele>
        <time>2019-01-07T15:17:26Z</time>
      </trkpt>
      <trkpt lat="37.0658430651" lon="-3.377987255887">
        <ele>2871.8</ele>
        <time>2019-01-07T15:17:27Z</time>
      </trkpt>
      <trkpt lat="37.065915736173" lon="-3.37813620225">
        <ele>2868.6</ele>
        <time>2019-01-07T15:17:28Z</time>
      </trkpt>
      <trkpt lat="37.066004165218" lon="-3.3782745036">
        <ele>2866.4</ele>
        <time>2019-01-07T15:17:29Z</time>
      </trkpt>
      <trkpt lat="37.066088822408" lon="-3.378410038923">
        <ele>2864.6</ele>
        <time>2019-01-07T15:17:30Z</time>
      </trkpt>
      <trkpt lat="37.066168534277" lon="-3.378566026082">
        <ele>2862.6</ele>
        <time>2019-01-07T15:17:31Z</time>
      </trkpt>
      <trkpt lat="37.066256628046" lon="-3.378722516155">
        <ele>2860.4</ele>
        <time>2019-01-07T15:17:32Z</time>
      </trkpt>
      <trkpt lat="37.066343213073" lon="-3.37888470592">
        <ele>2857.4</ele>
        <time>2019-01-07T15:17:33Z</time>
      </trkpt>
      <trkpt lat="37.066426193883" lon="-3.379051254273">
        <ele>2854.4</ele>
        <time>2019-01-07T15:17:34Z</time>
      </trkpt>
      <trkpt lat="37.066521999" lon="-3.379194668582">
        <ele>2851</ele>
        <time>2019-01-07T15:17:35Z</time>
      </trkpt>
      <trkpt lat="37.066627862397" lon="-3.379302795092">
        <ele>2848.6</ele>
        <time>2019-01-07T15:17:36Z</time>
      </trkpt>
      <trkpt lat="37.06672735555" lon="-3.379399857494">
        <ele>2847</ele>
        <time>2019-01-07T15:17:37Z</time>
      </trkpt>
      <trkpt lat="37.066804971944" lon="-3.379508989832">
        <ele>2845.8</ele>
        <time>2019-01-07T15:17:38Z</time>
      </trkpt>
      <trkpt lat="37.066872865334" lon="-3.379624660052">
        <ele>2844.6</ele>
        <time>2019-01-07T15:17:39Z</time>
      </trkpt>
      <trkpt lat="37.066953918307" lon="-3.379733121838">
        <ele>2842.8</ele>
        <time>2019-01-07T15:17:40Z</time>
      </trkpt>
      <trkpt lat="37.067034803642" lon="-3.379825825652">
        <ele>2840</ele>
        <time>2019-01-07T15:17:41Z</time>
      </trkpt>
      <trkpt lat="37.067109905466" lon="-3.379909057919">
        <ele>2837.6</ele>
        <time>2019-01-07T15:17:42Z</time>
      </trkpt>
      <trkpt lat="37.067182408901" lon="-3.379958594948">
        <ele>2835</ele>
        <time>2019-01-07T15:17:43Z</time>
      </trkpt>
      <trkpt lat="37.067237394165" lon="-3.379995894403">
        <ele>2833</ele>
        <time>2019-01-07T15:17:44Z</time>
      </trkpt>
      <trkpt lat="37.067280728588" lon="-3.38003218803">
        <ele>2831.4</ele>
        <time>2019-01-07T15:17:45Z</time>
      </trkpt>
      <trkpt lat="37.067327834866" lon="-3.380050376753">
        <ele>2829.8</ele>
        <time>2019-01-07T15:17:46Z</time>
      </trkpt>
      <trkpt lat="37.067374857325" lon="-3.380056746997">
        <ele>2828.6</ele>
        <time>2019-01-07T15:17:47Z</time>
      </trkpt>
      <trkpt lat="37.06741467135" lon="-3.380055322074">
        <ele>2827.6</ele>
        <time>2019-01-07T15:17:48Z</time>
      </trkpt>
      <trkpt lat="37.067486168957" lon="-3.380051885495">
        <ele>2826.2</ele>
        <time>2019-01-07T15:17:50Z</time>
      </trkpt>
      <trkpt lat="37.067580297694" lon="-3.380083401439">
        <ele>2825</ele>
        <time>2019-01-07T15:17:52Z</time>
      </trkpt>
      <trkpt lat="37.067699320674" lon="-3.38012941807">
        <ele>2823.2</ele>
        <time>2019-01-07T15:17:54Z</time>
      </trkpt>
      <trkpt lat="37.067822450785" lon="-3.38016378386">
        <ele>2821.6</ele>
        <time>2019-01-07T15:17:56Z</time>
      </trkpt>
      <trkpt lat="37.067920183739" lon="-3.380174764149">
        <ele>2819.6</ele>
        <time>2019-01-07T15:17:58Z</time>
      </trkpt>
      <trkpt lat="37.067966619465" lon="-3.380156407788">
        <ele>2818.6</ele>
        <time>2019-01-07T15:18:00Z</time>
      </trkpt>
      <trkpt lat="37.068080780943" lon="-3.380174428873">
        <ele>2817.6</ele>
        <time>2019-01-07T15:18:03Z</time>
      </trkpt>
      <trkpt lat="37.068080780943" lon="-3.380174428873">
        <ele>2817.2</ele>
        <time>2019-01-07T15:18:04Z</time>
      </trkpt>
      <trkpt lat="37.068214388429" lon="-3.380270150171">
        <ele>2815.8</ele>
        <time>2019-01-07T15:18:06Z</time>
      </trkpt>
      <trkpt lat="37.068284293475" lon="-3.380322369408">
        <ele>2814.2</ele>
        <time>2019-01-07T15:18:07Z</time>
      </trkpt>
      <trkpt lat="37.068410860165" lon="-3.380437620533">
        <ele>2812.4</ele>
        <time>2019-01-07T15:18:08Z</time>
      </trkpt>
      <trkpt lat="37.068484704704" lon="-3.38046804683">
        <ele>2810.6</ele>
        <time>2019-01-07T15:18:09Z</time>
      </trkpt>
      <trkpt lat="37.068484704704" lon="-3.38046804683">
        <ele>2808.8</ele>
        <time>2019-01-07T15:18:10Z</time>
      </trkpt>
      <trkpt lat="37.068625352986" lon="-3.380557146427">
        <ele>2807.2</ele>
        <time>2019-01-07T15:18:11Z</time>
      </trkpt>
      <trkpt lat="37.068701125362" lon="-3.380565779784">
        <ele>2805.8</ele>
        <time>2019-01-07T15:18:12Z</time>
      </trkpt>
      <trkpt lat="37.068701125362" lon="-3.380565779784">
        <ele>2804</ele>
        <time>2019-01-07T15:18:13Z</time>
      </trkpt>
      <trkpt lat="37.068769270209" lon="-3.380576927711">
        <ele>2802.2</ele>
        <time>2019-01-07T15:18:14Z</time>
      </trkpt>
      <trkpt lat="37.068908242111" lon="-3.380667200774">
        <ele>2800.2</ele>
        <time>2019-01-07T15:18:15Z</time>
      </trkpt>
      <trkpt lat="37.068908242111" lon="-3.380667200774">
        <ele>2798.8</ele>
        <time>2019-01-07T15:18:16Z</time>
      </trkpt>
      <trkpt lat="37.068978650071" lon="-3.380693100845">
        <ele>2797</ele>
        <time>2019-01-07T15:18:17Z</time>
      </trkpt>
      <trkpt lat="37.069118376344" lon="-3.38069938727">
        <ele>2794.8</ele>
        <time>2019-01-07T15:18:18Z</time>
      </trkpt>
      <trkpt lat="37.069118376344" lon="-3.38069938727">
        <ele>2792.6</ele>
        <time>2019-01-07T15:18:19Z</time>
      </trkpt>
      <trkpt lat="37.069188365209" lon="-3.380702823849">
        <ele>2791</ele>
        <time>2019-01-07T15:18:20Z</time>
      </trkpt>
      <trkpt lat="37.069263634671" lon="-3.380705589876">
        <ele>2789.8</ele>
        <time>2019-01-07T15:18:21Z</time>
      </trkpt>
      <trkpt lat="37.069336724839" lon="-3.380717911269">
        <ele>2788.8</ele>
        <time>2019-01-07T15:18:22Z</time>
      </trkpt>
      <trkpt lat="37.069489945971" lon="-3.380856883171">
        <ele>2787.2</ele>
        <time>2019-01-07T15:18:23Z</time>
      </trkpt>
      <trkpt lat="37.069566975632" lon="-3.380909186227">
        <ele>2785.6</ele>
        <time>2019-01-07T15:18:24Z</time>
      </trkpt>
      <trkpt lat="37.069566975632" lon="-3.380909186227">
        <ele>2783.8</ele>
        <time>2019-01-07T15:18:25Z</time>
      </trkpt>
      <trkpt lat="37.069636964497" lon="-3.380952772107">
        <ele>2782</ele>
        <time>2019-01-07T15:18:26Z</time>
      </trkpt>
      <trkpt lat="37.069762273902" lon="-3.381072633277">
        <ele>2780.2</ele>
        <time>2019-01-07T15:18:27Z</time>
      </trkpt>
      <trkpt lat="37.069762273902" lon="-3.381072633277">
        <ele>2778.6</ele>
        <time>2019-01-07T15:18:28Z</time>
      </trkpt>
      <trkpt lat="37.069826395437" lon="-3.381124014324">
        <ele>2777.4</ele>
        <time>2019-01-07T15:18:29Z</time>
      </trkpt>
      <trkpt lat="37.069951537204" lon="-3.381256448344">
        <ele>2775.2</ele>
        <time>2019-01-07T15:18:31Z</time>
      </trkpt>
      <trkpt lat="37.070023873001" lon="-3.381319228775">
        <ele>2773.6</ele>
        <time>2019-01-07T15:18:32Z</time>
      </trkpt>
      <trkpt lat="37.070145913465" lon="-3.381522741307">
        <ele>2771.4</ele>
        <time>2019-01-07T15:18:33Z</time>
      </trkpt>
      <trkpt lat="37.070225876791" lon="-3.381638830622">
        <ele>2769</ele>
        <time>2019-01-07T15:18:34Z</time>
      </trkpt>
      <trkpt lat="37.070225876791" lon="-3.381638830622">
        <ele>2766.8</ele>
        <time>2019-01-07T15:18:35Z</time>
      </trkpt>
      <trkpt lat="37.070332746016" lon="-3.381719129224">
        <ele>2763.8</ele>
        <time>2019-01-07T15:18:36Z</time>
      </trkpt>
      <trkpt lat="37.070436765395" lon="-3.381809402287">
        <ele>2760.4</ele>
        <time>2019-01-07T15:18:37Z</time>
      </trkpt>
      <trkpt lat="37.070522763689" lon="-3.38191308639">
        <ele>2756.8</ele>
        <time>2019-01-07T15:18:38Z</time>
      </trkpt>
      <trkpt lat="37.070703309815" lon="-3.382124980822">
        <ele>2754.4</ele>
        <time>2019-01-07T15:18:39Z</time>
      </trkpt>
      <trkpt lat="37.070817974207" lon="-3.38217124891">
        <ele>2752</ele>
        <time>2019-01-07T15:18:40Z</time>
      </trkpt>
      <trkpt lat="37.070817974207" lon="-3.38217124891">
        <ele>2749.4</ele>
        <time>2019-01-07T15:18:41Z</time>
      </trkpt>
      <trkpt lat="37.07099541903" lon="-3.382317429246">
        <ele>2747</ele>
        <time>2019-01-07T15:18:42Z</time>
      </trkpt>
      <trkpt lat="37.071061887497" lon="-3.382406696481">
        <ele>2744.2</ele>
        <time>2019-01-07T15:18:43Z</time>
      </trkpt>
      <trkpt lat="37.071134474751" lon="-3.382457323157">
        <ele>2742.6</ele>
        <time>2019-01-07T15:18:44Z</time>
      </trkpt>
      <trkpt lat="37.071134474751" lon="-3.382457323157">
        <ele>2740.8</ele>
        <time>2019-01-07T15:18:45Z</time>
      </trkpt>
      <trkpt lat="37.071286690055" lon="-3.382531167696">
        <ele>2738.8</ele>
        <time>2019-01-07T15:18:46Z</time>
      </trkpt>
      <trkpt lat="37.071286690055" lon="-3.382531167696">
        <ele>2736.2</ele>
        <time>2019-01-07T15:18:47Z</time>
      </trkpt>
      <trkpt lat="37.071368665037" lon="-3.382564695296">
        <ele>2733.8</ele>
        <time>2019-01-07T15:18:48Z</time>
      </trkpt>
      <trkpt lat="37.071512246984" lon="-3.382668547037">
        <ele>2731.8</ele>
        <time>2019-01-07T15:18:49Z</time>
      </trkpt>
      <trkpt lat="37.071512246984" lon="-3.382668547037">
        <ele>2729.8</ele>
        <time>2019-01-07T15:18:50Z</time>
      </trkpt>
      <trkpt lat="37.071571590836" lon="-3.382707858148">
        <ele>2727.6</ele>
        <time>2019-01-07T15:18:51Z</time>
      </trkpt>
      <trkpt lat="37.07160059221" lon="-3.382762927231">
        <ele>2725.6</ele>
        <time>2019-01-07T15:18:52Z</time>
      </trkpt>
      <trkpt lat="37.071615344354" lon="-3.382850434267">
        <ele>2723.6</ele>
        <time>2019-01-07T15:18:53Z</time>
      </trkpt>
      <trkpt lat="37.071648871954" lon="-3.382942635167">
        <ele>2721.8</ele>
        <time>2019-01-07T15:18:54Z</time>
      </trkpt>
      <trkpt lat="37.071703019028" lon="-3.383031567126">
        <ele>2719.6</ele>
        <time>2019-01-07T15:18:55Z</time>
      </trkpt>
      <trkpt lat="37.071751214953" lon="-3.383120666723">
        <ele>2717</ele>
        <time>2019-01-07T15:18:56Z</time>
      </trkpt>
      <trkpt lat="37.071789771693" lon="-3.383241785178">
        <ele>2714</ele>
        <time>2019-01-07T15:18:57Z</time>
      </trkpt>
      <trkpt lat="37.071825394768" lon="-3.383378326329">
        <ele>2711.4</ele>
        <time>2019-01-07T15:18:58Z</time>
      </trkpt>
      <trkpt lat="37.071884822439" lon="-3.383509167788">
        <ele>2707.8</ele>
        <time>2019-01-07T15:18:59Z</time>
      </trkpt>
      <trkpt lat="37.071937041676" lon="-3.383649229337">
        <ele>2704</ele>
        <time>2019-01-07T15:19:00Z</time>
      </trkpt>
      <trkpt lat="37.071983477402" lon="-3.383785519031">
        <ele>2700.6</ele>
        <time>2019-01-07T15:19:01Z</time>
      </trkpt>
      <trkpt lat="37.072041061055" lon="-3.383880485958">
        <ele>2698.4</ele>
        <time>2019-01-07T15:19:02Z</time>
      </trkpt>
      <trkpt lat="37.072117168707" lon="-3.38392893334">
        <ele>2696.4</ele>
        <time>2019-01-07T15:19:03Z</time>
      </trkpt>
      <trkpt lat="37.072190929427" lon="-3.383962712397">
        <ele>2694.4</ele>
        <time>2019-01-07T15:19:04Z</time>
      </trkpt>
      <trkpt lat="37.072257649351" lon="-3.384010740684">
        <ele>2692.6</ele>
        <time>2019-01-07T15:19:05Z</time>
      </trkpt>
      <trkpt lat="37.072295116444" lon="-3.384087015974">
        <ele>2691.2</ele>
        <time>2019-01-07T15:19:06Z</time>
      </trkpt>
      <trkpt lat="37.072274748427" lon="-3.384214672311">
        <ele>2689.8</ele>
        <time>2019-01-07T15:19:07Z</time>
      </trkpt>
      <trkpt lat="37.072261169749" lon="-3.384363283398">
        <ele>2688.4</ele>
        <time>2019-01-07T15:19:08Z</time>
      </trkpt>
      <trkpt lat="37.072367619879" lon="-3.384539303298">
        <ele>2686</ele>
        <time>2019-01-07T15:19:09Z</time>
      </trkpt>
      <trkpt lat="37.072367619879" lon="-3.384539303298">
        <ele>2683.4</ele>
        <time>2019-01-07T15:19:10Z</time>
      </trkpt>
      <trkpt lat="37.072441715875" lon="-3.384591857811">
        <ele>2680.8</ele>
        <time>2019-01-07T15:19:11Z</time>
      </trkpt>
      <trkpt lat="37.072496365863" lon="-3.38466821692">
        <ele>2678.8</ele>
        <time>2019-01-07T15:19:12Z</time>
      </trkpt>
      <trkpt lat="37.07252930673" lon="-3.384778271267">
        <ele>2677.2</ele>
        <time>2019-01-07T15:19:13Z</time>
      </trkpt>
      <trkpt lat="37.072556380267" lon="-3.384896791333">
        <ele>2675.4</ele>
        <time>2019-01-07T15:19:14Z</time>
      </trkpt>
      <trkpt lat="37.0725737308" lon="-3.385028219525">
        <ele>2673.4</ele>
        <time>2019-01-07T15:19:15Z</time>
      </trkpt>
      <trkpt lat="37.072585381641" lon="-3.385153948025">
        <ele>2671</ele>
        <time>2019-01-07T15:19:16Z</time>
      </trkpt>
      <trkpt lat="37.072586806564" lon="-3.385258637956">
        <ele>2669.2</ele>
        <time>2019-01-07T15:19:17Z</time>
      </trkpt>
      <trkpt lat="37.072567192918" lon="-3.38533709254">
        <ele>2667.4</ele>
        <time>2019-01-07T15:19:18Z</time>
      </trkpt>
      <trkpt lat="37.072561744683" lon="-3.385394508555">
        <ele>2666</ele>
        <time>2019-01-07T15:19:19Z</time>
      </trkpt>
      <trkpt lat="37.072637600878" lon="-3.385445302869">
        <ele>2664.2</ele>
        <time>2019-01-07T15:19:21Z</time>
      </trkpt>
      <trkpt lat="37.072692418504" lon="-3.385473633691">
        <ele>2662.8</ele>
        <time>2019-01-07T15:19:22Z</time>
      </trkpt>
      <trkpt lat="37.072738602773" lon="-3.385514621182">
        <ele>2661.4</ele>
        <time>2019-01-07T15:19:23Z</time>
      </trkpt>
      <trkpt lat="37.07275394165" lon="-3.385589639187">
        <ele>2659.8</ele>
        <time>2019-01-07T15:19:24Z</time>
      </trkpt>
      <trkpt lat="37.072774561124" lon="-3.385685444304">
        <ele>2658</ele>
        <time>2019-01-07T15:19:25Z</time>
      </trkpt>
      <trkpt lat="37.072820493936" lon="-3.385753505332">
        <ele>2655.8</ele>
        <time>2019-01-07T15:19:26Z</time>
      </trkpt>
      <trkpt lat="37.072882939091" lon="-3.385806646578">
        <ele>2653.6</ele>
        <time>2019-01-07T15:19:27Z</time>
      </trkpt>
      <trkpt lat="37.072933984862" lon="-3.385860877471">
        <ele>2651.2</ele>
        <time>2019-01-07T15:19:28Z</time>
      </trkpt>
      <trkpt lat="37.072978660389" lon="-3.385925753377">
        <ele>2649</ele>
        <time>2019-01-07T15:19:29Z</time>
      </trkpt>
      <trkpt lat="37.073030711988" lon="-3.386000268468">
        <ele>2646.8</ele>
        <time>2019-01-07T15:19:30Z</time>
      </trkpt>
      <trkpt lat="37.073081422483" lon="-3.386074951197">
        <ele>2644.2</ele>
        <time>2019-01-07T15:19:31Z</time>
      </trkpt>
      <trkpt lat="37.073148561502" lon="-3.38616941521">
        <ele>2641.8</ele>
        <time>2019-01-07T15:19:32Z</time>
      </trkpt>
      <trkpt lat="37.073239169841" lon="-3.386242756835">
        <ele>2640.4</ele>
        <time>2019-01-07T15:19:33Z</time>
      </trkpt>
      <trkpt lat="37.073342686306" lon="-3.386299250841">
        <ele>2640.6</ele>
        <time>2019-01-07T15:19:34Z</time>
      </trkpt>
      <trkpt lat="37.073452908291" lon="-3.386360187254">
        <ele>2638.2</ele>
        <time>2019-01-07T15:19:35Z</time>
      </trkpt>
      <trkpt lat="37.073570171072" lon="-3.386427829187">
        <ele>2632.8</ele>
        <time>2019-01-07T15:19:36Z</time>
      </trkpt>
      <trkpt lat="37.073692043898" lon="-3.386504775029">
        <ele>2630.8</ele>
        <time>2019-01-07T15:19:37Z</time>
      </trkpt>
      <trkpt lat="37.073811653611" lon="-3.386596473015">
        <ele>2628.8</ele>
        <time>2019-01-07T15:19:38Z</time>
      </trkpt>
      <trkpt lat="37.073920953587" lon="-3.386708958113">
        <ele>2629.8</ele>
        <time>2019-01-07T15:19:39Z</time>
      </trkpt>
      <trkpt lat="37.074116503314" lon="-3.386931246101">
        <ele>2628</ele>
        <time>2019-01-07T15:19:41Z</time>
      </trkpt>
      <trkpt lat="37.074227228213" lon="-3.386994026532">
        <ele>2626.6</ele>
        <time>2019-01-07T15:19:42Z</time>
      </trkpt>
      <trkpt lat="37.07433309161" lon="-3.387050269081">
        <ele>2625</ele>
        <time>2019-01-07T15:19:43Z</time>
      </trkpt>
      <trkpt lat="37.074436775713" lon="-3.387117072824">
        <ele>2623</ele>
        <time>2019-01-07T15:19:44Z</time>
      </trkpt>
      <trkpt lat="37.074533921934" lon="-3.387182284006">
        <ele>2621.4</ele>
        <time>2019-01-07T15:19:45Z</time>
      </trkpt>
      <trkpt lat="37.074620506961" lon="-3.387242968962">
        <ele>2619.8</ele>
        <time>2019-01-07T15:19:46Z</time>
      </trkpt>
      <trkpt lat="37.074670211628" lon="-3.387331314188">
        <ele>2618</ele>
        <time>2019-01-07T15:19:47Z</time>
      </trkpt>
      <trkpt lat="37.074712624042" lon="-3.387410439324">
        <ele>2616</ele>
        <time>2019-01-07T15:19:48Z</time>
      </trkpt>
      <trkpt lat="37.074760317053" lon="-3.387446649132">
        <ele>2614.2</ele>
        <time>2019-01-07T15:19:49Z</time>
      </trkpt>
      <trkpt lat="37.074800717811" lon="-3.387450085711">
        <ele>2612.6</ele>
        <time>2019-01-07T15:19:50Z</time>
      </trkpt>
      <trkpt lat="37.074843381682" lon="-3.387448241693">
        <ele>2611.2</ele>
        <time>2019-01-07T15:19:51Z</time>
      </trkpt>
      <trkpt lat="37.074883614802" lon="-3.387458802887">
        <ele>2609.8</ele>
        <time>2019-01-07T15:19:52Z</time>
      </trkpt>
      <trkpt lat="37.07493910298" lon="-3.387476823972">
        <ele>2608.4</ele>
        <time>2019-01-07T15:19:53Z</time>
      </trkpt>
      <trkpt lat="37.075001799592" lon="-3.387487133709">
        <ele>2606.4</ele>
        <time>2019-01-07T15:19:54Z</time>
      </trkpt>
      <trkpt lat="37.075065250575" lon="-3.387497024351">
        <ele>2604.6</ele>
        <time>2019-01-07T15:19:55Z</time>
      </trkpt>
      <trkpt lat="37.075142364055" lon="-3.387504987156">
        <ele>2602.6</ele>
        <time>2019-01-07T15:19:56Z</time>
      </trkpt>
      <trkpt lat="37.075214280757" lon="-3.387493084858">
        <ele>2600.6</ele>
        <time>2019-01-07T15:19:57Z</time>
      </trkpt>
      <trkpt lat="37.075375632332" lon="-3.387483780949">
        <ele>2598.4</ele>
        <time>2019-01-07T15:19:58Z</time>
      </trkpt>
      <trkpt lat="37.075375632332" lon="-3.387483780949">
        <ele>2595.8</ele>
        <time>2019-01-07T15:19:59Z</time>
      </trkpt>
      <trkpt lat="37.075469844888" lon="-3.387521080404">
        <ele>2593.8</ele>
        <time>2019-01-07T15:20:00Z</time>
      </trkpt>
      <trkpt lat="37.075582413805" lon="-3.387576652401">
        <ele>2591.6</ele>
        <time>2019-01-07T15:20:01Z</time>
      </trkpt>
      <trkpt lat="37.075703113165" lon="-3.387645719257">
        <ele>2589.4</ele>
        <time>2019-01-07T15:20:02Z</time>
      </trkpt>
      <trkpt lat="37.075832110606" lon="-3.387722748918">
        <ele>2586.6</ele>
        <time>2019-01-07T15:20:03Z</time>
      </trkpt>
      <trkpt lat="37.075963035884" lon="-3.387779410562">
        <ele>2583.8</ele>
        <time>2019-01-07T15:20:04Z</time>
      </trkpt>
      <trkpt lat="37.076093458248" lon="-3.387816877655">
        <ele>2580.8</ele>
        <time>2019-01-07T15:20:05Z</time>
      </trkpt>
      <trkpt lat="37.076213403237" lon="-3.387825343374">
        <ele>2577.8</ele>
        <time>2019-01-07T15:20:06Z</time>
      </trkpt>
      <trkpt lat="37.076319266634" lon="-3.387830875428">
        <ele>2575.6</ele>
        <time>2019-01-07T15:20:07Z</time>
      </trkpt>
      <trkpt lat="37.076407695679" lon="-3.38784244245">
        <ele>2574.2</ele>
        <time>2019-01-07T15:20:08Z</time>
      </trkpt>
      <trkpt lat="37.076489335385" lon="-3.387874209851">
        <ele>2573</ele>
        <time>2019-01-07T15:20:09Z</time>
      </trkpt>
      <trkpt lat="37.076569047254" lon="-3.387904719967">
        <ele>2572.4</ele>
        <time>2019-01-07T15:20:10Z</time>
      </trkpt>
      <trkpt lat="37.076650351684" lon="-3.387924752708">
        <ele>2571.8</ele>
        <time>2019-01-07T15:20:11Z</time>
      </trkpt>
      <trkpt lat="37.076819414607" lon="-3.387937409377">
        <ele>2570.4</ele>
        <time>2019-01-07T15:20:13Z</time>
      </trkpt>
      <trkpt lat="37.076901641046" lon="-3.387944114897">
        <ele>2569.2</ele>
        <time>2019-01-07T15:20:14Z</time>
      </trkpt>
      <trkpt lat="37.076972216644" lon="-3.387981330533">
        <ele>2567.6</ele>
        <time>2019-01-07T15:20:15Z</time>
      </trkpt>
      <trkpt lat="37.077027201908" lon="-3.388050732665">
        <ele>2566</ele>
        <time>2019-01-07T15:20:16Z</time>
      </trkpt>
      <trkpt lat="37.077078582955" lon="-3.388152321293">
        <ele>2564.8</ele>
        <time>2019-01-07T15:20:17Z</time>
      </trkpt>
      <trkpt lat="37.077147146897" lon="-3.38825650831">
        <ele>2563.4</ele>
        <time>2019-01-07T15:20:18Z</time>
      </trkpt>
      <trkpt lat="37.077241275634" lon="-3.388319791655">
        <ele>2561.4</ele>
        <time>2019-01-07T15:20:19Z</time>
      </trkpt>
      <trkpt lat="37.077344456823" lon="-3.38835122378">
        <ele>2558</ele>
        <time>2019-01-07T15:20:20Z</time>
      </trkpt>
      <trkpt lat="37.077447470374" lon="-3.388376956213">
        <ele>2554.4</ele>
        <time>2019-01-07T15:20:21Z</time>
      </trkpt>
      <trkpt lat="37.077546963527" lon="-3.388427582889">
        <ele>2551.6</ele>
        <time>2019-01-07T15:20:22Z</time>
      </trkpt>
      <trkpt lat="37.077646708137" lon="-3.388495560098">
        <ele>2549.6</ele>
        <time>2019-01-07T15:20:23Z</time>
      </trkpt>
      <trkpt lat="37.077744021996" lon="-3.38858004965">
        <ele>2548.4</ele>
        <time>2019-01-07T15:20:24Z</time>
      </trkpt>
      <trkpt lat="37.077850723583" lon="-3.388614834535">
        <ele>2545.6</ele>
        <time>2019-01-07T15:20:25Z</time>
      </trkpt>
      <trkpt lat="37.077947115433" lon="-3.388593628328">
        <ele>2541.8</ele>
        <time>2019-01-07T15:20:26Z</time>
      </trkpt>
      <trkpt lat="37.078022384895" lon="-3.388549288077">
        <ele>2537.4</ele>
        <time>2019-01-07T15:20:27Z</time>
      </trkpt>
      <trkpt lat="37.078076951064" lon="-3.388502349437">
        <ele>2534.4</ele>
        <time>2019-01-07T15:20:28Z</time>
      </trkpt>
      <trkpt lat="37.078127493921" lon="-3.388460942851">
        <ele>2532.6</ele>
        <time>2019-01-07T15:20:29Z</time>
      </trkpt>
      <trkpt lat="37.07817703095" lon="-3.388408472157">
        <ele>2531.2</ele>
        <time>2019-01-07T15:20:30Z</time>
      </trkpt>
      <trkpt lat="37.078231010386" lon="-3.38835457654">
        <ele>2529.8</ele>
        <time>2019-01-07T15:20:31Z</time>
      </trkpt>
      <trkpt lat="37.078308710599" lon="-3.388314594877">
        <ele>2528.4</ele>
        <time>2019-01-07T15:20:32Z</time>
      </trkpt>
      <trkpt lat="37.078395882359" lon="-3.388285593503">
        <ele>2526.8</ele>
        <time>2019-01-07T15:20:33Z</time>
      </trkpt>
      <trkpt lat="37.078482635024" lon="-3.388277546879">
        <ele>2525</ele>
        <time>2019-01-07T15:20:34Z</time>
      </trkpt>
      <trkpt lat="37.078570309698" lon="-3.388290119729">
        <ele>2523</ele>
        <time>2019-01-07T15:20:35Z</time>
      </trkpt>
      <trkpt lat="37.078655721259" lon="-3.388313337592">
        <ele>2521</ele>
        <time>2019-01-07T15:20:36Z</time>
      </trkpt>
      <trkpt lat="37.078725877762" lon="-3.388355330911">
        <ele>2519.2</ele>
        <time>2019-01-07T15:20:37Z</time>
      </trkpt>
      <trkpt lat="37.078759489181" lon="-3.388425235957">
        <ele>2517.4</ele>
        <time>2019-01-07T15:20:38Z</time>
      </trkpt>
      <trkpt lat="37.078815564092" lon="-3.388605614445">
        <ele>2515.6</ele>
        <time>2019-01-07T15:20:39Z</time>
      </trkpt>
      <trkpt lat="37.078815564092" lon="-3.388605614445">
        <ele>2514.2</ele>
        <time>2019-01-07T15:20:40Z</time>
      </trkpt>
      <trkpt lat="37.07886350856" lon="-3.38867895607">
        <ele>2512</ele>
        <time>2019-01-07T15:20:41Z</time>
      </trkpt>
      <trkpt lat="37.078897455255" lon="-3.388749615487">
        <ele>2509.6</ele>
        <time>2019-01-07T15:20:42Z</time>
      </trkpt>
      <trkpt lat="37.078903657861" lon="-3.388844414776">
        <ele>2507</ele>
        <time>2019-01-07T15:20:43Z</time>
      </trkpt>
      <trkpt lat="37.078909860467" lon="-3.388945835766">
        <ele>2504.8</ele>
        <time>2019-01-07T15:20:44Z</time>
      </trkpt>
      <trkpt lat="37.07893978385" lon="-3.389040970331">
        <ele>2502.4</ele>
        <time>2019-01-07T15:20:45Z</time>
      </trkpt>
      <trkpt lat="37.078986890128" lon="-3.38923383785">
        <ele>2500</ele>
        <time>2019-01-07T15:20:46Z</time>
      </trkpt>
      <trkpt lat="37.078986890128" lon="-3.38923383785">
        <ele>2497.4</ele>
        <time>2019-01-07T15:20:47Z</time>
      </trkpt>
      <trkpt lat="37.079090741869" lon="-3.389397620176">
        <ele>2494.6</ele>
        <time>2019-01-07T15:20:48Z</time>
      </trkpt>
      <trkpt lat="37.079090741869" lon="-3.389397620176">
        <ele>2491.6</ele>
        <time>2019-01-07T15:20:49Z</time>
      </trkpt>
      <trkpt lat="37.079109852601" lon="-3.389489904895">
        <ele>2488.4</ele>
        <time>2019-01-07T15:20:50Z</time>
      </trkpt>
      <trkpt lat="37.079117228673" lon="-3.389595684473">
        <ele>2486</ele>
        <time>2019-01-07T15:20:51Z</time>
      </trkpt>
      <trkpt lat="37.079145559495" lon="-3.389709259218">
        <ele>2483</ele>
        <time>2019-01-07T15:20:52Z</time>
      </trkpt>
      <trkpt lat="37.079172968308" lon="-3.389830545311">
        <ele>2480.2</ele>
        <time>2019-01-07T15:20:53Z</time>
      </trkpt>
      <trkpt lat="37.079169112634" lon="-3.389973289068">
        <ele>2477.6</ele>
        <time>2019-01-07T15:20:54Z</time>
      </trkpt>
      <trkpt lat="37.0791619042" lon="-3.390125588191">
        <ele>2475</ele>
        <time>2019-01-07T15:20:55Z</time>
      </trkpt>
      <trkpt lat="37.079183445683" lon="-3.390289621974">
        <ele>2471.8</ele>
        <time>2019-01-07T15:20:56Z</time>
      </trkpt>
      <trkpt lat="37.079227450658" lon="-3.39044418421">
        <ele>2468</ele>
        <time>2019-01-07T15:20:57Z</time>
      </trkpt>
      <trkpt lat="37.079298864446" lon="-3.39074257985">
        <ele>2464.6</ele>
        <time>2019-01-07T15:20:58Z</time>
      </trkpt>
      <trkpt lat="37.079301546654" lon="-3.390874427137">
        <ele>2462</ele>
        <time>2019-01-07T15:20:59Z</time>
      </trkpt>
      <trkpt lat="37.079301630473" lon="-3.390995294135">
        <ele>2459.6</ele>
        <time>2019-01-07T15:21:00Z</time>
      </trkpt>
      <trkpt lat="37.079301630473" lon="-3.390995294135">
        <ele>2458</ele>
        <time>2019-01-07T15:21:01Z</time>
      </trkpt>
      <trkpt lat="37.079339432842" lon="-3.39116754218">
        <ele>2456.6</ele>
        <time>2019-01-07T15:21:02Z</time>
      </trkpt>
      <trkpt lat="37.079339432842" lon="-3.39116754218">
        <ele>2455.6</ele>
        <time>2019-01-07T15:21:03Z</time>
      </trkpt>
      <trkpt lat="37.079307162527" lon="-3.391281871296">
        <ele>2454.8</ele>
        <time>2019-01-07T15:21:04Z</time>
      </trkpt>
      <trkpt lat="37.079307162527" lon="-3.391281871296">
        <ele>2454.2</ele>
        <time>2019-01-07T15:21:05Z</time>
      </trkpt>
      <trkpt lat="37.079278244972" lon="-3.391342807709">
        <ele>2453.6</ele>
        <time>2019-01-07T15:21:06Z</time>
      </trkpt>
      <trkpt lat="37.079288219433" lon="-3.391400642819">
        <ele>2453</ele>
        <time>2019-01-07T15:21:07Z</time>
      </trkpt>
      <trkpt lat="37.079314957694" lon="-3.391510697166">
        <ele>2451.4</ele>
        <time>2019-01-07T15:21:09Z</time>
      </trkpt>
      <trkpt lat="37.079347060371" lon="-3.391631983259">
        <ele>2449.8</ele>
        <time>2019-01-07T15:21:11Z</time>
      </trkpt>
      <trkpt lat="37.079378911591" lon="-3.391760645424">
        <ele>2447.8</ele>
        <time>2019-01-07T15:21:13Z</time>
      </trkpt>
      <trkpt lat="37.079383018722" lon="-3.391844296786">
        <ele>2446.2</ele>
        <time>2019-01-07T15:21:14Z</time>
      </trkpt>
      <trkpt lat="37.079404476386" lon="-3.391919063334">
        <ele>2444.6</ele>
        <time>2019-01-07T15:21:15Z</time>
      </trkpt>
      <trkpt lat="37.079427526611" lon="-3.391988549285">
        <ele>2442.6</ele>
        <time>2019-01-07T15:21:16Z</time>
      </trkpt>
      <trkpt lat="37.07944018328" lon="-3.39207865471">
        <ele>2440.8</ele>
        <time>2019-01-07T15:21:17Z</time>
      </trkpt>
      <trkpt lat="37.079453929596" lon="-3.392167838126">
        <ele>2438.8</ele>
        <time>2019-01-07T15:21:18Z</time>
      </trkpt>
      <trkpt lat="37.079500449141" lon="-3.39223707262">
        <ele>2436.8</ele>
        <time>2019-01-07T15:21:19Z</time>
      </trkpt>
      <trkpt lat="37.07954411884" lon="-3.392306307114">
        <ele>2434.8</ele>
        <time>2019-01-07T15:21:20Z</time>
      </trkpt>
      <trkpt lat="37.079576053879" lon="-3.392405297353">
        <ele>2432.6</ele>
        <time>2019-01-07T15:21:21Z</time>
      </trkpt>
      <trkpt lat="37.079618885388" lon="-3.392493474941">
        <ele>2430.6</ele>
        <time>2019-01-07T15:21:22Z</time>
      </trkpt>
      <trkpt lat="37.079683426018" lon="-3.392561619788">
        <ele>2428.2</ele>
        <time>2019-01-07T15:21:23Z</time>
      </trkpt>
      <trkpt lat="37.07976037186" lon="-3.392617527061">
        <ele>2425.6</ele>
        <time>2019-01-07T15:21:24Z</time>
      </trkpt>
      <trkpt lat="37.079842682118" lon="-3.392667315547">
        <ele>2422.8</ele>
        <time>2019-01-07T15:21:25Z</time>
      </trkpt>
      <trkpt lat="37.079922310168" lon="-3.392716684938">
        <ele>2420.4</ele>
        <time>2019-01-07T15:21:26Z</time>
      </trkpt>
      <trkpt lat="37.079990957929" lon="-3.392788517821">
        <ele>2418.2</ele>
        <time>2019-01-07T15:21:27Z</time>
      </trkpt>
      <trkpt lat="37.080062623174" lon="-3.392859763971">
        <ele>2416.2</ele>
        <time>2019-01-07T15:21:28Z</time>
      </trkpt>
      <trkpt lat="37.08014007193" lon="-3.392906367335">
        <ele>2414</ele>
        <time>2019-01-07T15:21:29Z</time>
      </trkpt>
      <trkpt lat="37.080222549826" lon="-3.392963531893">
        <ele>2411.6</ele>
        <time>2019-01-07T15:21:30Z</time>
      </trkpt>
      <trkpt lat="37.080314918364" lon="-3.393024887401">
        <ele>2409.2</ele>
        <time>2019-01-07T15:21:31Z</time>
      </trkpt>
      <trkpt lat="37.080413657146" lon="-3.393077861009">
        <ele>2406.8</ele>
        <time>2019-01-07T15:21:32Z</time>
      </trkpt>
      <trkpt lat="37.080507869702" lon="-3.393131756626">
        <ele>2404.4</ele>
        <time>2019-01-07T15:21:33Z</time>
      </trkpt>
      <trkpt lat="37.080598897136" lon="-3.393201158758">
        <ele>2401.8</ele>
        <time>2019-01-07T15:21:34Z</time>
      </trkpt>
      <trkpt lat="37.080691181855" lon="-3.393242732982">
        <ele>2399.8</ele>
        <time>2019-01-07T15:21:35Z</time>
      </trkpt>
      <trkpt lat="37.080783466574" lon="-3.393256479298">
        <ele>2397.6</ele>
        <time>2019-01-07T15:21:36Z</time>
      </trkpt>
      <trkpt lat="37.080865273918" lon="-3.393270812347">
        <ele>2395.2</ele>
        <time>2019-01-07T15:21:37Z</time>
      </trkpt>
      <trkpt lat="37.080933754041" lon="-3.393305932508">
        <ele>2393.2</ele>
        <time>2019-01-07T15:21:38Z</time>
      </trkpt>
      <trkpt lat="37.080975579722" lon="-3.393365779274">
        <ele>2391.6</ele>
        <time>2019-01-07T15:21:39Z</time>
      </trkpt>
      <trkpt lat="37.081013633548" lon="-3.393431661008">
        <ele>2390.6</ele>
        <time>2019-01-07T15:21:40Z</time>
      </trkpt>
      <trkpt lat="37.081059482541" lon="-3.39346669735">
        <ele>2389.4</ele>
        <time>2019-01-07T15:21:41Z</time>
      </trkpt>
      <trkpt lat="37.08109979948" lon="-3.393492848878">
        <ele>2388</ele>
        <time>2019-01-07T15:21:42Z</time>
      </trkpt>
      <trkpt lat="37.081135338736" lon="-3.393535009835">
        <ele>2386.4</ele>
        <time>2019-01-07T15:21:43Z</time>
      </trkpt>
      <trkpt lat="37.081175320399" lon="-3.393596784438">
        <ele>2385</ele>
        <time>2019-01-07T15:21:44Z</time>
      </trkpt>
      <trkpt lat="37.081222761953" lon="-3.393625199079">
        <ele>2383.8</ele>
        <time>2019-01-07T15:21:45Z</time>
      </trkpt>
      <trkpt lat="37.081276489932" lon="-3.393643723078">
        <ele>2382.4</ele>
        <time>2019-01-07T15:21:46Z</time>
      </trkpt>
      <trkpt lat="37.081337342526" lon="-3.393662247077">
        <ele>2380.8</ele>
        <time>2019-01-07T15:21:47Z</time>
      </trkpt>
      <trkpt lat="37.08139903331" lon="-3.393656212109">
        <ele>2379</ele>
        <time>2019-01-07T15:21:48Z</time>
      </trkpt>
      <trkpt lat="37.081456365506" lon="-3.393662163258">
        <ele>2377.2</ele>
        <time>2019-01-07T15:21:49Z</time>
      </trkpt>
      <trkpt lat="37.081514200616" lon="-3.393666438027">
        <ele>2375.6</ele>
        <time>2019-01-07T15:21:50Z</time>
      </trkpt>
      <trkpt lat="37.081572873916" lon="-3.393662330896">
        <ele>2373.6</ele>
        <time>2019-01-07T15:21:51Z</time>
      </trkpt>
      <trkpt lat="37.081631379578" lon="-3.393665013104">
        <ele>2371.8</ele>
        <time>2019-01-07T15:21:52Z</time>
      </trkpt>
      <trkpt lat="37.081685526652" lon="-3.393658223765">
        <ele>2370.2</ele>
        <time>2019-01-07T15:21:53Z</time>
      </trkpt>
      <trkpt lat="37.081734476948" lon="-3.393643890716">
        <ele>2368</ele>
        <time>2019-01-07T15:21:54Z</time>
      </trkpt>
      <trkpt lat="37.081787282918" lon="-3.393650680055">
        <ele>2365.6</ele>
        <time>2019-01-07T15:21:55Z</time>
      </trkpt>
      <trkpt lat="37.081842854915" lon="-3.39364858458">
        <ele>2363</ele>
        <time>2019-01-07T15:21:56Z</time>
      </trkpt>
      <trkpt lat="37.081894235962" lon="-3.393626288726">
        <ele>2361</ele>
        <time>2019-01-07T15:21:57Z</time>
      </trkpt>
      <trkpt lat="37.081937318928" lon="-3.393613632057">
        <ele>2358.8</ele>
        <time>2019-01-07T15:21:58Z</time>
      </trkpt>
      <trkpt lat="37.08198828088" lon="-3.393641711422">
        <ele>2356.8</ele>
        <time>2019-01-07T15:21:59Z</time>
      </trkpt>
      <trkpt lat="37.082038991375" lon="-3.393653697539">
        <ele>2355</ele>
        <time>2019-01-07T15:22:00Z</time>
      </trkpt>
      <trkpt lat="37.082083331626" lon="-3.393654787186">
        <ele>2353</ele>
        <time>2019-01-07T15:22:01Z</time>
      </trkpt>
      <trkpt lat="37.082133790664" lon="-3.393681776904">
        <ele>2350.8</ele>
        <time>2019-01-07T15:22:02Z</time>
      </trkpt>
      <trkpt lat="37.082187518643" lon="-3.393686722225">
        <ele>2349</ele>
        <time>2019-01-07T15:22:03Z</time>
      </trkpt>
      <trkpt lat="37.08224225245" lon="-3.393674317013">
        <ele>2346.8</ele>
        <time>2019-01-07T15:22:04Z</time>
      </trkpt>
      <trkpt lat="37.082292795307" lon="-3.393683537103">
        <ele>2344.4</ele>
        <time>2019-01-07T15:22:05Z</time>
      </trkpt>
      <trkpt lat="37.082417098884" lon="-3.393741288394">
        <ele>2342.2</ele>
        <time>2019-01-07T15:22:06Z</time>
      </trkpt>
      <trkpt lat="37.082480633686" lon="-3.393765512085">
        <ele>2340.6</ele>
        <time>2019-01-07T15:22:07Z</time>
      </trkpt>
      <trkpt lat="37.082550035818" lon="-3.393812115449">
        <ele>2338.6</ele>
        <time>2019-01-07T15:22:08Z</time>
      </trkpt>
      <trkpt lat="37.082631759343" lon="-3.393847319429">
        <ele>2336.4</ele>
        <time>2019-01-07T15:22:09Z</time>
      </trkpt>
      <trkpt lat="37.082712057945" lon="-3.393883696875">
        <ele>2333.8</ele>
        <time>2019-01-07T15:22:10Z</time>
      </trkpt>
      <trkpt lat="37.082712057945" lon="-3.393883696875">
        <ele>2331.4</ele>
        <time>2019-01-07T15:22:11Z</time>
      </trkpt>
      <trkpt lat="37.082856813358" lon="-3.393991320471">
        <ele>2329</ele>
        <time>2019-01-07T15:22:12Z</time>
      </trkpt>
      <trkpt lat="37.082931076992" lon="-3.394058208033">
        <ele>2326.8</ele>
        <time>2019-01-07T15:22:13Z</time>
      </trkpt>
      <trkpt lat="37.083014057802" lon="-3.394125347052">
        <ele>2325.2</ele>
        <time>2019-01-07T15:22:14Z</time>
      </trkpt>
      <trkpt lat="37.083102989761" lon="-3.394194497727">
        <ele>2323.8</ele>
        <time>2019-01-07T15:22:15Z</time>
      </trkpt>
      <trkpt lat="37.083199800706" lon="-3.394253338665">
        <ele>2322.2</ele>
        <time>2019-01-07T15:22:16Z</time>
      </trkpt>
      <trkpt lat="37.083303903904" lon="-3.394295164346">
        <ele>2320.6</ele>
        <time>2019-01-07T15:22:17Z</time>
      </trkpt>
      <trkpt lat="37.083408510016" lon="-3.394344198461">
        <ele>2318.6</ele>
        <time>2019-01-07T15:22:18Z</time>
      </trkpt>
      <trkpt lat="37.083408510016" lon="-3.394344198461">
        <ele>2316.6</ele>
        <time>2019-01-07T15:22:19Z</time>
      </trkpt>
      <trkpt lat="37.083588888504" lon="-3.394502281095">
        <ele>2314.6</ele>
        <time>2019-01-07T15:22:20Z</time>
      </trkpt>
      <trkpt lat="37.083656027523" lon="-3.394611329614">
        <ele>2313</ele>
        <time>2019-01-07T15:22:21Z</time>
      </trkpt>
      <trkpt lat="37.083656027523" lon="-3.394611329614">
        <ele>2311.2</ele>
        <time>2019-01-07T15:22:22Z</time>
      </trkpt>
      <trkpt lat="37.083833556165" lon="-3.394799000355">
        <ele>2309.6</ele>
        <time>2019-01-07T15:22:23Z</time>
      </trkpt>
      <trkpt lat="37.083946711815" lon="-3.394861110234">
        <ele>2307.6</ele>
        <time>2019-01-07T15:22:24Z</time>
      </trkpt>
      <trkpt lat="37.084059029275" lon="-3.394927830158">
        <ele>2304.8</ele>
        <time>2019-01-07T15:22:25Z</time>
      </trkpt>
      <trkpt lat="37.084154918211" lon="-3.395021204524">
        <ele>2301.8</ele>
        <time>2019-01-07T15:22:26Z</time>
      </trkpt>
      <trkpt lat="37.084235635908" lon="-3.395145927196">
        <ele>2299</ele>
        <time>2019-01-07T15:22:27Z</time>
      </trkpt>
      <trkpt lat="37.084235635908" lon="-3.395145927196">
        <ele>2296.8</ele>
        <time>2019-01-07T15:22:28Z</time>
      </trkpt>
      <trkpt lat="37.084423809563" lon="-3.395324796942">
        <ele>2295.2</ele>
        <time>2019-01-07T15:22:29Z</time>
      </trkpt>
      <trkpt lat="37.08451877649" lon="-3.395400820775">
        <ele>2292.8</ele>
        <time>2019-01-07T15:22:30Z</time>
      </trkpt>
      <trkpt lat="37.08451877649" lon="-3.395400820775">
        <ele>2290</ele>
        <time>2019-01-07T15:22:31Z</time>
      </trkpt>
      <trkpt lat="37.084594297409" lon="-3.395491261476">
        <ele>2286.8</ele>
        <time>2019-01-07T15:22:32Z</time>
      </trkpt>
      <trkpt lat="37.084633021787" lon="-3.395609446266">
        <ele>2284.2</ele>
        <time>2019-01-07T15:22:33Z</time>
      </trkpt>
      <trkpt lat="37.084698400607" lon="-3.395724362115">
        <ele>2282.2</ele>
        <time>2019-01-07T15:22:34Z</time>
      </trkpt>
      <trkpt lat="37.08477442444" lon="-3.395798122835">
        <ele>2280</ele>
        <time>2019-01-07T15:22:35Z</time>
      </trkpt>
      <trkpt lat="37.084864781322" lon="-3.395847073131">
        <ele>2277.8</ele>
        <time>2019-01-07T15:22:36Z</time>
      </trkpt>
      <trkpt lat="37.085048009656" lon="-3.395999791349">
        <ele>2275</ele>
        <time>2019-01-07T15:22:37Z</time>
      </trkpt>
      <trkpt lat="37.085144317687" lon="-3.396072965336">
        <ele>2272.8</ele>
        <time>2019-01-07T15:22:38Z</time>
      </trkpt>
      <trkpt lat="37.085144317687" lon="-3.396072965336">
        <ele>2271.4</ele>
        <time>2019-01-07T15:22:39Z</time>
      </trkpt>
      <trkpt lat="37.085326624012" lon="-3.396204561166">
        <ele>2269.4</ele>
        <time>2019-01-07T15:22:40Z</time>
      </trkpt>
      <trkpt lat="37.085326624012" lon="-3.396204561166">
        <ele>2267</ele>
        <time>2019-01-07T15:22:41Z</time>
      </trkpt>
      <trkpt lat="37.085451262865" lon="-3.396377563582">
        <ele>2264.4</ele>
        <time>2019-01-07T15:22:42Z</time>
      </trkpt>
      <trkpt lat="37.085498872057" lon="-3.396478230201">
        <ele>2262.6</ele>
        <time>2019-01-07T15:22:43Z</time>
      </trkpt>
      <trkpt lat="37.085569782931" lon="-3.396527180497">
        <ele>2261</ele>
        <time>2019-01-07T15:22:44Z</time>
      </trkpt>
      <trkpt lat="37.085645890583" lon="-3.396577555716">
        <ele>2259</ele>
        <time>2019-01-07T15:22:45Z</time>
      </trkpt>
      <trkpt lat="37.085718896932" lon="-3.39664343745">
        <ele>2257</ele>
        <time>2019-01-07T15:22:46Z</time>
      </trkpt>
      <trkpt lat="37.085796429507" lon="-3.396679647258">
        <ele>2255.6</ele>
        <time>2019-01-07T15:22:47Z</time>
      </trkpt>
      <trkpt lat="37.085796429507" lon="-3.396679647258">
        <ele>2253.8</ele>
        <time>2019-01-07T15:22:48Z</time>
      </trkpt>
      <trkpt lat="37.085947638983" lon="-3.396747205372">
        <ele>2252</ele>
        <time>2019-01-07T15:22:49Z</time>
      </trkpt>
      <trkpt lat="37.086014526545" lon="-3.396804956663">
        <ele>2250.2</ele>
        <time>2019-01-07T15:22:50Z</time>
      </trkpt>
      <trkpt lat="37.086080408279" lon="-3.39684627943">
        <ele>2248.8</ele>
        <time>2019-01-07T15:22:51Z</time>
      </trkpt>
      <trkpt lat="37.086144194538" lon="-3.396880058487">
        <ele>2247.6</ele>
        <time>2019-01-07T15:22:52Z</time>
      </trkpt>
      <trkpt lat="37.086144194538" lon="-3.396880058487">
        <ele>2246.2</ele>
        <time>2019-01-07T15:22:53Z</time>
      </trkpt>
      <trkpt lat="37.086269671581" lon="-3.396920375426">
        <ele>2244.6</ele>
        <time>2019-01-07T15:22:54Z</time>
      </trkpt>
      <trkpt lat="37.086338235523" lon="-3.396942419823">
        <ele>2243.2</ele>
        <time>2019-01-07T15:22:55Z</time>
      </trkpt>
      <trkpt lat="37.086417193021" lon="-3.396964631858">
        <ele>2241.8</ele>
        <time>2019-01-07T15:22:56Z</time>
      </trkpt>
      <trkpt lat="37.086496988709" lon="-3.396987598264">
        <ele>2240.6</ele>
        <time>2019-01-07T15:22:57Z</time>
      </trkpt>
      <trkpt lat="37.086496988709" lon="-3.396987598264">
        <ele>2239.2</ele>
        <time>2019-01-07T15:22:58Z</time>
      </trkpt>
      <trkpt lat="37.086648198185" lon="-3.397097065878">
        <ele>2237.4</ele>
        <time>2019-01-07T15:22:59Z</time>
      </trkpt>
      <trkpt lat="37.086734196479" lon="-3.397153727522">
        <ele>2235.2</ele>
        <time>2019-01-07T15:23:00Z</time>
      </trkpt>
      <trkpt lat="37.086823463714" lon="-3.397200330886">
        <ele>2232.8</ele>
        <time>2019-01-07T15:23:01Z</time>
      </trkpt>
      <trkpt lat="37.086823463714" lon="-3.397200330886">
        <ele>2230.2</ele>
        <time>2019-01-07T15:23:02Z</time>
      </trkpt>
      <trkpt lat="37.086997220501" lon="-3.397345673032">
        <ele>2227.8</ele>
        <time>2019-01-07T15:23:03Z</time>
      </trkpt>
      <trkpt lat="37.08709788712" lon="-3.397393868957">
        <ele>2226</ele>
        <time>2019-01-07T15:23:04Z</time>
      </trkpt>
      <trkpt lat="37.08709788712" lon="-3.397393868957">
        <ele>2224.2</ele>
        <time>2019-01-07T15:23:05Z</time>
      </trkpt>
      <trkpt lat="37.087304333317" lon="-3.397467964953">
        <ele>2222</ele>
        <time>2019-01-07T15:23:06Z</time>
      </trkpt>
      <trkpt lat="37.087304333317" lon="-3.397467964953">
        <ele>2219.4</ele>
        <time>2019-01-07T15:23:07Z</time>
      </trkpt>
      <trkpt lat="37.087404245565" lon="-3.397535858343">
        <ele>2217.2</ele>
        <time>2019-01-07T15:23:08Z</time>
      </trkpt>
      <trkpt lat="37.087576242153" lon="-3.39773140807">
        <ele>2215.6</ele>
        <time>2019-01-07T15:23:09Z</time>
      </trkpt>
      <trkpt lat="37.087576242153" lon="-3.39773140807">
        <ele>2214</ele>
        <time>2019-01-07T15:23:10Z</time>
      </trkpt>
      <trkpt lat="37.087776066649" lon="-3.397802151306">
        <ele>2212.2</ele>
        <time>2019-01-07T15:23:11Z</time>
      </trkpt>
      <trkpt lat="37.087776066649" lon="-3.397802151306">
        <ele>2210</ele>
        <time>2019-01-07T15:23:12Z</time>
      </trkpt>
      <trkpt lat="37.087874637793" lon="-3.397827297006">
        <ele>2207.6</ele>
        <time>2019-01-07T15:23:13Z</time>
      </trkpt>
      <trkpt lat="37.087971951652" lon="-3.397864345004">
        <ele>2204.8</ele>
        <time>2019-01-07T15:23:14Z</time>
      </trkpt>
      <trkpt lat="37.088167920474" lon="-3.397907595608">
        <ele>2202.6</ele>
        <time>2019-01-07T15:23:15Z</time>
      </trkpt>
      <trkpt lat="37.088265234333" lon="-3.397919833182">
        <ele>2201</ele>
        <time>2019-01-07T15:23:16Z</time>
      </trkpt>
      <trkpt lat="37.088265234333" lon="-3.397919833182">
        <ele>2199.8</ele>
        <time>2019-01-07T15:23:17Z</time>
      </trkpt>
      <trkpt lat="37.088359614527" lon="-3.397928885634">
        <ele>2198.4</ele>
        <time>2019-01-07T15:23:18Z</time>
      </trkpt>
      <trkpt lat="37.088455335825" lon="-3.397950091841">
        <ele>2197</ele>
        <time>2019-01-07T15:23:19Z</time>
      </trkpt>
      <trkpt lat="37.088550638028" lon="-3.397970878953">
        <ele>2195.6</ele>
        <time>2019-01-07T15:23:20Z</time>
      </trkpt>
      <trkpt lat="37.088645688774" lon="-3.397976243369">
        <ele>2194.4</ele>
        <time>2019-01-07T15:23:21Z</time>
      </trkpt>
      <trkpt lat="37.088738308769" lon="-3.397988648581">
        <ele>2193.4</ele>
        <time>2019-01-07T15:23:22Z</time>
      </trkpt>
      <trkpt lat="37.088832856601" lon="-3.39800381982">
        <ele>2192</ele>
        <time>2019-01-07T15:23:23Z</time>
      </trkpt>
      <trkpt lat="37.088929080813" lon="-3.398000802336">
        <ele>2191</ele>
        <time>2019-01-07T15:23:24Z</time>
      </trkpt>
      <trkpt lat="37.089026813767" lon="-3.397992755712">
        <ele>2189.8</ele>
        <time>2019-01-07T15:23:25Z</time>
      </trkpt>
      <trkpt lat="37.089123205617" lon="-3.397991330789">
        <ele>2188.6</ele>
        <time>2019-01-07T15:23:26Z</time>
      </trkpt>
      <trkpt lat="37.089215490336" lon="-3.397992671893">
        <ele>2187.4</ele>
        <time>2019-01-07T15:23:27Z</time>
      </trkpt>
      <trkpt lat="37.08930903234" lon="-3.3979971143">
        <ele>2186.4</ele>
        <time>2019-01-07T15:23:28Z</time>
      </trkpt>
      <trkpt lat="37.089496283986" lon="-3.398003987458">
        <ele>2185.6</ele>
        <time>2019-01-07T15:23:29Z</time>
      </trkpt>
      <trkpt lat="37.08959066418" lon="-3.39801471629">
        <ele>2184.4</ele>
        <time>2019-01-07T15:23:31Z</time>
      </trkpt>
      <trkpt lat="37.089859136437" lon="-3.398073976323">
        <ele>2182.4</ele>
        <time>2019-01-07T15:23:33Z</time>
      </trkpt>
      <trkpt lat="37.089859136437" lon="-3.398073976323">
        <ele>2181.4</ele>
        <time>2019-01-07T15:23:34Z</time>
      </trkpt>
      <trkpt lat="37.090026187704" lon="-3.398120663506">
        <ele>2179.8</ele>
        <time>2019-01-07T15:23:36Z</time>
      </trkpt>
      <trkpt lat="37.090184773252" lon="-3.398168356517">
        <ele>2178.2</ele>
        <time>2019-01-07T15:23:38Z</time>
      </trkpt>
      <trkpt lat="37.090341347144" lon="-3.398208254361">
        <ele>2177</ele>
        <time>2019-01-07T15:23:40Z</time>
      </trkpt>
      <trkpt lat="37.090566484978" lon="-3.398285367841">
        <ele>2175.2</ele>
        <time>2019-01-07T15:23:42Z</time>
      </trkpt>
      <trkpt lat="37.090706546527" lon="-3.398323421667">
        <ele>2173.6</ele>
        <time>2019-01-07T15:23:44Z</time>
      </trkpt>
      <trkpt lat="37.090843255316" lon="-3.398364576796">
        <ele>2172.8</ele>
        <time>2019-01-07T15:23:46Z</time>
      </trkpt>
      <trkpt lat="37.090843255316" lon="-3.398364576796">
        <ele>2172.2</ele>
        <time>2019-01-07T15:23:47Z</time>
      </trkpt>
      <trkpt lat="37.090965547237" lon="-3.398434817118">
        <ele>2171.8</ele>
        <time>2019-01-07T15:23:48Z</time>
      </trkpt>
      <trkpt lat="37.091021789786" lon="-3.398473290039">
        <ele>2171.2</ele>
        <time>2019-01-07T15:23:49Z</time>
      </trkpt>
      <trkpt lat="37.091111727573" lon="-3.39854948151">
        <ele>2169.8</ele>
        <time>2019-01-07T15:23:51Z</time>
      </trkpt>
      <trkpt lat="37.0911312574" lon="-3.39860731662">
        <ele>2168.8</ele>
        <time>2019-01-07T15:23:53Z</time>
      </trkpt>
      <trkpt lat="37.091150703408" lon="-3.398665654644">
        <ele>2168.4</ele>
        <time>2019-01-07T15:23:54Z</time>
      </trkpt>
      <trkpt lat="37.091274839347" lon="-3.398798088664">
        <ele>2167.6</ele>
        <time>2019-01-07T15:23:56Z</time>
      </trkpt>
      <trkpt lat="37.091329321697" lon="-3.398853325385">
        <ele>2167.2</ele>
        <time>2019-01-07T15:23:57Z</time>
      </trkpt>
      <trkpt lat="37.091379529278" lon="-3.398924068621">
        <ele>2165.8</ele>
        <time>2019-01-07T15:23:59Z</time>
      </trkpt>
      <trkpt lat="37.091489583625" lon="-3.399089108232">
        <ele>2164.8</ele>
        <time>2019-01-07T15:24:00Z</time>
      </trkpt>
      <trkpt lat="37.091489583625" lon="-3.399089108232">
        <ele>2163.6</ele>
        <time>2019-01-07T15:24:01Z</time>
      </trkpt>
      <trkpt lat="37.091646911888" lon="-3.399193965801">
        <ele>2162.6</ele>
        <time>2019-01-07T15:24:02Z</time>
      </trkpt>
      <trkpt lat="37.091726875214" lon="-3.399238389871">
        <ele>2161.4</ele>
        <time>2019-01-07T15:24:03Z</time>
      </trkpt>
      <trkpt lat="37.091796528803" lon="-3.399304942157">
        <ele>2160</ele>
        <time>2019-01-07T15:24:04Z</time>
      </trkpt>
      <trkpt lat="37.091796528803" lon="-3.399304942157">
        <ele>2158.6</ele>
        <time>2019-01-07T15:24:05Z</time>
      </trkpt>
      <trkpt lat="37.091939943112" lon="-3.399397813609">
        <ele>2157.2</ele>
        <time>2019-01-07T15:24:06Z</time>
      </trkpt>
      <trkpt lat="37.092006243941" lon="-3.399404938224">
        <ele>2155.6</ele>
        <time>2019-01-07T15:24:07Z</time>
      </trkpt>
      <trkpt lat="37.092068689096" lon="-3.399421953481">
        <ele>2153.8</ele>
        <time>2019-01-07T15:24:08Z</time>
      </trkpt>
      <trkpt lat="37.09212535074" lon="-3.399456067814">
        <ele>2152</ele>
        <time>2019-01-07T15:24:09Z</time>
      </trkpt>
      <trkpt lat="37.09212535074" lon="-3.399456067814">
        <ele>2150.6</ele>
        <time>2019-01-07T15:24:10Z</time>
      </trkpt>
      <trkpt lat="37.092206738989" lon="-3.399523123014">
        <ele>2149.4</ele>
        <time>2019-01-07T15:24:11Z</time>
      </trkpt>
      <trkpt lat="37.092206738989" lon="-3.399523123014">
        <ele>2148.4</ele>
        <time>2019-01-07T15:24:12Z</time>
      </trkpt>
      <trkpt lat="37.092191819207" lon="-3.39959889539">
        <ele>2147.6</ele>
        <time>2019-01-07T15:24:13Z</time>
      </trkpt>
      <trkpt lat="37.092144796748" lon="-3.399623705814">
        <ele>2146.8</ele>
        <time>2019-01-07T15:24:14Z</time>
      </trkpt>
      <trkpt lat="37.092067431811" lon="-3.399669219531">
        <ele>2145.4</ele>
        <time>2019-01-07T15:24:17Z</time>
      </trkpt>
      <trkpt lat="37.092026109044" lon="-3.399666285866">
        <ele>2144.4</ele>
        <time>2019-01-07T15:24:23Z</time>
      </trkpt>
      <trkpt lat="37.092021498999" lon="-3.399665447676">
        <ele>2144.4</ele>
        <time>2019-01-07T15:24:24Z</time>
      </trkpt>
      <trkpt lat="37.092013620013" lon="-3.399670225359">
        <ele>2144.4</ele>
        <time>2019-01-07T15:24:25Z</time>
      </trkpt>
      <trkpt lat="37.091794936242" lon="-3.399716577266">
        <ele>2143.4</ele>
        <time>2019-01-07T15:24:56Z</time>
      </trkpt>
      <trkpt lat="37.091583460905" lon="-3.399872815882">
        <ele>2143.4</ele>
        <time>2019-01-07T15:25:02Z</time>
      </trkpt>
      <trkpt lat="37.091400567847" lon="-3.400024192996">
        <ele>2142.4</ele>
        <time>2019-01-07T15:25:08Z</time>
      </trkpt>
      <trkpt lat="37.091307864033" lon="-3.400088733626">
        <ele>2141</ele>
        <time>2019-01-07T15:25:11Z</time>
      </trkpt>
      <trkpt lat="37.091224715585" lon="-3.400152436066">
        <ele>2139.6</ele>
        <time>2019-01-07T15:25:14Z</time>
      </trkpt>
      <trkpt lat="37.091032267161" lon="-3.400268106286">
        <ele>2139.6</ele>
        <time>2019-01-07T15:25:20Z</time>
      </trkpt>
      <trkpt lat="37.091002259959" lon="-3.400285540638">
        <ele>2140.6</ele>
        <time>2019-01-07T15:25:22Z</time>
      </trkpt>
      <trkpt lat="37.090876196183" lon="-3.400361313014">
        <ele>2142</ele>
        <time>2019-01-07T15:25:25Z</time>
      </trkpt>
      <trkpt lat="37.090844512601" lon="-3.400382183945">
        <ele>2143.2</ele>
        <time>2019-01-07T15:25:27Z</time>
      </trkpt>
      <trkpt lat="37.090752646977" lon="-3.400445886385">
        <ele>2144.4</ele>
        <time>2019-01-07T15:25:29Z</time>
      </trkpt>
      <trkpt lat="37.090721633947" lon="-3.400470277714">
        <ele>2145.4</ele>
        <time>2019-01-07T15:25:31Z</time>
      </trkpt>
      <trkpt lat="37.090660110801" lon="-3.400520233838">
        <ele>2146.6</ele>
        <time>2019-01-07T15:25:33Z</time>
      </trkpt>
      <trkpt lat="37.090596827456" lon="-3.4005619757">
        <ele>2147.6</ele>
        <time>2019-01-07T15:25:35Z</time>
      </trkpt>
      <trkpt lat="37.090534801396" lon="-3.400603214648">
        <ele>2148.8</ele>
        <time>2019-01-07T15:25:37Z</time>
      </trkpt>
      <trkpt lat="37.085937161608" lon="-3.403530174128">
        <ele>2322.8</ele>
        <time>2019-01-07T15:28:13Z</time>
      </trkpt>
      <trkpt lat="37.084829074428" lon="-3.404224279267">
        <ele>2324.6</ele>
        <time>2019-01-07T15:29:04Z</time>
      </trkpt>
      <trkpt lat="37.083086980332" lon="-3.405567562561">
        <ele>2380</ele>
        <time>2019-01-07T15:30:13Z</time>
      </trkpt>
      <trkpt lat="37.083102067752" lon="-3.405730674335">
        <ele>2379.6</ele>
        <time>2019-01-07T15:30:19Z</time>
      </trkpt>
      <trkpt lat="37.083200555077" lon="-3.405909376443">
        <ele>2379</ele>
        <time>2019-01-07T15:30:25Z</time>
      </trkpt>
      <trkpt lat="37.083025038091" lon="-3.40555591172">
        <ele>2382</ele>
        <time>2019-01-07T15:31:41Z</time>
      </trkpt>
      <trkpt lat="37.072922501659" lon="-3.397824195703">
        <ele>2695</ele>
        <time>2019-01-07T15:37:13Z</time>
      </trkpt>
      <trkpt lat="37.071677873328" lon="-3.396869329655">
        <ele>2697</ele>
        <time>2019-01-07T15:37:52Z</time>
      </trkpt>
      <trkpt lat="37.067449372416" lon="-3.393461919667">
        <ele>2819.4</ele>
        <time>2019-01-07T15:40:33Z</time>
      </trkpt>
      <trkpt lat="37.06753537071" lon="-3.393542721183">
        <ele>2818.4</ele>
        <time>2019-01-07T15:40:36Z</time>
      </trkpt>
      <trkpt lat="37.067564874998" lon="-3.393577673706">
        <ele>2818</ele>
        <time>2019-01-07T15:40:37Z</time>
      </trkpt>
      <trkpt lat="37.06770803785" lon="-3.393756459633">
        <ele>2817.2</ele>
        <time>2019-01-07T15:40:42Z</time>
      </trkpt>
      <trkpt lat="37.067792778859" lon="-3.39389501244">
        <ele>2816.8</ele>
        <time>2019-01-07T15:40:44Z</time>
      </trkpt>
      <trkpt lat="37.067935690254" lon="-3.394150744209">
        <ele>2816.2</ele>
        <time>2019-01-07T15:40:49Z</time>
      </trkpt>
      <trkpt lat="37.068048259171" lon="-3.394315448544">
        <ele>2815</ele>
        <time>2019-01-07T15:40:52Z</time>
      </trkpt>
      <trkpt lat="37.068173065662" lon="-3.394510495357">
        <ele>2813.4</ele>
        <time>2019-01-07T15:40:55Z</time>
      </trkpt>
      <trkpt lat="37.068264009277" lon="-3.394653071476">
        <ele>2812.4</ele>
        <time>2019-01-07T15:40:57Z</time>
      </trkpt>
      <trkpt lat="37.068351181037" lon="-3.394810651196">
        <ele>2811.4</ele>
        <time>2019-01-07T15:40:59Z</time>
      </trkpt>
      <trkpt lat="37.068351181037" lon="-3.394810651196">
        <ele>2811</ele>
        <time>2019-01-07T15:41:00Z</time>
      </trkpt>
      <trkpt lat="37.068380350049" lon="-3.394901427173">
        <ele>2810.4</ele>
        <time>2019-01-07T15:41:01Z</time>
      </trkpt>
      <trkpt lat="37.068396527116" lon="-3.394991784055">
        <ele>2809.8</ele>
        <time>2019-01-07T15:41:02Z</time>
      </trkpt>
      <trkpt lat="37.06838948632" lon="-3.395188674886">
        <ele>2808.8</ele>
        <time>2019-01-07T15:41:07Z</time>
      </trkpt>
      <trkpt lat="37.068375488547" lon="-3.395198649347">
        <ele>2809</ele>
        <time>2019-01-07T15:41:10Z</time>
      </trkpt>
      <trkpt lat="37.068412704183" lon="-3.395316750318">
        <ele>2806.6</ele>
        <time>2019-01-07T15:41:56Z</time>
      </trkpt>
      <trkpt lat="37.068398622591" lon="-3.395487489621">
        <ele>2805.4</ele>
        <time>2019-01-07T15:42:00Z</time>
      </trkpt>
      <trkpt lat="37.068343134413" lon="-3.395566447119">
        <ele>2804</ele>
        <time>2019-01-07T15:42:03Z</time>
      </trkpt>
      <trkpt lat="37.068331986486" lon="-3.395592431009">
        <ele>2803.2</ele>
        <time>2019-01-07T15:42:05Z</time>
      </trkpt>
      <trkpt lat="37.068653180894" lon="-3.395682368796">
        <ele>2801.4</ele>
        <time>2019-01-07T15:42:54Z</time>
      </trkpt>
      <trkpt lat="37.0687348206" lon="-3.395773899144">
        <ele>2799.8</ele>
        <time>2019-01-07T15:42:56Z</time>
      </trkpt>
      <trkpt lat="37.068784441448" lon="-3.395817065929">
        <ele>2798.8</ele>
        <time>2019-01-07T15:42:57Z</time>
      </trkpt>
      <trkpt lat="37.068832972649" lon="-3.395865261854">
        <ele>2797.8</ele>
        <time>2019-01-07T15:42:58Z</time>
      </trkpt>
      <trkpt lat="37.068885946257" lon="-3.395916978177">
        <ele>2796.6</ele>
        <time>2019-01-07T15:42:59Z</time>
      </trkpt>
      <trkpt lat="37.068931459974" lon="-3.395972131079">
        <ele>2795</ele>
        <time>2019-01-07T15:43:00Z</time>
      </trkpt>
      <trkpt lat="37.068972782741" lon="-3.396046143256">
        <ele>2793.4</ele>
        <time>2019-01-07T15:43:01Z</time>
      </trkpt>
      <trkpt lat="37.069022235951" lon="-3.396102134348">
        <ele>2792</ele>
        <time>2019-01-07T15:43:02Z</time>
      </trkpt>
      <trkpt lat="37.06908015488" lon="-3.396156868155">
        <ele>2790.8</ele>
        <time>2019-01-07T15:43:03Z</time>
      </trkpt>
      <trkpt lat="37.069136565067" lon="-3.396208919754">
        <ele>2789.4</ele>
        <time>2019-01-07T15:43:04Z</time>
      </trkpt>
      <trkpt lat="37.069189035761" lon="-3.396267760692">
        <ele>2788</ele>
        <time>2019-01-07T15:43:05Z</time>
      </trkpt>
      <trkpt lat="37.069239746256" lon="-3.396334229159">
        <ele>2786.6</ele>
        <time>2019-01-07T15:43:06Z</time>
      </trkpt>
      <trkpt lat="37.069290037656" lon="-3.396405223852">
        <ele>2785.2</ele>
        <time>2019-01-07T15:43:07Z</time>
      </trkpt>
      <trkpt lat="37.069341502522" lon="-3.396489797223">
        <ele>2783.8</ele>
        <time>2019-01-07T15:43:08Z</time>
      </trkpt>
      <trkpt lat="37.069394643768" lon="-3.396564228495">
        <ele>2782.4</ele>
        <time>2019-01-07T15:43:09Z</time>
      </trkpt>
      <trkpt lat="37.069448874661" lon="-3.396644191821">
        <ele>2781.2</ele>
        <time>2019-01-07T15:43:10Z</time>
      </trkpt>
      <trkpt lat="37.069506039219" lon="-3.396719377464">
        <ele>2780.2</ele>
        <time>2019-01-07T15:43:11Z</time>
      </trkpt>
      <trkpt lat="37.069560018655" lon="-3.396797580591">
        <ele>2779</ele>
        <time>2019-01-07T15:43:12Z</time>
      </trkpt>
      <trkpt lat="37.069611651159" lon="-3.396881734867">
        <ele>2777.8</ele>
        <time>2019-01-07T15:43:13Z</time>
      </trkpt>
      <trkpt lat="37.069665127681" lon="-3.396968152256">
        <ele>2776</ele>
        <time>2019-01-07T15:43:14Z</time>
      </trkpt>
      <trkpt lat="37.06971801747" lon="-3.397071836359">
        <ele>2774.4</ele>
        <time>2019-01-07T15:43:15Z</time>
      </trkpt>
      <trkpt lat="37.069778786245" lon="-3.397153643703">
        <ele>2772.8</ele>
        <time>2019-01-07T15:43:16Z</time>
      </trkpt>
      <trkpt lat="37.069848942748" lon="-3.397234445219">
        <ele>2771.6</ele>
        <time>2019-01-07T15:43:17Z</time>
      </trkpt>
      <trkpt lat="37.069926223866" lon="-3.397309630862">
        <ele>2770.6</ele>
        <time>2019-01-07T15:43:18Z</time>
      </trkpt>
      <trkpt lat="37.070004510812" lon="-3.397377188976">
        <ele>2768.8</ele>
        <time>2019-01-07T15:43:19Z</time>
      </trkpt>
      <trkpt lat="37.070079109722" lon="-3.397451955524">
        <ele>2767</ele>
        <time>2019-01-07T15:43:20Z</time>
      </trkpt>
      <trkpt lat="37.07014884713" lon="-3.397527644081">
        <ele>2764.8</ele>
        <time>2019-01-07T15:43:21Z</time>
      </trkpt>
      <trkpt lat="37.070208023344" lon="-3.397610541072">
        <ele>2763.2</ele>
        <time>2019-01-07T15:43:22Z</time>
      </trkpt>
      <trkpt lat="37.070262086599" lon="-3.397713973718">
        <ele>2761.4</ele>
        <time>2019-01-07T15:43:23Z</time>
      </trkpt>
      <trkpt lat="37.070322268641" lon="-3.397799133822">
        <ele>2760</ele>
        <time>2019-01-07T15:43:24Z</time>
      </trkpt>
      <trkpt lat="37.070378595009" lon="-3.397879264786">
        <ele>2758.4</ele>
        <time>2019-01-07T15:43:25Z</time>
      </trkpt>
      <trkpt lat="37.070431820074" lon="-3.397962999967">
        <ele>2757.2</ele>
        <time>2019-01-07T15:43:26Z</time>
      </trkpt>
      <trkpt lat="37.07048579951" lon="-3.398036928325">
        <ele>2756</ele>
        <time>2019-01-07T15:43:27Z</time>
      </trkpt>
      <trkpt lat="37.070538437842" lon="-3.398099457299">
        <ele>2754.8</ele>
        <time>2019-01-07T15:43:28Z</time>
      </trkpt>
      <trkpt lat="37.070575904935" lon="-3.398163662653">
        <ele>2753.6</ele>
        <time>2019-01-07T15:43:29Z</time>
      </trkpt>
      <trkpt lat="37.070588561604" lon="-3.398236333726">
        <ele>2752.2</ele>
        <time>2019-01-07T15:43:30Z</time>
      </trkpt>
      <trkpt lat="37.070602727015" lon="-3.398303975659">
        <ele>2751</ele>
        <time>2019-01-07T15:43:31Z</time>
      </trkpt>
      <trkpt lat="37.070671542414" lon="-3.398402211527">
        <ele>2749.4</ele>
        <time>2019-01-07T15:43:33Z</time>
      </trkpt>
      <trkpt lat="37.070719486882" lon="-3.398519055213">
        <ele>2748.6</ele>
        <time>2019-01-07T15:43:34Z</time>
      </trkpt>
      <trkpt lat="37.070719486882" lon="-3.398519055213">
        <ele>2747.8</ele>
        <time>2019-01-07T15:43:35Z</time>
      </trkpt>
      <trkpt lat="37.070777908725" lon="-3.398648555568">
        <ele>2747</ele>
        <time>2019-01-07T15:43:36Z</time>
      </trkpt>
      <trkpt lat="37.070777908725" lon="-3.398648555568">
        <ele>2746</ele>
        <time>2019-01-07T15:43:37Z</time>
      </trkpt>
      <trkpt lat="37.070803557339" lon="-3.398716448958">
        <ele>2745</ele>
        <time>2019-01-07T15:43:38Z</time>
      </trkpt>
      <trkpt lat="37.070815794913" lon="-3.398786186366">
        <ele>2743.8</ele>
        <time>2019-01-07T15:43:39Z</time>
      </trkpt>
      <trkpt lat="37.070828535401" lon="-3.398859779448">
        <ele>2742.4</ele>
        <time>2019-01-07T15:43:40Z</time>
      </trkpt>
      <trkpt lat="37.070845802115" lon="-3.398933456349">
        <ele>2741.2</ele>
        <time>2019-01-07T15:43:41Z</time>
      </trkpt>
      <trkpt lat="37.070851585626" lon="-3.399005373051">
        <ele>2740</ele>
        <time>2019-01-07T15:43:42Z</time>
      </trkpt>
      <trkpt lat="37.070841527346" lon="-3.399066980016">
        <ele>2739</ele>
        <time>2019-01-07T15:43:43Z</time>
      </trkpt>
      <trkpt lat="37.070839767147" lon="-3.399124060755">
        <ele>2738.2</ele>
        <time>2019-01-07T15:43:44Z</time>
      </trkpt>
      <trkpt lat="37.070855944214" lon="-3.399180470942">
        <ele>2737.4</ele>
        <time>2019-01-07T15:43:45Z</time>
      </trkpt>
      <trkpt lat="37.070875054946" lon="-3.399327238011">
        <ele>2736.6</ele>
        <time>2019-01-07T15:43:46Z</time>
      </trkpt>
      <trkpt lat="37.070875054946" lon="-3.399327238011">
        <ele>2735.4</ele>
        <time>2019-01-07T15:43:47Z</time>
      </trkpt>
      <trkpt lat="37.07089483623" lon="-3.39942706644">
        <ele>2734</ele>
        <time>2019-01-07T15:43:48Z</time>
      </trkpt>
      <trkpt lat="37.070944792354" lon="-3.399647175134">
        <ele>2731.8</ele>
        <time>2019-01-07T15:43:49Z</time>
      </trkpt>
      <trkpt lat="37.070944792354" lon="-3.399647175134">
        <ele>2729.4</ele>
        <time>2019-01-07T15:43:50Z</time>
      </trkpt>
      <trkpt lat="37.070965411828" lon="-3.399784805932">
        <ele>2726.8</ele>
        <time>2019-01-07T15:43:51Z</time>
      </trkpt>
      <trkpt lat="37.070998268876" lon="-3.399909780061">
        <ele>2724.2</ele>
        <time>2019-01-07T15:43:52Z</time>
      </trkpt>
      <trkpt lat="37.071031377381" lon="-3.400040370063">
        <ele>2721</ele>
        <time>2019-01-07T15:43:53Z</time>
      </trkpt>
      <trkpt lat="37.071056523081" lon="-3.400181605078">
        <ele>2718.2</ele>
        <time>2019-01-07T15:43:54Z</time>
      </trkpt>
      <trkpt lat="37.071085775912" lon="-3.400322588636">
        <ele>2715.6</ele>
        <time>2019-01-07T15:43:55Z</time>
      </trkpt>
      <trkpt lat="37.071102036798" lon="-3.400472121732">
        <ele>2713.4</ele>
        <time>2019-01-07T15:43:56Z</time>
      </trkpt>
      <trkpt lat="37.071131373448" lon="-3.400621990104">
        <ele>2711.6</ele>
        <time>2019-01-07T15:43:57Z</time>
      </trkpt>
      <trkpt lat="37.071192477499" lon="-3.400754591762">
        <ele>2709.4</ele>
        <time>2019-01-07T15:43:58Z</time>
      </trkpt>
      <trkpt lat="37.071259197423" lon="-3.400881661366">
        <ele>2707.4</ele>
        <time>2019-01-07T15:43:59Z</time>
      </trkpt>
      <trkpt lat="37.071306136063" lon="-3.401029015168">
        <ele>2705</ele>
        <time>2019-01-07T15:44:00Z</time>
      </trkpt>
      <trkpt lat="37.071345614812" lon="-3.401184164137">
        <ele>2703.2</ele>
        <time>2019-01-07T15:44:01Z</time>
      </trkpt>
      <trkpt lat="37.071418369704" lon="-3.401256248477">
        <ele>2701</ele>
        <time>2019-01-07T15:44:02Z</time>
      </trkpt>
      <trkpt lat="37.071552396285" lon="-3.401341911495">
        <ele>2698.6</ele>
        <time>2019-01-07T15:44:03Z</time>
      </trkpt>
      <trkpt lat="37.071552396285" lon="-3.401341911495">
        <ele>2696.4</ele>
        <time>2019-01-07T15:44:04Z</time>
      </trkpt>
      <trkpt lat="37.071617020734" lon="-3.401381976977">
        <ele>2695.2</ele>
        <time>2019-01-07T15:44:05Z</time>
      </trkpt>
      <trkpt lat="37.071672508912" lon="-3.401419779346">
        <ele>2694</ele>
        <time>2019-01-07T15:44:06Z</time>
      </trkpt>
      <trkpt lat="37.07170788053" lon="-3.40146638271">
        <ele>2693</ele>
        <time>2019-01-07T15:44:07Z</time>
      </trkpt>
      <trkpt lat="37.071728583823" lon="-3.401527822037">
        <ele>2691.8</ele>
        <time>2019-01-07T15:44:08Z</time>
      </trkpt>
      <trkpt lat="37.071762446699" lon="-3.40157870017">
        <ele>2690.8</ele>
        <time>2019-01-07T15:44:09Z</time>
      </trkpt>
      <trkpt lat="37.071813576289" lon="-3.401613485055">
        <ele>2689.6</ele>
        <time>2019-01-07T15:44:10Z</time>
      </trkpt>
      <trkpt lat="37.071851881572" lon="-3.401651957976">
        <ele>2688.6</ele>
        <time>2019-01-07T15:44:11Z</time>
      </trkpt>
      <trkpt lat="37.071895802728" lon="-3.401702500833">
        <ele>2687.4</ele>
        <time>2019-01-07T15:44:12Z</time>
      </trkpt>
      <trkpt lat="37.071945172119" lon="-3.401748517464">
        <ele>2686.2</ele>
        <time>2019-01-07T15:44:13Z</time>
      </trkpt>
      <trkpt lat="37.07199454151" lon="-3.401791265154">
        <ele>2684.8</ele>
        <time>2019-01-07T15:44:14Z</time>
      </trkpt>
      <trkpt lat="37.072060339425" lon="-3.401917161292">
        <ele>2683.4</ele>
        <time>2019-01-07T15:44:15Z</time>
      </trkpt>
      <trkpt lat="37.07210685897" lon="-3.401964099932">
        <ele>2681.6</ele>
        <time>2019-01-07T15:44:16Z</time>
      </trkpt>
      <trkpt lat="37.072158407655" lon="-3.401997208437">
        <ele>2680</ele>
        <time>2019-01-07T15:44:17Z</time>
      </trkpt>
      <trkpt lat="37.072212303272" lon="-3.402059653592">
        <ele>2678.2</ele>
        <time>2019-01-07T15:44:18Z</time>
      </trkpt>
      <trkpt lat="37.072279777567" lon="-3.402106927508">
        <ele>2676.4</ele>
        <time>2019-01-07T15:44:19Z</time>
      </trkpt>
      <trkpt lat="37.072342222722" lon="-3.402153111777">
        <ele>2674.8</ele>
        <time>2019-01-07T15:44:20Z</time>
      </trkpt>
      <trkpt lat="37.072388658448" lon="-3.402234583845">
        <ele>2672.8</ele>
        <time>2019-01-07T15:44:21Z</time>
      </trkpt>
      <trkpt lat="37.072430232672" lon="-3.402332149161">
        <ele>2670.4</ele>
        <time>2019-01-07T15:44:22Z</time>
      </trkpt>
      <trkpt lat="37.072476584579" lon="-3.402420662025">
        <ele>2667.8</ele>
        <time>2019-01-07T15:44:23Z</time>
      </trkpt>
      <trkpt lat="37.072521679201" lon="-3.402503642835">
        <ele>2665.2</ele>
        <time>2019-01-07T15:44:24Z</time>
      </trkpt>
      <trkpt lat="37.072569707488" lon="-3.402568854017">
        <ele>2662.8</ele>
        <time>2019-01-07T15:44:25Z</time>
      </trkpt>
      <trkpt lat="37.072569707488" lon="-3.402568854017">
        <ele>2660.8</ele>
        <time>2019-01-07T15:44:26Z</time>
      </trkpt>
      <trkpt lat="37.072673307772" lon="-3.402604896187">
        <ele>2659</ele>
        <time>2019-01-07T15:44:27Z</time>
      </trkpt>
      <trkpt lat="37.072707589743" lon="-3.40262476129">
        <ele>2657.4</ele>
        <time>2019-01-07T15:44:28Z</time>
      </trkpt>
      <trkpt lat="37.072707589743" lon="-3.40262476129">
        <ele>2656</ele>
        <time>2019-01-07T15:44:29Z</time>
      </trkpt>
      <trkpt lat="37.072752516727" lon="-3.402695755983">
        <ele>2654.4</ele>
        <time>2019-01-07T15:44:31Z</time>
      </trkpt>
      <trkpt lat="37.072771124545" lon="-3.402742359347">
        <ele>2653.8</ele>
        <time>2019-01-07T15:44:32Z</time>
      </trkpt>
      <trkpt lat="37.072771124545" lon="-3.402742359347">
        <ele>2653.2</ele>
        <time>2019-01-07T15:44:33Z</time>
      </trkpt>
      <trkpt lat="37.072799371548" lon="-3.402806480882">
        <ele>2652.4</ele>
        <time>2019-01-07T15:44:34Z</time>
      </trkpt>
      <trkpt lat="37.07285368626" lon="-3.402844786165">
        <ele>2650.6</ele>
        <time>2019-01-07T15:44:35Z</time>
      </trkpt>
      <trkpt lat="37.072963740607" lon="-3.402939501635">
        <ele>2648.4</ele>
        <time>2019-01-07T15:44:36Z</time>
      </trkpt>
      <trkpt lat="37.072963740607" lon="-3.402939501635">
        <ele>2646.2</ele>
        <time>2019-01-07T15:44:37Z</time>
      </trkpt>
      <trkpt lat="37.073106400545" lon="-3.403005048093">
        <ele>2643.8</ele>
        <time>2019-01-07T15:44:38Z</time>
      </trkpt>
      <trkpt lat="37.073106400545" lon="-3.403005048093">
        <ele>2640.8</ele>
        <time>2019-01-07T15:44:39Z</time>
      </trkpt>
      <trkpt lat="37.073177981971" lon="-3.403027176309">
        <ele>2637.8</ele>
        <time>2019-01-07T15:44:40Z</time>
      </trkpt>
      <trkpt lat="37.073240427126" lon="-3.40306732561">
        <ele>2634.8</ele>
        <time>2019-01-07T15:44:41Z</time>
      </trkpt>
      <trkpt lat="37.073297340227" lon="-3.403091549301">
        <ele>2632.6</ele>
        <time>2019-01-07T15:44:42Z</time>
      </trkpt>
      <trkpt lat="37.073340087917" lon="-3.403088196541">
        <ele>2630.8</ele>
        <time>2019-01-07T15:44:43Z</time>
      </trkpt>
      <trkpt lat="37.073367999644" lon="-3.403072019474">
        <ele>2629.4</ele>
        <time>2019-01-07T15:44:44Z</time>
      </trkpt>
      <trkpt lat="37.07338174596" lon="-3.403053998389">
        <ele>2628.6</ele>
        <time>2019-01-07T15:44:45Z</time>
      </trkpt>
      <trkpt lat="37.073390630774" lon="-3.403042431367">
        <ele>2628</ele>
        <time>2019-01-07T15:44:46Z</time>
      </trkpt>
      <trkpt lat="37.07339348062" lon="-3.403037402227">
        <ele>2627.6</ele>
        <time>2019-01-07T15:44:48Z</time>
      </trkpt>
      <trkpt lat="37.073390211679" lon="-3.403041676996">
        <ele>2627.4</ele>
        <time>2019-01-07T15:44:50Z</time>
      </trkpt>
      <trkpt lat="37.073401108149" lon="-3.40308911855">
        <ele>2627.2</ele>
        <time>2019-01-07T15:44:53Z</time>
      </trkpt>
      <trkpt lat="37.073403119805" lon="-3.403128932575">
        <ele>2627</ele>
        <time>2019-01-07T15:44:54Z</time>
      </trkpt>
      <trkpt lat="37.07340521528" lon="-3.40328022587">
        <ele>2626</ele>
        <time>2019-01-07T15:44:57Z</time>
      </trkpt>
      <trkpt lat="37.073411585524" lon="-3.403320375171">
        <ele>2625.6</ele>
        <time>2019-01-07T15:44:58Z</time>
      </trkpt>
      <trkpt lat="37.073427930229" lon="-3.403405032361">
        <ele>2624.2</ele>
        <time>2019-01-07T15:45:01Z</time>
      </trkpt>
      <trkpt lat="37.073457853612" lon="-3.403476697606">
        <ele>2622.6</ele>
        <time>2019-01-07T15:45:03Z</time>
      </trkpt>
      <trkpt lat="37.073472438118" lon="-3.403523133332">
        <ele>2622.2</ele>
        <time>2019-01-07T15:45:04Z</time>
      </trkpt>
      <trkpt lat="37.073521556052" lon="-3.403546686471">
        <ele>2621.6</ele>
        <time>2019-01-07T15:45:05Z</time>
      </trkpt>
      <trkpt lat="37.073548461951" lon="-3.403574598198">
        <ele>2620.2</ele>
        <time>2019-01-07T15:45:07Z</time>
      </trkpt>
      <trkpt lat="37.073577630963" lon="-3.403598235156">
        <ele>2619.6</ele>
        <time>2019-01-07T15:45:08Z</time>
      </trkpt>
      <trkpt lat="37.073622809404" lon="-3.403615250413">
        <ele>2618.8</ele>
        <time>2019-01-07T15:45:09Z</time>
      </trkpt>
      <trkpt lat="37.07367259789" lon="-3.403634193507">
        <ele>2617.4</ele>
        <time>2019-01-07T15:45:11Z</time>
      </trkpt>
      <trkpt lat="37.07369271445" lon="-3.403644419425">
        <ele>2616</ele>
        <time>2019-01-07T15:45:13Z</time>
      </trkpt>
      <trkpt lat="37.073783993341" lon="-3.403709714426">
        <ele>2614</ele>
        <time>2019-01-07T15:45:15Z</time>
      </trkpt>
      <trkpt lat="37.073783993341" lon="-3.403709714426">
        <ele>2612.8</ele>
        <time>2019-01-07T15:45:16Z</time>
      </trkpt>
      <trkpt lat="37.073825064651" lon="-3.403817673298">
        <ele>2611</ele>
        <time>2019-01-07T15:45:17Z</time>
      </trkpt>
      <trkpt lat="37.073842666641" lon="-3.403889087086">
        <ele>2608.8</ele>
        <time>2019-01-07T15:45:18Z</time>
      </trkpt>
      <trkpt lat="37.073871919472" lon="-3.403933427337">
        <ele>2606.4</ele>
        <time>2019-01-07T15:45:19Z</time>
      </trkpt>
      <trkpt lat="37.073896226982" lon="-3.403964272729">
        <ele>2604.2</ele>
        <time>2019-01-07T15:45:20Z</time>
      </trkpt>
      <trkpt lat="37.073897568086" lon="-3.403990508076">
        <ele>2602</ele>
        <time>2019-01-07T15:45:21Z</time>
      </trkpt>
      <trkpt lat="37.073885330512" lon="-3.404009283532">
        <ele>2599.8</ele>
        <time>2019-01-07T15:45:22Z</time>
      </trkpt>
      <trkpt lat="37.073885330512" lon="-3.404009283532">
        <ele>2597.6</ele>
        <time>2019-01-07T15:45:23Z</time>
      </trkpt>
      <trkpt lat="37.073881810114" lon="-3.404033926318">
        <ele>2596</ele>
        <time>2019-01-07T15:45:24Z</time>
      </trkpt>
      <trkpt lat="37.07397853724" lon="-3.404109698694">
        <ele>2594.6</ele>
        <time>2019-01-07T15:45:26Z</time>
      </trkpt>
      <trkpt lat="37.074030924115" lon="-3.404148674529">
        <ele>2593.6</ele>
        <time>2019-01-07T15:45:27Z</time>
      </trkpt>
      <trkpt lat="37.074094961831" lon="-3.404207347829">
        <ele>2592.8</ele>
        <time>2019-01-07T15:45:28Z</time>
      </trkpt>
      <trkpt lat="37.074167716723" lon="-3.404236181565">
        <ele>2591.4</ele>
        <time>2019-01-07T15:45:29Z</time>
      </trkpt>
      <trkpt lat="37.074167716723" lon="-3.404236181565">
        <ele>2589.6</ele>
        <time>2019-01-07T15:45:30Z</time>
      </trkpt>
      <trkpt lat="37.074239465787" lon="-3.404263841835">
        <ele>2587.4</ele>
        <time>2019-01-07T15:45:31Z</time>
      </trkpt>
      <trkpt lat="37.074312639774" lon="-3.404285383318">
        <ele>2585.2</ele>
        <time>2019-01-07T15:45:32Z</time>
      </trkpt>
      <trkpt lat="37.074384053562" lon="-3.404289658087">
        <ele>2583.2</ele>
        <time>2019-01-07T15:45:33Z</time>
      </trkpt>
      <trkpt lat="37.074445492889" lon="-3.40428689206">
        <ele>2581.8</ele>
        <time>2019-01-07T15:45:34Z</time>
      </trkpt>
      <trkpt lat="37.074546662422" lon="-3.404316563986">
        <ele>2580.4</ele>
        <time>2019-01-07T15:45:35Z</time>
      </trkpt>
      <trkpt lat="37.074593098148" lon="-3.404329555931">
        <ele>2578.6</ele>
        <time>2019-01-07T15:45:37Z</time>
      </trkpt>
      <trkpt lat="37.074642970453" lon="-3.404358054391">
        <ele>2577.8</ele>
        <time>2019-01-07T15:45:38Z</time>
      </trkpt>
      <trkpt lat="37.074706253798" lon="-3.404387558679">
        <ele>2576.4</ele>
        <time>2019-01-07T15:45:39Z</time>
      </trkpt>
      <trkpt lat="37.074780936527" lon="-3.404394264199">
        <ele>2574.2</ele>
        <time>2019-01-07T15:45:40Z</time>
      </trkpt>
      <trkpt lat="37.07486366588" lon="-3.404402310823">
        <ele>2571.4</ele>
        <time>2019-01-07T15:45:41Z</time>
      </trkpt>
      <trkpt lat="37.074958297531" lon="-3.404398874244">
        <ele>2568.8</ele>
        <time>2019-01-07T15:45:42Z</time>
      </trkpt>
      <trkpt lat="37.075048822051" lon="-3.404393677466">
        <ele>2566</ele>
        <time>2019-01-07T15:45:43Z</time>
      </trkpt>
      <trkpt lat="37.075139011295" lon="-3.404406585592">
        <ele>2563</ele>
        <time>2019-01-07T15:45:44Z</time>
      </trkpt>
      <trkpt lat="37.075233391489" lon="-3.404412788198">
        <ele>2560.2</ele>
        <time>2019-01-07T15:45:45Z</time>
      </trkpt>
      <trkpt lat="37.075329867158" lon="-3.404399712434">
        <ele>2557.4</ele>
        <time>2019-01-07T15:45:46Z</time>
      </trkpt>
      <trkpt lat="37.075426175189" lon="-3.40439501857">
        <ele>2554.6</ele>
        <time>2019-01-07T15:45:47Z</time>
      </trkpt>
      <trkpt lat="37.075529272559" lon="-3.404416727691">
        <ele>2551.6</ele>
        <time>2019-01-07T15:45:48Z</time>
      </trkpt>
      <trkpt lat="37.075625496771" lon="-3.404423265573">
        <ele>2548.6</ele>
        <time>2019-01-07T15:45:49Z</time>
      </trkpt>
      <trkpt lat="37.0757085614" lon="-3.404414883673">
        <ele>2546.4</ele>
        <time>2019-01-07T15:45:50Z</time>
      </trkpt>
      <trkpt lat="37.07578986583" lon="-3.404421421555">
        <ele>2544</ele>
        <time>2019-01-07T15:45:51Z</time>
      </trkpt>
      <trkpt lat="37.075886341499" lon="-3.40443692807">
        <ele>2542</ele>
        <time>2019-01-07T15:45:52Z</time>
      </trkpt>
      <trkpt lat="37.07600108971" lon="-3.404448914187">
        <ele>2539.4</ele>
        <time>2019-01-07T15:45:53Z</time>
      </trkpt>
      <trkpt lat="37.076138049956" lon="-3.404466935272">
        <ele>2536.8</ele>
        <time>2019-01-07T15:45:54Z</time>
      </trkpt>
      <trkpt lat="37.076281631903" lon="-3.404475065715">
        <ele>2533.6</ele>
        <time>2019-01-07T15:45:55Z</time>
      </trkpt>
      <trkpt lat="37.076425381488" lon="-3.404495769008">
        <ele>2530.4</ele>
        <time>2019-01-07T15:45:56Z</time>
      </trkpt>
      <trkpt lat="37.076574327851" lon="-3.404560142">
        <ele>2527</ele>
        <time>2019-01-07T15:45:57Z</time>
      </trkpt>
      <trkpt lat="37.076717825979" lon="-3.404614037617">
        <ele>2524</ele>
        <time>2019-01-07T15:45:58Z</time>
      </trkpt>
      <trkpt lat="37.076862078478" lon="-3.404645302104">
        <ele>2520.6</ele>
        <time>2019-01-07T15:45:59Z</time>
      </trkpt>
      <trkpt lat="37.077004235502" lon="-3.404678075333">
        <ele>2517</ele>
        <time>2019-01-07T15:46:00Z</time>
      </trkpt>
      <trkpt lat="37.07713516078" lon="-3.404750075854">
        <ele>2513.2</ele>
        <time>2019-01-07T15:46:01Z</time>
      </trkpt>
      <trkpt lat="37.077259967271" lon="-3.40480656986">
        <ele>2510.2</ele>
        <time>2019-01-07T15:46:02Z</time>
      </trkpt>
      <trkpt lat="37.077498432326" lon="-3.404878905657">
        <ele>2507.4</ele>
        <time>2019-01-07T15:46:03Z</time>
      </trkpt>
      <trkpt lat="37.077498432326" lon="-3.404878905657">
        <ele>2505.4</ele>
        <time>2019-01-07T15:46:04Z</time>
      </trkpt>
      <trkpt lat="37.077619718419" lon="-3.404909164316">
        <ele>2503</ele>
        <time>2019-01-07T15:46:05Z</time>
      </trkpt>
      <trkpt lat="37.077740417779" lon="-3.404905560099">
        <ele>2500.8</ele>
        <time>2019-01-07T15:46:06Z</time>
      </trkpt>
      <trkpt lat="37.077966812898" lon="-3.404895166543">
        <ele>2498.6</ele>
        <time>2019-01-07T15:46:07Z</time>
      </trkpt>
      <trkpt lat="37.077966812898" lon="-3.404895166543">
        <ele>2496.4</ele>
        <time>2019-01-07T15:46:08Z</time>
      </trkpt>
      <trkpt lat="37.078077789254" lon="-3.404883515702">
        <ele>2494.2</ele>
        <time>2019-01-07T15:46:09Z</time>
      </trkpt>
      <trkpt lat="37.07817619276" lon="-3.404855939251">
        <ele>2492</ele>
        <time>2019-01-07T15:46:10Z</time>
      </trkpt>
      <trkpt lat="37.078372664496" lon="-3.404888041928">
        <ele>2489.8</ele>
        <time>2019-01-07T15:46:11Z</time>
      </trkpt>
      <trkpt lat="37.078372664496" lon="-3.404888041928">
        <ele>2488</ele>
        <time>2019-01-07T15:46:12Z</time>
      </trkpt>
      <trkpt lat="37.078471738554" lon="-3.404907320298">
        <ele>2486</ele>
        <time>2019-01-07T15:46:13Z</time>
      </trkpt>
      <trkpt lat="37.078663684064" lon="-3.404950989997">
        <ele>2483.8</ele>
        <time>2019-01-07T15:46:14Z</time>
      </trkpt>
      <trkpt lat="37.07875454386" lon="-3.404969011082">
        <ele>2481.6</ele>
        <time>2019-01-07T15:46:15Z</time>
      </trkpt>
      <trkpt lat="37.07875454386" lon="-3.404969011082">
        <ele>2479.6</ele>
        <time>2019-01-07T15:46:16Z</time>
      </trkpt>
      <trkpt lat="37.078839368688" lon="-3.404980997199">
        <ele>2477.6</ele>
        <time>2019-01-07T15:46:17Z</time>
      </trkpt>
      <trkpt lat="37.078911704485" lon="-3.405014357161">
        <ele>2475.8</ele>
        <time>2019-01-07T15:46:18Z</time>
      </trkpt>
      <trkpt lat="37.078968533767" lon="-3.405046208381">
        <ele>2474.4</ele>
        <time>2019-01-07T15:46:19Z</time>
      </trkpt>
      <trkpt lat="37.079000804082" lon="-3.405049393503">
        <ele>2472.8</ele>
        <time>2019-01-07T15:46:20Z</time>
      </trkpt>
      <trkpt lat="37.079003653928" lon="-3.405028857848">
        <ele>2471.6</ele>
        <time>2019-01-07T15:46:21Z</time>
      </trkpt>
      <trkpt lat="37.079007425783" lon="-3.405017207007">
        <ele>2470.4</ele>
        <time>2019-01-07T15:46:22Z</time>
      </trkpt>
      <trkpt lat="37.079029721637" lon="-3.404988373271">
        <ele>2469.2</ele>
        <time>2019-01-07T15:46:24Z</time>
      </trkpt>
      <trkpt lat="37.079138770156" lon="-3.404873205965">
        <ele>2468.2</ele>
        <time>2019-01-07T15:46:28Z</time>
      </trkpt>
      <trkpt lat="37.07918202076" lon="-3.404845545695">
        <ele>2466.4</ele>
        <time>2019-01-07T15:46:30Z</time>
      </trkpt>
      <trkpt lat="37.079241029336" lon="-3.404837918166">
        <ele>2465.2</ele>
        <time>2019-01-07T15:46:31Z</time>
      </trkpt>
      <trkpt lat="37.079306659613" lon="-3.404826434963">
        <ele>2464.2</ele>
        <time>2019-01-07T15:46:32Z</time>
      </trkpt>
      <trkpt lat="37.079376229383" lon="-3.404817214873">
        <ele>2462.6</ele>
        <time>2019-01-07T15:46:33Z</time>
      </trkpt>
      <trkpt lat="37.0794468888" lon="-3.404825596773">
        <ele>2460.8</ele>
        <time>2019-01-07T15:46:34Z</time>
      </trkpt>
      <trkpt lat="37.079598265914" lon="-3.404851580663">
        <ele>2459</ele>
        <time>2019-01-07T15:46:35Z</time>
      </trkpt>
      <trkpt lat="37.079598265914" lon="-3.404851580663">
        <ele>2457.6</ele>
        <time>2019-01-07T15:46:36Z</time>
      </trkpt>
      <trkpt lat="37.079682755466" lon="-3.40488787429">
        <ele>2456</ele>
        <time>2019-01-07T15:46:37Z</time>
      </trkpt>
      <trkpt lat="37.079781661886" lon="-3.404915115465">
        <ele>2454.2</ele>
        <time>2019-01-07T15:46:38Z</time>
      </trkpt>
      <trkpt lat="37.079886184179" lon="-3.404944703572">
        <ele>2451.4</ele>
        <time>2019-01-07T15:46:39Z</time>
      </trkpt>
      <trkpt lat="37.079995819431" lon="-3.404972028566">
        <ele>2448.4</ele>
        <time>2019-01-07T15:46:40Z</time>
      </trkpt>
      <trkpt lat="37.080100006448" lon="-3.404957779336">
        <ele>2445</ele>
        <time>2019-01-07T15:46:41Z</time>
      </trkpt>
      <trkpt lat="37.080185501828" lon="-3.404900614778">
        <ele>2442</ele>
        <time>2019-01-07T15:46:42Z</time>
      </trkpt>
      <trkpt lat="37.080255993607" lon="-3.404834062492">
        <ele>2439</ele>
        <time>2019-01-07T15:46:43Z</time>
      </trkpt>
      <trkpt lat="37.080323216445" lon="-3.40478896787">
        <ele>2436.8</ele>
        <time>2019-01-07T15:46:44Z</time>
      </trkpt>
      <trkpt lat="37.080391026016" lon="-3.404771198242">
        <ele>2435.2</ele>
        <time>2019-01-07T15:46:45Z</time>
      </trkpt>
      <trkpt lat="37.080458667949" lon="-3.404750746406">
        <ele>2433.8</ele>
        <time>2019-01-07T15:46:46Z</time>
      </trkpt>
      <trkpt lat="37.080585821372" lon="-3.404713027856">
        <ele>2432.6</ele>
        <time>2019-01-07T15:46:47Z</time>
      </trkpt>
      <trkpt lat="37.080649775269" lon="-3.404695258228">
        <ele>2430.4</ele>
        <time>2019-01-07T15:46:49Z</time>
      </trkpt>
      <trkpt lat="37.080714399718" lon="-3.404670196347">
        <ele>2429.2</ele>
        <time>2019-01-07T15:46:50Z</time>
      </trkpt>
      <trkpt lat="37.08078296366" lon="-3.404655025108">
        <ele>2428</ele>
        <time>2019-01-07T15:46:51Z</time>
      </trkpt>
      <trkpt lat="37.080936017154" lon="-3.404698024255">
        <ele>2426.8</ele>
        <time>2019-01-07T15:46:52Z</time>
      </trkpt>
      <trkpt lat="37.080936017154" lon="-3.404698024255">
        <ele>2425.4</ele>
        <time>2019-01-07T15:46:53Z</time>
      </trkpt>
      <trkpt lat="37.081015561385" lon="-3.404707998716">
        <ele>2424.2</ele>
        <time>2019-01-07T15:46:54Z</time>
      </trkpt>
      <trkpt lat="37.081090244114" lon="-3.40470766344">
        <ele>2422.8</ele>
        <time>2019-01-07T15:46:55Z</time>
      </trkpt>
      <trkpt lat="37.081161490264" lon="-3.404740436669">
        <ele>2421.8</ele>
        <time>2019-01-07T15:46:56Z</time>
      </trkpt>
      <trkpt lat="37.081304569297" lon="-3.404790057517">
        <ele>2419.6</ele>
        <time>2019-01-07T15:46:58Z</time>
      </trkpt>
      <trkpt lat="37.08137556399" lon="-3.404798858512">
        <ele>2418.2</ele>
        <time>2019-01-07T15:46:59Z</time>
      </trkpt>
      <trkpt lat="37.081443960294" lon="-3.404829536266">
        <ele>2416.4</ele>
        <time>2019-01-07T15:47:00Z</time>
      </trkpt>
      <trkpt lat="37.081516715186" lon="-3.404885192082">
        <ele>2415</ele>
        <time>2019-01-07T15:47:01Z</time>
      </trkpt>
      <trkpt lat="37.081594750675" lon="-3.404923162089">
        <ele>2413.4</ele>
        <time>2019-01-07T15:47:02Z</time>
      </trkpt>
      <trkpt lat="37.081750151101" lon="-3.405003293053">
        <ele>2411.8</ele>
        <time>2019-01-07T15:47:03Z</time>
      </trkpt>
      <trkpt lat="37.081750151101" lon="-3.405003293053">
        <ele>2410.2</ele>
        <time>2019-01-07T15:47:04Z</time>
      </trkpt>
      <trkpt lat="37.081822151622" lon="-3.405080322714">
        <ele>2408.6</ele>
        <time>2019-01-07T15:47:05Z</time>
      </trkpt>
      <trkpt lat="37.081897840179" lon="-3.405110162278">
        <ele>2407.2</ele>
        <time>2019-01-07T15:47:06Z</time>
      </trkpt>
      <trkpt lat="37.081968583415" lon="-3.405125417336">
        <ele>2405.8</ele>
        <time>2019-01-07T15:47:07Z</time>
      </trkpt>
      <trkpt lat="37.082034129873" lon="-3.405166237189">
        <ele>2404.6</ele>
        <time>2019-01-07T15:47:08Z</time>
      </trkpt>
      <trkpt lat="37.082170922481" lon="-3.405230442543">
        <ele>2403.6</ele>
        <time>2019-01-07T15:47:09Z</time>
      </trkpt>
      <trkpt lat="37.082170922481" lon="-3.405230442543">
        <ele>2402.4</ele>
        <time>2019-01-07T15:47:10Z</time>
      </trkpt>
      <trkpt lat="37.082237726224" lon="-3.405275453346">
        <ele>2401.2</ele>
        <time>2019-01-07T15:47:11Z</time>
      </trkpt>
      <trkpt lat="37.082303524139" lon="-3.405329013687">
        <ele>2400</ele>
        <time>2019-01-07T15:47:12Z</time>
      </trkpt>
      <trkpt lat="37.082375357022" lon="-3.405350974265">
        <ele>2398.4</ele>
        <time>2019-01-07T15:47:13Z</time>
      </trkpt>
      <trkpt lat="37.082444507697" lon="-3.405379724182">
        <ele>2396.8</ele>
        <time>2019-01-07T15:47:14Z</time>
      </trkpt>
      <trkpt lat="37.082508545413" lon="-3.405432613971">
        <ele>2395.2</ele>
        <time>2019-01-07T15:47:15Z</time>
      </trkpt>
      <trkpt lat="37.082562943944" lon="-3.405507129062">
        <ele>2393.8</ele>
        <time>2019-01-07T15:47:16Z</time>
      </trkpt>
      <trkpt lat="37.082613822077" lon="-3.405597905039">
        <ele>2392.2</ele>
        <time>2019-01-07T15:47:17Z</time>
      </trkpt>
      <trkpt lat="37.082669394074" lon="-3.405693542518">
        <ele>2390.8</ele>
        <time>2019-01-07T15:47:18Z</time>
      </trkpt>
      <trkpt lat="37.082734772894" lon="-3.405785994875">
        <ele>2389.4</ele>
        <time>2019-01-07T15:47:19Z</time>
      </trkpt>
      <trkpt lat="37.082803420655" lon="-3.405873501911">
        <ele>2388.2</ele>
        <time>2019-01-07T15:47:20Z</time>
      </trkpt>
      <trkpt lat="37.082872068416" lon="-3.405953884332">
        <ele>2387</ele>
        <time>2019-01-07T15:47:21Z</time>
      </trkpt>
      <trkpt lat="37.082939039797" lon="-3.406034182934">
        <ele>2385.6</ele>
        <time>2019-01-07T15:47:22Z</time>
      </trkpt>
      <trkpt lat="37.083049513239" lon="-3.406208777911">
        <ele>2384.4</ele>
        <time>2019-01-07T15:47:23Z</time>
      </trkpt>
      <trkpt lat="37.083082202649" lon="-3.406295362938">
        <ele>2382.8</ele>
        <time>2019-01-07T15:47:25Z</time>
      </trkpt>
      <trkpt lat="37.083146491822" lon="-3.406441291817">
        <ele>2381.4</ele>
        <time>2019-01-07T15:47:27Z</time>
      </trkpt>
      <trkpt lat="37.083204578389" lon="-3.406476411978">
        <ele>2380.2</ele>
        <time>2019-01-07T15:47:28Z</time>
      </trkpt>
      <trkpt lat="37.083270795399" lon="-3.406512118872">
        <ele>2379.2</ele>
        <time>2019-01-07T15:47:29Z</time>
      </trkpt>
      <trkpt lat="37.083410856948" lon="-3.406624268694">
        <ele>2378.2</ele>
        <time>2019-01-07T15:47:30Z</time>
      </trkpt>
      <trkpt lat="37.083487048419" lon="-3.406686294754">
        <ele>2376.2</ele>
        <time>2019-01-07T15:47:32Z</time>
      </trkpt>
      <trkpt lat="37.083557288741" lon="-3.40674446514">
        <ele>2374.8</ele>
        <time>2019-01-07T15:47:33Z</time>
      </trkpt>
      <trkpt lat="37.083627026149" lon="-3.406869774545">
        <ele>2373.6</ele>
        <time>2019-01-07T15:47:34Z</time>
      </trkpt>
      <trkpt lat="37.083594169101" lon="-3.406984103661">
        <ele>2371.8</ele>
        <time>2019-01-07T15:47:36Z</time>
      </trkpt>
      <trkpt lat="37.083577321482" lon="-3.407004806954">
        <ele>2371</ele>
        <time>2019-01-07T15:47:38Z</time>
      </trkpt>
      <trkpt lat="37.083566508831" lon="-3.407000616004">
        <ele>2370.8</ele>
        <time>2019-01-07T15:47:39Z</time>
      </trkpt>
      <trkpt lat="37.083555612361" lon="-3.406986282955">
        <ele>2370.2</ele>
        <time>2019-01-07T15:47:44Z</time>
      </trkpt>
      <trkpt lat="37.080534691782" lon="-3.404786201843">
        <ele>2429</ele>
        <time>2019-01-07T15:54:00Z</time>
      </trkpt>
      <trkpt lat="37.080599986783" lon="-3.404765582369">
        <ele>2428</ele>
        <time>2019-01-07T15:54:02Z</time>
      </trkpt>
      <trkpt lat="37.08064885326" lon="-3.404776981753">
        <ele>2427.4</ele>
        <time>2019-01-07T15:54:03Z</time>
      </trkpt>
      <trkpt lat="37.080706520732" lon="-3.4048032171">
        <ele>2427</ele>
        <time>2019-01-07T15:54:04Z</time>
      </trkpt>
      <trkpt lat="37.08076871443" lon="-3.404844791324">
        <ele>2426.4</ele>
        <time>2019-01-07T15:54:05Z</time>
      </trkpt>
      <trkpt lat="37.080828058282" lon="-3.404867590092">
        <ele>2425.6</ele>
        <time>2019-01-07T15:54:06Z</time>
      </trkpt>
      <trkpt lat="37.080891257808" lon="-3.404861303667">
        <ele>2424.8</ele>
        <time>2019-01-07T15:54:07Z</time>
      </trkpt>
      <trkpt lat="37.080952697135" lon="-3.404827692248">
        <ele>2423.8</ele>
        <time>2019-01-07T15:54:08Z</time>
      </trkpt>
      <trkpt lat="37.081019919973" lon="-3.404797936503">
        <ele>2423</ele>
        <time>2019-01-07T15:54:09Z</time>
      </trkpt>
      <trkpt lat="37.08110231405" lon="-3.404805564032">
        <ele>2422.2</ele>
        <time>2019-01-07T15:54:10Z</time>
      </trkpt>
      <trkpt lat="37.081187055059" lon="-3.404816125226">
        <ele>2421.4</ele>
        <time>2019-01-07T15:54:11Z</time>
      </trkpt>
      <trkpt lat="37.081265593462" lon="-3.404813107742">
        <ele>2420</ele>
        <time>2019-01-07T15:54:12Z</time>
      </trkpt>
      <trkpt lat="37.081345137693" lon="-3.404823752755">
        <ele>2418.4</ele>
        <time>2019-01-07T15:54:13Z</time>
      </trkpt>
      <trkpt lat="37.081426525942" lon="-3.404847808808">
        <ele>2416.8</ele>
        <time>2019-01-07T15:54:14Z</time>
      </trkpt>
      <trkpt lat="37.081511602227" lon="-3.404868428282">
        <ele>2415.2</ele>
        <time>2019-01-07T15:54:15Z</time>
      </trkpt>
      <trkpt lat="37.081605060412" lon="-3.404898603122">
        <ele>2413.6</ele>
        <time>2019-01-07T15:54:16Z</time>
      </trkpt>
      <trkpt lat="37.081703966832" lon="-3.404907907031">
        <ele>2411.2</ele>
        <time>2019-01-07T15:54:17Z</time>
      </trkpt>
      <trkpt lat="37.081804465813" lon="-3.404901788244">
        <ele>2409.2</ele>
        <time>2019-01-07T15:54:18Z</time>
      </trkpt>
      <trkpt lat="37.081903707509" lon="-3.404905141004">
        <ele>2407</ele>
        <time>2019-01-07T15:54:19Z</time>
      </trkpt>
      <trkpt lat="37.082003871214" lon="-3.404932801274">
        <ele>2405.6</ele>
        <time>2019-01-07T15:54:20Z</time>
      </trkpt>
      <trkpt lat="37.082110153706" lon="-3.404978817905">
        <ele>2403.8</ele>
        <time>2019-01-07T15:54:21Z</time>
      </trkpt>
      <trkpt lat="37.082213334895" lon="-3.40504461582">
        <ele>2402</ele>
        <time>2019-01-07T15:54:22Z</time>
      </trkpt>
      <trkpt lat="37.082304110872" lon="-3.40512759663">
        <ele>2400.2</ele>
        <time>2019-01-07T15:54:23Z</time>
      </trkpt>
      <trkpt lat="37.082396982324" lon="-3.405199178056">
        <ele>2398.8</ele>
        <time>2019-01-07T15:54:24Z</time>
      </trkpt>
      <trkpt lat="37.082488428853" lon="-3.405218372607">
        <ele>2396.6</ele>
        <time>2019-01-07T15:54:25Z</time>
      </trkpt>
      <trkpt lat="37.082577779907" lon="-3.405232202742">
        <ele>2394.4</ele>
        <time>2019-01-07T15:54:26Z</time>
      </trkpt>
      <trkpt lat="37.082761678793" lon="-3.405317446665">
        <ele>2392.4</ele>
        <time>2019-01-07T15:54:27Z</time>
      </trkpt>
      <trkpt lat="37.082761678793" lon="-3.405317446665">
        <ele>2391</ele>
        <time>2019-01-07T15:54:28Z</time>
      </trkpt>
      <trkpt lat="37.082859076471" lon="-3.405347872962">
        <ele>2389.6</ele>
        <time>2019-01-07T15:54:29Z</time>
      </trkpt>
      <trkpt lat="37.082950858276" lon="-3.405325241832">
        <ele>2387.8</ele>
        <time>2019-01-07T15:54:30Z</time>
      </trkpt>
      <trkpt lat="37.083014560716" lon="-3.405251816388">
        <ele>2385.8</ele>
        <time>2019-01-07T15:54:31Z</time>
      </trkpt>
      <trkpt lat="37.08303350381" lon="-3.405151233588">
        <ele>2384.2</ele>
        <time>2019-01-07T15:54:32Z</time>
      </trkpt>
      <trkpt lat="37.082999724753" lon="-3.404977979715">
        <ele>2383</ele>
        <time>2019-01-07T15:54:33Z</time>
      </trkpt>
      <trkpt lat="37.082985391704" lon="-3.404903296986">
        <ele>2381.4</ele>
        <time>2019-01-07T15:54:35Z</time>
      </trkpt>
      <trkpt lat="37.082979943469" lon="-3.404839091632">
        <ele>2381</ele>
        <time>2019-01-07T15:54:36Z</time>
      </trkpt>
      <trkpt lat="37.082992264862" lon="-3.40472023629">
        <ele>2380.6</ele>
        <time>2019-01-07T15:54:38Z</time>
      </trkpt>
      <trkpt lat="37.083011124137" lon="-3.404661227714">
        <ele>2380.2</ele>
        <time>2019-01-07T15:54:39Z</time>
      </trkpt>
      <trkpt lat="37.083084884857" lon="-3.404481687416">
        <ele>2379.2</ele>
        <time>2019-01-07T15:54:42Z</time>
      </trkpt>
      <trkpt lat="37.083210948633" lon="-3.404245988388">
        <ele>2377.8</ele>
        <time>2019-01-07T15:54:45Z</time>
      </trkpt>
      <trkpt lat="37.083246739346" lon="-3.40418630926">
        <ele>2376.8</ele>
        <time>2019-01-07T15:54:47Z</time>
      </trkpt>
      <trkpt lat="37.083381687936" lon="-3.403936612459">
        <ele>2375.4</ele>
        <time>2019-01-07T15:54:50Z</time>
      </trkpt>
      <trkpt lat="37.083451509163" lon="-3.403791773227">
        <ele>2373.2</ele>
        <time>2019-01-07T15:54:52Z</time>
      </trkpt>
      <trkpt lat="37.083451509163" lon="-3.403791773227">
        <ele>2372.2</ele>
        <time>2019-01-07T15:54:53Z</time>
      </trkpt>
      <trkpt lat="37.083527616815" lon="-3.403660093578">
        <ele>2371</ele>
        <time>2019-01-07T15:54:55Z</time>
      </trkpt>
      <trkpt lat="37.083560892958" lon="-3.403588260695">
        <ele>2370.6</ele>
        <time>2019-01-07T15:54:56Z</time>
      </trkpt>
      <trkpt lat="37.083605903761" lon="-3.403424226912">
        <ele>2370</ele>
        <time>2019-01-07T15:54:58Z</time>
      </trkpt>
      <trkpt lat="37.083604562657" lon="-3.403166651125">
        <ele>2369.6</ele>
        <time>2019-01-07T15:55:00Z</time>
      </trkpt>
      <trkpt lat="37.083604562657" lon="-3.403166651125">
        <ele>2369</ele>
        <time>2019-01-07T15:55:01Z</time>
      </trkpt>
      <trkpt lat="37.08360095844" lon="-3.402980740583">
        <ele>2367.4</ele>
        <time>2019-01-07T15:55:03Z</time>
      </trkpt>
      <trkpt lat="37.083654686419" lon="-3.402804301588">
        <ele>2365.8</ele>
        <time>2019-01-07T15:55:05Z</time>
      </trkpt>
      <trkpt lat="37.083775721055" lon="-3.402720063493">
        <ele>2364.4</ele>
        <time>2019-01-07T15:55:07Z</time>
      </trkpt>
      <trkpt lat="37.083924415961" lon="-3.402720985502">
        <ele>2363</ele>
        <time>2019-01-07T15:55:09Z</time>
      </trkpt>
      <trkpt lat="37.084077301817" lon="-3.402744203365">
        <ele>2361</ele>
        <time>2019-01-07T15:55:11Z</time>
      </trkpt>
      <trkpt lat="37.084156846048" lon="-3.402748897229">
        <ele>2360.4</ele>
        <time>2019-01-07T15:55:12Z</time>
      </trkpt>
      <trkpt lat="37.08424217379" lon="-3.402755183654">
        <ele>2359.8</ele>
        <time>2019-01-07T15:55:13Z</time>
      </trkpt>
      <trkpt lat="37.084411991084" lon="-3.402764319925">
        <ele>2358</ele>
        <time>2019-01-07T15:55:15Z</time>
      </trkpt>
      <trkpt lat="37.084575186677" lon="-3.402751160342">
        <ele>2356.2</ele>
        <time>2019-01-07T15:55:17Z</time>
      </trkpt>
      <trkpt lat="37.08465540146" lon="-3.402733809809">
        <ele>2355.4</ele>
        <time>2019-01-07T15:55:18Z</time>
      </trkpt>
      <trkpt lat="37.084727066705" lon="-3.40269852201">
        <ele>2354.4</ele>
        <time>2019-01-07T15:55:19Z</time>
      </trkpt>
      <trkpt lat="37.084790769145" lon="-3.402661809288">
        <ele>2353.2</ele>
        <time>2019-01-07T15:55:20Z</time>
      </trkpt>
      <trkpt lat="37.08484986154" lon="-3.402627192041">
        <ele>2352</ele>
        <time>2019-01-07T15:55:21Z</time>
      </trkpt>
      <trkpt lat="37.084899398569" lon="-3.402586791283">
        <ele>2350.8</ele>
        <time>2019-01-07T15:55:22Z</time>
      </trkpt>
      <trkpt lat="37.084950863435" lon="-3.402553766597">
        <ele>2349.6</ele>
        <time>2019-01-07T15:55:23Z</time>
      </trkpt>
      <trkpt lat="37.085015906979" lon="-3.402548402181">
        <ele>2348.4</ele>
        <time>2019-01-07T15:55:24Z</time>
      </trkpt>
      <trkpt lat="37.085088578052" lon="-3.402569189293">
        <ele>2347.4</ele>
        <time>2019-01-07T15:55:25Z</time>
      </trkpt>
      <trkpt lat="37.085233249646" lon="-3.402630963896">
        <ele>2345.4</ele>
        <time>2019-01-07T15:55:27Z</time>
      </trkpt>
      <trkpt lat="37.085298460828" lon="-3.40264403966">
        <ele>2344</ele>
        <time>2019-01-07T15:55:28Z</time>
      </trkpt>
      <trkpt lat="37.085358475232" lon="-3.402669101541">
        <ele>2342.8</ele>
        <time>2019-01-07T15:55:29Z</time>
      </trkpt>
      <trkpt lat="37.085423267319" lon="-3.402703132055">
        <ele>2341.6</ele>
        <time>2019-01-07T15:55:30Z</time>
      </trkpt>
      <trkpt lat="37.085491998899" lon="-3.402713525611">
        <ele>2340.4</ele>
        <time>2019-01-07T15:55:31Z</time>
      </trkpt>
      <trkpt lat="37.085560562841" lon="-3.402700030752">
        <ele>2338.8</ele>
        <time>2019-01-07T15:55:32Z</time>
      </trkpt>
      <trkpt lat="37.085639687977" lon="-3.402689553377">
        <ele>2337.2</ele>
        <time>2019-01-07T15:55:33Z</time>
      </trkpt>
      <trkpt lat="37.085734738723" lon="-3.402696342716">
        <ele>2335.2</ele>
        <time>2019-01-07T15:55:34Z</time>
      </trkpt>
      <trkpt lat="37.08583054384" lon="-3.402715369629">
        <ele>2333.2</ele>
        <time>2019-01-07T15:55:35Z</time>
      </trkpt>
      <trkpt lat="37.085935233771" lon="-3.402758284957">
        <ele>2331</ele>
        <time>2019-01-07T15:55:36Z</time>
      </trkpt>
      <trkpt lat="37.08604512048" lon="-3.402809246909">
        <ele>2328.8</ele>
        <time>2019-01-07T15:55:37Z</time>
      </trkpt>
      <trkpt lat="37.086154168999" lon="-3.402864735087">
        <ele>2326.6</ele>
        <time>2019-01-07T15:55:38Z</time>
      </trkpt>
      <trkpt lat="37.086259445663" lon="-3.40288962933">
        <ele>2324.6</ele>
        <time>2019-01-07T15:55:39Z</time>
      </trkpt>
      <trkpt lat="37.086358854997" lon="-3.40289968761">
        <ele>2322.6</ele>
        <time>2019-01-07T15:55:40Z</time>
      </trkpt>
      <trkpt lat="37.08645834815" lon="-3.402924749491">
        <ele>2320.8</ele>
        <time>2019-01-07T15:55:41Z</time>
      </trkpt>
      <trkpt lat="37.086553734172" lon="-3.402966156077">
        <ele>2319.2</ele>
        <time>2019-01-07T15:55:42Z</time>
      </trkpt>
      <trkpt lat="37.086634200412" lon="-3.403033211277">
        <ele>2317.8</ele>
        <time>2019-01-07T15:55:43Z</time>
      </trkpt>
      <trkpt lat="37.086707542037" lon="-3.403089453826">
        <ele>2316.4</ele>
        <time>2019-01-07T15:55:44Z</time>
      </trkpt>
      <trkpt lat="37.086786248078" lon="-3.403123735797">
        <ele>2314.4</ele>
        <time>2019-01-07T15:55:45Z</time>
      </trkpt>
      <trkpt lat="37.086860008798" lon="-3.40314863004">
        <ele>2312.4</ele>
        <time>2019-01-07T15:55:46Z</time>
      </trkpt>
      <trkpt lat="37.086940475038" lon="-3.403196993603">
        <ele>2310.4</ele>
        <time>2019-01-07T15:55:47Z</time>
      </trkpt>
      <trkpt lat="37.087031167196" lon="-3.403225827339">
        <ele>2308.4</ele>
        <time>2019-01-07T15:55:48Z</time>
      </trkpt>
      <trkpt lat="37.087127139951" lon="-3.403220965837">
        <ele>2306</ele>
        <time>2019-01-07T15:55:49Z</time>
      </trkpt>
      <trkpt lat="37.087226297828" lon="-3.40324502189">
        <ele>2303.2</ele>
        <time>2019-01-07T15:55:50Z</time>
      </trkpt>
      <trkpt lat="37.087336100718" lon="-3.403282153707">
        <ele>2300.6</ele>
        <time>2019-01-07T15:55:51Z</time>
      </trkpt>
      <trkpt lat="37.087450848929" lon="-3.403282321345">
        <ele>2298.4</ele>
        <time>2019-01-07T15:55:52Z</time>
      </trkpt>
      <trkpt lat="37.087566770606" lon="-3.403242674958">
        <ele>2296</ele>
        <time>2019-01-07T15:55:53Z</time>
      </trkpt>
      <trkpt lat="37.087680932084" lon="-3.403204872589">
        <ele>2293</ele>
        <time>2019-01-07T15:55:54Z</time>
      </trkpt>
      <trkpt lat="37.087786963119" lon="-3.403175116844">
        <ele>2290.4</ele>
        <time>2019-01-07T15:55:55Z</time>
      </trkpt>
      <trkpt lat="37.087875895078" lon="-3.403141337787">
        <ele>2288</ele>
        <time>2019-01-07T15:55:56Z</time>
      </trkpt>
      <trkpt lat="37.087955606947" lon="-3.403133794077">
        <ele>2286.2</ele>
        <time>2019-01-07T15:55:57Z</time>
      </trkpt>
      <trkpt lat="37.088035234997" lon="-3.40313940995">
        <ele>2285</ele>
        <time>2019-01-07T15:55:58Z</time>
      </trkpt>
      <trkpt lat="37.088110169183" lon="-3.40312348434">
        <ele>2283.4</ele>
        <time>2019-01-07T15:55:59Z</time>
      </trkpt>
      <trkpt lat="37.088172781976" lon="-3.403078138261">
        <ele>2282.2</ele>
        <time>2019-01-07T15:56:00Z</time>
      </trkpt>
      <trkpt lat="37.088206477214" lon="-3.403005802464">
        <ele>2281.4</ele>
        <time>2019-01-07T15:56:01Z</time>
      </trkpt>
      <trkpt lat="37.088229527439" lon="-3.402919720351">
        <ele>2280.4</ele>
        <time>2019-01-07T15:56:02Z</time>
      </trkpt>
      <trkpt lat="37.08825291294" lon="-3.402837745369">
        <ele>2279.2</ele>
        <time>2019-01-07T15:56:03Z</time>
      </trkpt>
      <trkpt lat="37.088290547671" lon="-3.402755016016">
        <ele>2277.8</ele>
        <time>2019-01-07T15:56:04Z</time>
      </trkpt>
      <trkpt lat="37.088319465226" lon="-3.40266918536">
        <ele>2276.8</ele>
        <time>2019-01-07T15:56:05Z</time>
      </trkpt>
      <trkpt lat="37.088331367524" lon="-3.402577487374">
        <ele>2275.8</ele>
        <time>2019-01-07T15:56:06Z</time>
      </trkpt>
      <trkpt lat="37.088350059161" lon="-3.40240264094">
        <ele>2274</ele>
        <time>2019-01-07T15:56:08Z</time>
      </trkpt>
      <trkpt lat="37.088388280625" lon="-3.402226453402">
        <ele>2272.4</ele>
        <time>2019-01-07T15:56:10Z</time>
      </trkpt>
      <trkpt lat="37.088402613674" lon="-3.402066945845">
        <ele>2271</ele>
        <time>2019-01-07T15:56:12Z</time>
      </trkpt>
      <trkpt lat="37.08840630171" lon="-3.401924537364">
        <ele>2269.4</ele>
        <time>2019-01-07T15:56:14Z</time>
      </trkpt>
      <trkpt lat="37.088399847647" lon="-3.401776932105">
        <ele>2268</ele>
        <time>2019-01-07T15:56:16Z</time>
      </trkpt>
      <trkpt lat="37.088383167666" lon="-3.401637457289">
        <ele>2266.4</ele>
        <time>2019-01-07T15:56:18Z</time>
      </trkpt>
      <trkpt lat="37.088382748571" lon="-3.401485828718">
        <ele>2264.8</ele>
        <time>2019-01-07T15:56:20Z</time>
      </trkpt>
      <trkpt lat="37.088368247884" lon="-3.401418019147">
        <ele>2263.6</ele>
        <time>2019-01-07T15:56:21Z</time>
      </trkpt>
      <trkpt lat="37.088365733314" lon="-3.4013498743">
        <ele>2262.4</ele>
        <time>2019-01-07T15:56:22Z</time>
      </trkpt>
      <trkpt lat="37.088349975342" lon="-3.401233030614">
        <ele>2260.6</ele>
        <time>2019-01-07T15:56:24Z</time>
      </trkpt>
      <trkpt lat="37.088333211542" lon="-3.401137728411">
        <ele>2259.8</ele>
        <time>2019-01-07T15:56:25Z</time>
      </trkpt>
      <trkpt lat="37.088333211542" lon="-3.401137728411">
        <ele>2258.8</ele>
        <time>2019-01-07T15:56:26Z</time>
      </trkpt>
      <trkpt lat="37.088333127723" lon="-3.401005797305">
        <ele>2258</ele>
        <time>2019-01-07T15:56:27Z</time>
      </trkpt>
      <trkpt lat="37.088333127723" lon="-3.401005797305">
        <ele>2257.2</ele>
        <time>2019-01-07T15:56:28Z</time>
      </trkpt>
      <trkpt lat="37.088343269822" lon="-3.40092575016">
        <ele>2256</ele>
        <time>2019-01-07T15:56:29Z</time>
      </trkpt>
      <trkpt lat="37.088349807704" lon="-3.400841679703">
        <ele>2254.8</ele>
        <time>2019-01-07T15:56:30Z</time>
      </trkpt>
      <trkpt lat="37.088348382781" lon="-3.400753166839">
        <ele>2253.2</ele>
        <time>2019-01-07T15:56:31Z</time>
      </trkpt>
      <trkpt lat="37.08835517212" lon="-3.400608327607">
        <ele>2251.8</ele>
        <time>2019-01-07T15:56:32Z</time>
      </trkpt>
      <trkpt lat="37.08835517212" lon="-3.400608327607">
        <ele>2250.2</ele>
        <time>2019-01-07T15:56:33Z</time>
      </trkpt>
      <trkpt lat="37.088354417749" lon="-3.400539428389">
        <ele>2248.6</ele>
        <time>2019-01-07T15:56:34Z</time>
      </trkpt>
      <trkpt lat="37.088374953404" lon="-3.400411604414">
        <ele>2247</ele>
        <time>2019-01-07T15:56:35Z</time>
      </trkpt>
      <trkpt lat="37.088374953404" lon="-3.400411604414">
        <ele>2245.2</ele>
        <time>2019-01-07T15:56:36Z</time>
      </trkpt>
      <trkpt lat="37.088378473802" lon="-3.400346644689">
        <ele>2243.6</ele>
        <time>2019-01-07T15:56:37Z</time>
      </trkpt>
      <trkpt lat="37.088385598417" lon="-3.400290821235">
        <ele>2242</ele>
        <time>2019-01-07T15:56:38Z</time>
      </trkpt>
      <trkpt lat="37.088400937294" lon="-3.400224855682">
        <ele>2240.4</ele>
        <time>2019-01-07T15:56:39Z</time>
      </trkpt>
      <trkpt lat="37.088405295882" lon="-3.40015210079">
        <ele>2238.8</ele>
        <time>2019-01-07T15:56:40Z</time>
      </trkpt>
      <trkpt lat="37.088408481004" lon="-3.400083201572">
        <ele>2237.2</ele>
        <time>2019-01-07T15:56:41Z</time>
      </trkpt>
      <trkpt lat="37.088426082994" lon="-3.400010195223">
        <ele>2235.4</ele>
        <time>2019-01-07T15:56:42Z</time>
      </trkpt>
      <trkpt lat="37.088431782686" lon="-3.399928639336">
        <ele>2233.8</ele>
        <time>2019-01-07T15:56:43Z</time>
      </trkpt>
      <trkpt lat="37.088403451864" lon="-3.39978162081">
        <ele>2232</ele>
        <time>2019-01-07T15:56:44Z</time>
      </trkpt>
      <trkpt lat="37.088403451864" lon="-3.39978162081">
        <ele>2230</ele>
        <time>2019-01-07T15:56:45Z</time>
      </trkpt>
      <trkpt lat="37.088354920663" lon="-3.399655724672">
        <ele>2228.2</ele>
        <time>2019-01-07T15:56:46Z</time>
      </trkpt>
      <trkpt lat="37.088325416375" lon="-3.399621610339">
        <ele>2226.8</ele>
        <time>2019-01-07T15:56:47Z</time>
      </trkpt>
      <trkpt lat="37.088325416375" lon="-3.399621610339">
        <ele>2225.4</ele>
        <time>2019-01-07T15:56:48Z</time>
      </trkpt>
      <trkpt lat="37.088282836323" lon="-3.39953351657">
        <ele>2223.8</ele>
        <time>2019-01-07T15:56:49Z</time>
      </trkpt>
      <trkpt lat="37.088282836323" lon="-3.39953351657">
        <ele>2222</ele>
        <time>2019-01-07T15:56:50Z</time>
      </trkpt>
      <trkpt lat="37.088258361175" lon="-3.399493870183">
        <ele>2220.4</ele>
        <time>2019-01-07T15:56:51Z</time>
      </trkpt>
      <trkpt lat="37.088222486643" lon="-3.399400831093">
        <ele>2219.2</ele>
        <time>2019-01-07T15:56:52Z</time>
      </trkpt>
      <trkpt lat="37.088222486643" lon="-3.399400831093">
        <ele>2217.8</ele>
        <time>2019-01-07T15:56:53Z</time>
      </trkpt>
      <trkpt lat="37.088179403677" lon="-3.399293542773">
        <ele>2216.8</ele>
        <time>2019-01-07T15:56:54Z</time>
      </trkpt>
      <trkpt lat="37.088179403677" lon="-3.399293542773">
        <ele>2215.6</ele>
        <time>2019-01-07T15:56:55Z</time>
      </trkpt>
      <trkpt lat="37.088159790031" lon="-3.399236378215">
        <ele>2214.4</ele>
        <time>2019-01-07T15:56:56Z</time>
      </trkpt>
      <trkpt lat="37.08811964073" lon="-3.399128084067">
        <ele>2213.2</ele>
        <time>2019-01-07T15:56:57Z</time>
      </trkpt>
      <trkpt lat="37.088099105075" lon="-3.399071254785">
        <ele>2211.4</ele>
        <time>2019-01-07T15:56:59Z</time>
      </trkpt>
      <trkpt lat="37.088053256082" lon="-3.398979975894">
        <ele>2209.6</ele>
        <time>2019-01-07T15:57:01Z</time>
      </trkpt>
      <trkpt lat="37.088014112609" lon="-3.398881907664">
        <ele>2209</ele>
        <time>2019-01-07T15:57:02Z</time>
      </trkpt>
      <trkpt lat="37.087997348809" lon="-3.398826000391">
        <ele>2208.4</ele>
        <time>2019-01-07T15:57:03Z</time>
      </trkpt>
      <trkpt lat="37.087982931941" lon="-3.398763471417">
        <ele>2207.8</ele>
        <time>2019-01-07T15:57:04Z</time>
      </trkpt>
      <trkpt lat="37.087973711851" lon="-3.398615279425">
        <ele>2206.8</ele>
        <time>2019-01-07T15:57:06Z</time>
      </trkpt>
      <trkpt lat="37.08801654336" lon="-3.398456861515">
        <ele>2205.6</ele>
        <time>2019-01-07T15:57:08Z</time>
      </trkpt>
      <trkpt lat="37.088116707065" lon="-3.398292660094">
        <ele>2204</ele>
        <time>2019-01-07T15:57:10Z</time>
      </trkpt>
      <trkpt lat="37.08818418136" lon="-3.398215546614">
        <ele>2202.8</ele>
        <time>2019-01-07T15:57:11Z</time>
      </trkpt>
      <trkpt lat="37.08826883855" lon="-3.398140025695">
        <ele>2201.4</ele>
        <time>2019-01-07T15:57:12Z</time>
      </trkpt>
      <trkpt lat="37.088360536536" lon="-3.398070204468">
        <ele>2200</ele>
        <time>2019-01-07T15:57:13Z</time>
      </trkpt>
      <trkpt lat="37.088460448784" lon="-3.398013542824">
        <ele>2198.6</ele>
        <time>2019-01-07T15:57:14Z</time>
      </trkpt>
      <trkpt lat="37.088569832579" lon="-3.39797699774">
        <ele>2196.8</ele>
        <time>2019-01-07T15:57:15Z</time>
      </trkpt>
      <trkpt lat="37.088687514455" lon="-3.397963921976">
        <ele>2195</ele>
        <time>2019-01-07T15:57:16Z</time>
      </trkpt>
      <trkpt lat="37.088798826087" lon="-3.397958892836">
        <ele>2193.2</ele>
        <time>2019-01-07T15:57:17Z</time>
      </trkpt>
      <trkpt lat="37.088902594009" lon="-3.397962161777">
        <ele>2191.8</ele>
        <time>2019-01-07T15:57:18Z</time>
      </trkpt>
      <trkpt lat="37.089001500429" lon="-3.39796861584">
        <ele>2190.6</ele>
        <time>2019-01-07T15:57:19Z</time>
      </trkpt>
      <trkpt lat="37.089206437884" lon="-3.397967023279">
        <ele>2188.6</ele>
        <time>2019-01-07T15:57:21Z</time>
      </trkpt>
      <trkpt lat="37.089306685408" lon="-3.397965682175">
        <ele>2187.4</ele>
        <time>2019-01-07T15:57:22Z</time>
      </trkpt>
      <trkpt lat="37.089400646507" lon="-3.397962245596">
        <ele>2186.2</ele>
        <time>2019-01-07T15:57:23Z</time>
      </trkpt>
      <trkpt lat="37.089489746104" lon="-3.397967861469">
        <ele>2185.2</ele>
        <time>2019-01-07T15:57:24Z</time>
      </trkpt>
      <trkpt lat="37.089674399361" lon="-3.398007088761">
        <ele>2183.6</ele>
        <time>2019-01-07T15:57:26Z</time>
      </trkpt>
      <trkpt lat="37.089762912225" lon="-3.398031983004">
        <ele>2182.6</ele>
        <time>2019-01-07T15:57:27Z</time>
      </trkpt>
      <trkpt lat="37.089851425089" lon="-3.398051345193">
        <ele>2181.4</ele>
        <time>2019-01-07T15:57:28Z</time>
      </trkpt>
      <trkpt lat="37.089936082279" lon="-3.398067941355">
        <ele>2180.4</ele>
        <time>2019-01-07T15:57:29Z</time>
      </trkpt>
      <trkpt lat="37.090064492987" lon="-3.398089147562">
        <ele>2178.8</ele>
        <time>2019-01-07T15:57:31Z</time>
      </trkpt>
      <trkpt lat="37.090197094645" lon="-3.398117226927">
        <ele>2177.6</ele>
        <time>2019-01-07T15:57:33Z</time>
      </trkpt>
      <trkpt lat="37.090331205045" lon="-3.398153604373">
        <ele>2176.6</ele>
        <time>2019-01-07T15:57:35Z</time>
      </trkpt>
      <trkpt lat="37.090462130323" lon="-3.398195010959">
        <ele>2175.2</ele>
        <time>2019-01-07T15:57:37Z</time>
      </trkpt>
      <trkpt lat="37.090584589882" lon="-3.398225018161">
        <ele>2173.6</ele>
        <time>2019-01-07T15:57:39Z</time>
      </trkpt>
      <trkpt lat="37.090772009166" lon="-3.398267765851">
        <ele>2172.4</ele>
        <time>2019-01-07T15:57:42Z</time>
      </trkpt>
      <trkpt lat="37.090960601916" lon="-3.398335323965">
        <ele>2171</ele>
        <time>2019-01-07T15:57:45Z</time>
      </trkpt>
      <trkpt lat="37.091079205801" lon="-3.398381340596">
        <ele>2169.8</ele>
        <time>2019-01-07T15:57:47Z</time>
      </trkpt>
      <trkpt lat="37.09113712473" lon="-3.398396847111">
        <ele>2169.2</ele>
        <time>2019-01-07T15:57:48Z</time>
      </trkpt>
      <trkpt lat="37.091247933448" lon="-3.398411599255">
        <ele>2168.4</ele>
        <time>2019-01-07T15:57:50Z</time>
      </trkpt>
      <trkpt lat="37.091489583625" lon="-3.398449233986">
        <ele>2167.2</ele>
        <time>2019-01-07T15:57:54Z</time>
      </trkpt>
      <trkpt lat="37.091608271329" lon="-3.398475972247">
        <ele>2166.2</ele>
        <time>2019-01-07T15:57:56Z</time>
      </trkpt>
      <trkpt lat="37.091786386704" lon="-3.398521569783">
        <ele>2164.6</ele>
        <time>2019-01-07T15:57:59Z</time>
      </trkpt>
      <trkpt lat="37.091967435744" lon="-3.398570855355">
        <ele>2163.2</ele>
        <time>2019-01-07T15:58:02Z</time>
      </trkpt>
      <trkpt lat="37.092137001581" lon="-3.398615949977">
        <ele>2162</ele>
        <time>2019-01-07T15:58:05Z</time>
      </trkpt>
      <trkpt lat="37.092304052848" lon="-3.398639335478">
        <ele>2160.4</ele>
        <time>2019-01-07T15:58:08Z</time>
      </trkpt>
      <trkpt lat="37.092417376136" lon="-3.398649309939">
        <ele>2158.8</ele>
        <time>2019-01-07T15:58:10Z</time>
      </trkpt>
      <trkpt lat="37.092581661376" lon="-3.39864922612">
        <ele>2157.8</ele>
        <time>2019-01-07T15:58:13Z</time>
      </trkpt>
      <trkpt lat="37.092632958604" lon="-3.398643191152">
        <ele>2157.6</ele>
        <time>2019-01-07T15:58:14Z</time>
      </trkpt>
      <trkpt lat="37.092888187459" lon="-3.398594240856">
        <ele>2156.6</ele>
        <time>2019-01-07T15:58:20Z</time>
      </trkpt>
      <trkpt lat="37.093096058579" lon="-3.398553253365">
        <ele>2156.4</ele>
        <time>2019-01-07T15:58:26Z</time>
      </trkpt>
      <trkpt lat="37.09311860589" lon="-3.398553085727">
        <ele>2156.2</ele>
        <time>2019-01-07T15:58:27Z</time>
      </trkpt>
    </trkseg>
  </trk>
</gpx>